GFSWCAN_sfc_dewp_000.txt.gz
Dewpoint
50 50 50 50 50 50 50 50 50 50 50 50 50 51 50 50 50 51 52 54 50 42 45 46 46 42 43 39 34 37 37 36 35 33 31 29 32 29 29 30 27 25 23 28 26 27 25 35 35 31 34 36 37 37
51 50 50 50 50 50 50 50 50 50 50 50 50 50 50 50 50 51 49 54 54 47 44 50 51 51 48 44 43 40 38 37 37 34 33 29 32 33 28 29 33 30 30 28 28 28 33 35 36 37 39 37 37 40
49 50 49 49 49 49 50 50 50 49 49 50 50 50 50 50 50 51 50 52 48 39 44 45 44 48 50 49 49 40 37 43 42 41 36 35 33 35 33 33 34 34 35 31 32 32 33 35 36 37 37 39 43 43
48 48 49 49 49 48 48 49 49 49 49 49 49 49 49 50 50 50 49 51 48 42 34 41 46 46 48 48 49 48 46 46 46 44 36 34 34 40 35 37 36 37 38 36 36 36 36 36 36 39 41 43 40 40
47 47 48 48 49 49 48 48 48 48 48 49 49 49 49 50 50 50 50 50 51 46 37 38 44 45 46 47 47 48 48 46 40 38 34 35 36 36 35 35 35 38 35 35 34 36 36 37 41 39 38 38 38 37
46 47 47 47 47 47 48 48 48 48 48 48 49 49 49 49 50 50 45 47 50 52 40 35 43 42 44 45 45 45 46 46 45 40 35 39 41 39 34 33 35 38 39 39 39 40 40 41 40 40 38 39 38 35
46 46 46 46 46 46 46 46 47 48 48 48 49 49 49 49 50 47 44 46 50 51 36 36 36 38 40 41 43 43 45 44 44 42 37 38 39 42 33 36 36 37 38 38 39 40 39 39 37 37 33 33 32 29
46 46 46 46 46 46 46 46 47 47 48 48 48 49 49 49 48 45 47 48 51 45 39 35 35 36 41 35 34 39 36 38 41 41 38 36 37 35 34 37 38 38 39 39 40 39 38 37 33 29 29 30 31 31
46 46 45 45 45 46 46 46 47 48 48 48 48 48 46 45 41 43 47 47 46 44 36 33 33 33 41 37 36 35 36 33 37 33 35 37 33 34 36 37 38 37 35 35 35 34 33 32 30 31 30 30 32 32
45 45 45 45 45 45 46 46 46 47 48 47 44 41 35 39 47 46 42 38 37 36 37 33 36 34 39 34 33 33 33 32 31 33 36 33 34 35 35 36 36 34 35 36 33 32 34 30 28 28 29 31 30 30
45 45 44 44 44 45 45 46 45 44 44 43 37 35 42 46 43 37 33 33 33 31 33 33 34 34 38 33 32 33 32 32 27 24 31 23 27 32 32 33 35 36 36 34 31 28 27 27 27 30 30 30 28 28
46 45 45 44 45 45 45 45 44 43 43 42 41 44 42 40 34 33 31 32 31 28 32 32 34 36 35 39 33 32 28 29 24 26 27 23 25 29 31 31 31 29 29 28 28 28 28 28 29 30 30 30 28 27
45 46 45 45 45 45 45 43 44 44 44 42 37 35 35 33 30 27 25 28 27 32 34 34 33 34 34 34 32 28 26 23 23 25 23 22 28 30 30 30 30 29 28 28 29 30 31 29 29 28 28 27 25 27
45 45 45 45 44 44 41 42 43 41 39 32 29 27 28 24 26 26 27 29 33 33 33 33 32 30 30 22 27 24 23 21 18 21 17 23 26 29 30 31 28 27 27 27 29 29 28 27 27 24 32 31 30 31
45 45 45 44 43 42 42 41 41 40 33 28 27 20 23 28 30 31 33 33 33 34 33 30 29 27 22 18 18 17 16 20 21 16 19 24 26 27 27 28 28 26 25 26 29 27 26 25 25 27 28 32 28 30
45 43 43 43 43 42 41 40 40 37 29 27 26 20 27 27 28 30 31 32 34 31 27 27 22 17 16 16 13 12 13 13 15 17 22 25 26 26 27 27 28 28 28 29 30 29 28 26 27 27 30 32 29 32
40 39 44 43 42 41 40 37 34 30 25 21 18 29 25 27 21 30 28 32 35 31 19 19 15 16 19 10 11 20 14 17 20 23 25 26 26 27 27 27 26 27 28 28 28 28 27 27 24 30 30 29 26 30
39 42 43 42 40 38 36 33 30 26 23 22 19 19 21 20 30 29 30 32 33 30 21 17 22 13 10 8 10 16 18 20 24 24 25 26 27 27 27 27 28 28 28 28 27 27 26 25 26 28 28 28 29 29
41 40 41 41 38 32 27 28 29 21 21 20 21 21 21 20 21 23 24 31 32 32 26 17 9 10 12 15 12 14 14 17 23 26 26 26 27 27 28 28 28 28 28 28 28 28 28 28 28 30 31 28 30 29
41 40 39 40 39 30 25 23 29 23 20 23 20 20 21 21 20 20 28 27 30 29 27 25 18 18 18 21 23 22 24 25 23 24 25 25 27 28 28 28 28 28 28 28 28 24 26 28 28 30 29 30 30 28
39 40 40 38 35 30 25 22 21 23 24 22 23 23 19 16 20 27 28 24 27 26 24 24 22 24 25 25 25 26 26 26 25 25 26 26 28 27 27 28 28 27 27 28 26 29 26 28 31 31 32 32 32 32
36 39 35 36 30 27 23 24 23 23 21 19 19 21 15 14 16 22 21 27 27 23 23 23 23 23 23 24 24 26 27 27 28 28 26 26 26 26 27 27 23 26 31 31 31 32 32 33 33 33 32 32 31 29
37 35 32 31 23 21 16 25 18 22 17 15 17 14 11 10 16 23 14 22 23 26 26 25 25 26 26 26 27 28 28 27 27 26 25 25 25 22 23 25 21 26 29 31 32 32 32 33 33 32 32 31 29 28
36 30 27 25 18 10 19 25 24 18 12 15 12 8 12 13 17 12 12 13 22 25 25 26 26 26 26 26 26 26 27 27 26 25 22 22 21 23 23 29 29 31 32 33 32 32 32 32 30 29 30 30 28 27
21 25 25 21 24 21 21 11 10 11 9 7 5 5 11 13 9 4 9 17 18 19 22 23 24 25 25 25 22 25 25 27 25 24 21 22 19 21 28 29 29 29 31 32 31 32 32 32 30 30 28 26 28 28
16 20 23 19 14 15 14 6 6 10 3 5 7 12 6 6 5 9 15 15 13 16 15 19 20 19 23 27 27 25 25 24 24 21 22 23 23 27 28 27 27 28 30 32 31 31 30 30 29 23 20 26 25 27
12 15 22 24 22 19 10 7 11 7 4 7 7 6 6 10 8 13 19 20 21 21 23 23 25 25 25 27 27 26 23 24 25 25 25 29 30 29 29 28 27 28 32 32 31 32 30 30 29 27 27 28 28 29
18 13 18 18 18 17 9 3 5 9 10 16 10 6 9 10 11 18 22 24 23 25 25 25 27 28 27 26 22 21 21 20 19 21 20 21 24 24 24 31 32 31 31 32 31 32 31 31 31 31 29 29 29 28
23 18 21 17 15 16 15 14 13 17 20 16 10 7 10 17 18 18 22 23 27 25 25 27 27 28 30 29 28 28 29 23 21 21 25 25 26 23 18 23 28 29 30 31 31 31 31 31 31 31 31 30 30 27
18 22 18 7 12 13 16 18 14 14 18 23 21 21 21 21 23 26 25 25 21 27 27 24 25 28 30 29 28 22 24 29 30 29 25 22 22 23 28 30 29 30 30 30 30 27 25 25 28 30 29 27 27 25
14 10 9 6 8 14 18 15 14 15 11 17 23 22 23 24 20 20 17 22 27 30 30 29 29 28 27 26 26 25 24 21 21 19 17 16 19 22 25 28 29 29 27 16 17 19 21 24 24 26 25 25 24 23
7 11 13 11 18 18 20 18 17 18 18 13 22 17 18 15 21 18 19 18 20 19 19 19 19 19 21 20 22 21 19 18 15 14 13 12 13 14 16 18 20 23 21 16 16 18 20 22 23 22 22 22 21 20
7 4 4 5 7 5 11 12 9 8 5 11 17 19 19 18 21 16 17 18 15 14 14 15 16 19 19 22 22 20 18 18 19 19 18 17 14 13 13 14 15 18 18 17 17 17 15 14 13 12 11 11 10 9

GFSWCAN_sfc_dewp_003.txt.gz
Dewpoint
50 50 50 50 50 50 50 50 50 50 50 50 51 51 51 50 50 51 50 52 48 40 43 45 44 41 41 38 33 37 36 35 35 32 28 29 20 28 28 29 26 25 26 24 27 25 23 33 35 32 35 36 36 37
50 49 50 50 49 50 50 50 50 50 50 50 50 50 50 50 50 51 49 52 51 45 42 49 50 48 45 42 41 38 37 36 37 35 33 29 29 32 26 29 31 30 30 27 29 28 32 33 36 37 38 37 37 38
49 50 49 49 49 49 50 50 49 49 49 49 50 50 50 50 50 51 49 50 47 38 42 43 43 46 50 47 47 40 35 41 39 40 34 34 33 33 33 33 34 36 37 31 32 34 33 36 37 37 38 39 43 39
48 49 49 49 49 49 49 49 49 49 49 49 49 49 49 50 50 49 48 49 46 41 34 39 44 45 48 49 48 46 45 45 43 39 34 34 34 39 34 37 36 37 39 36 35 37 38 37 38 41 42 40 38 37
48 48 48 48 48 48 48 48 48 48 49 49 49 50 49 50 50 48 48 48 50 45 36 38 42 45 45 47 46 47 46 45 39 37 34 35 36 36 35 35 34 39 36 35 36 37 37 38 41 41 39 37 37 36
46 47 47 47 48 48 48 48 48 48 48 48 49 49 50 49 50 50 45 47 50 50 39 36 41 41 43 44 44 44 45 44 43 41 36 39 41 38 34 34 36 38 40 41 39 40 43 42 36 35 35 35 37 37
46 46 46 47 46 47 47 48 48 48 48 48 48 49 49 49 50 48 45 45 49 49 37 35 36 36 39 41 41 41 43 42 43 41 37 38 39 41 33 34 37 39 39 38 40 42 40 38 36 34 32 31 29 28
46 46 46 46 46 46 46 47 47 48 48 48 48 49 49 49 48 45 47 48 50 45 39 35 35 35 39 35 34 39 35 38 40 41 37 35 36 35 34 37 37 38 38 38 39 40 38 37 36 30 28 30 30 30
46 45 45 45 46 46 46 46 47 47 48 48 48 48 47 45 42 44 47 47 46 44 36 33 33 33 39 36 35 34 36 33 36 33 34 37 34 34 37 36 37 37 36 35 35 35 35 31 31 29 27 28 29 30
46 45 45 45 45 46 46 46 47 47 48 47 45 42 35 39 47 46 43 39 37 36 36 33 36 34 40 33 33 34 33 32 31 32 35 32 33 35 35 32 34 35 35 35 31 31 28 24 24 25 26 28 30 30
46 45 44 44 45 45 45 45 47 47 45 41 37 35 42 46 42 37 34 34 34 33 33 33 34 34 37 34 33 33 32 32 27 23 30 26 26 30 31 33 34 34 31 28 28 27 26 25 25 26 27 29 30 29
46 45 44 44 45 45 45 43 44 44 42 41 41 43 42 39 35 33 32 32 32 30 32 32 33 36 34 38 33 32 28 29 23 27 28 22 25 28 29 29 28 28 27 28 28 28 29 29 29 28 28 29 28 25
45 45 45 45 45 45 44 44 44 44 44 40 37 35 36 33 31 29 26 29 28 31 33 33 32 33 34 35 31 28 25 23 24 23 21 22 26 28 30 30 29 29 28 27 28 29 30 30 29 27 27 26 29 30
45 45 45 44 44 42 43 43 42 41 37 30 29 30 30 27 29 27 22 23 31 33 33 33 32 30 29 24 25 23 21 19 21 20 15 21 25 25 25 27 28 28 25 24 25 27 27 26 26 25 21 25 28 29
45 45 45 44 43 42 41 41 41 38 32 29 23 18 25 25 31 32 33 33 33 34 33 32 30 27 24 18 23 18 17 17 19 15 17 23 25 26 26 27 28 26 24 25 27 26 25 25 25 26 26 24 26 31
45 44 43 43 42 42 41 41 39 34 29 27 25 19 28 29 29 30 32 32 34 33 31 29 17 14 15 13 12 17 12 11 14 14 20 24 26 26 26 27 27 27 27 27 27 27 27 25 25 26 25 24 26 28
42 40 43 43 42 41 40 37 34 31 24 17 17 29 19 26 20 28 31 32 34 31 26 19 14 13 17 9 11 18 13 14 16 21 23 25 26 26 27 27 25 26 27 27 27 27 27 27 24 22 23 27 25 25
40 43 43 43 40 37 36 32 27 24 22 21 19 18 27 21 30 31 28 24 32 30 24 19 20 11 8 7 9 15 17 19 22 23 24 26 27 27 27 27 28 28 28 28 26 26 26 24 25 27 27 27 25 24
42 42 42 41 37 32 28 29 29 21 19 18 20 20 19 20 23 21 19 23 32 31 29 24 9 10 12 14 11 11 9 14 22 23 25 25 26 26 27 27 28 28 28 27 27 28 29 28 28 28 28 29 29 30
42 41 41 40 36 28 24 22 27 23 20 22 19 19 20 20 19 21 29 24 28 30 28 25 18 17 17 20 21 20 22 23 23 22 23 24 26 27 27 27 28 28 27 27 26 23 28 28 28 28 30 31 30 31
39 40 40 36 32 29 26 22 20 22 23 21 22 21 18 20 24 21 27 30 27 27 25 24 19 22 25 25 25 25 25 25 24 24 24 25 27 27 27 27 27 25 24 24 23 27 29 30 30 32 33 32 33 32
39 39 35 35 29 23 23 23 22 22 19 17 17 20 14 12 19 24 22 26 26 25 24 22 23 23 23 24 24 25 25 25 26 27 25 26 25 25 23 23 21 19 27 28 29 29 31 31 32 32 32 32 32 29
37 34 31 30 20 15 16 23 16 20 16 14 16 14 9 8 15 23 18 23 22 25 26 25 25 26 25 25 25 26 27 27 27 27 26 25 25 23 19 21 17 21 28 28 30 31 32 32 32 32 31 32 30 27
34 28 23 20 14 11 18 24 23 16 11 13 10 7 10 10 14 10 12 12 22 24 25 26 26 25 25 25 26 26 27 27 26 25 23 20 22 23 22 23 22 24 28 30 30 30 32 32 32 30 26 29 28 28
20 24 17 20 23 21 16 11 10 15 13 6 6 4 9 10 9 3 9 15 13 15 20 21 21 24 23 22 22 24 24 26 25 23 24 21 17 16 19 21 23 27 25 29 28 31 31 31 31 30 29 27 24 25
10 19 21 20 21 11 13 9 16 12 1 2 5 9 1 2 3 7 13 14 11 14 13 14 15 16 21 25 24 24 25 24 24 21 23 23 22 20 20 26 26 23 21 28 31 30 30 29 30 30 28 27 22 26
11 18 23 22 20 18 10 4 8 4 1 5 4 2 3 4 5 12 18 18 20 20 21 22 24 23 24 24 25 25 24 21 25 25 23 23 25 25 25 27 24 23 28 31 30 29 28 29 30 30 29 29 27 27
16 16 18 17 14 12 5 0 3 7 8 14 8 6 8 8 11 17 20 21 21 22 24 24 24 26 25 25 21 19 24 22 15 17 17 20 24 21 17 28 29 27 26 28 29 30 29 29 30 30 30 30 28 29
24 19 15 10 12 13 16 13 11 15 18 16 10 5 9 16 16 16 19 20 20 21 19 23 23 14 20 30 29 29 24 28 25 20 21 18 21 25 24 22 28 30 29 28 28 30 31 30 29 29 29 30 31 32
17 21 22 20 19 18 18 17 12 12 16 21 20 19 19 17 18 18 17 17 15 14 17 20 21 22 27 29 27 26 26 24 27 27 23 18 16 14 19 26 27 28 28 28 27 25 20 18 20 23 24 26 27 26
14 9 7 3 7 10 15 10 4 6 7 14 15 19 21 20 13 11 14 13 13 22 21 20 24 21 21 21 20 18 19 17 18 18 16 10 8 8 8 12 17 22 26 24 24 14 9 12 15 17 20 22 22 23
14 10 10 7 9 13 7 12 9 10 14 4 19 10 7 9 9 8 14 13 12 13 12 14 14 17 19 20 18 16 17 18 18 17 16 14 13 9 8 9 10 12 13 21 18 11 11 10 10 10 12 17 17 15
0 -4 -6 -1 4 4 4 5 2 3 -2 1 14 7 6 13 13 11 15 15 14 13 13 14 15 16 18 19 19 19 19 19 19 19 18 16 12 9 3 2 1 4 6 8 12 11 10 6 4 4 5 6 6 5

GFSWCAN_sfc_dewp_006.txt.gz
Dewpoint
49 50 50 50 50 50 50 50 50 50 50 50 50 51 50 50 50 51 50 50 46 38 41 44 42 40 39 37 33 36 36 34 35 32 28 29 19 27 27 29 25 23 22 21 26 26 22 31 34 31 34 38 37 37
50 50 49 49 49 49 50 50 50 50 50 50 50 50 50 50 50 50 49 50 49 43 40 47 47 46 42 40 39 36 36 35 35 33 32 29 27 28 28 29 30 28 29 29 32 28 32 33 37 36 37 38 38 38
49 50 49 49 49 49 49 49 49 49 49 49 50 50 50 50 50 50 48 48 45 38 41 43 42 45 49 46 45 39 34 39 37 38 33 32 27 30 32 32 29 35 37 34 33 34 37 39 38 39 41 41 39 39
48 48 49 48 49 49 49 49 49 49 49 49 49 50 50 50 50 49 48 46 45 40 34 38 43 43 46 48 46 45 43 43 41 38 33 33 34 38 34 36 36 37 37 36 35 38 38 38 40 40 39 40 39 38
47 47 48 48 48 48 49 49 49 49 49 50 50 50 49 50 49 48 48 48 48 44 35 37 42 44 45 46 45 44 45 43 40 37 34 35 34 36 34 35 34 38 37 33 33 36 41 41 41 41 39 37 37 36
47 47 47 47 48 48 48 48 48 48 48 49 49 50 50 49 49 48 44 46 48 49 39 34 40 38 41 43 43 42 44 42 41 40 35 38 41 37 33 33 36 37 38 39 39 42 41 42 40 38 36 34 34 33
46 46 46 46 47 48 47 47 47 48 48 48 48 49 49 49 51 48 43 44 48 46 36 35 35 34 38 40 40 40 41 40 41 40 37 37 38 41 33 34 36 38 40 40 39 40 38 36 35 35 34 30 30 30
46 46 46 46 46 46 47 47 47 48 48 48 48 48 49 49 48 46 46 48 49 44 39 35 35 33 38 34 34 38 35 38 41 40 37 35 36 35 34 37 37 37 37 38 38 38 37 37 34 29 26 26 25 26
45 45 45 45 46 46 46 47 47 48 48 48 48 48 47 46 42 44 47 47 47 43 37 33 33 33 39 36 35 33 35 33 37 33 34 36 33 34 36 33 32 33 34 34 36 35 32 25 25 25 25 25 24 26
45 45 44 44 45 46 46 46 47 48 48 48 46 42 36 39 47 47 43 40 39 36 37 33 36 34 40 33 33 34 33 32 32 33 34 32 33 34 30 34 35 35 34 33 30 26 25 24 25 25 25 25 26 28
46 45 44 44 45 45 46 46 47 47 46 42 38 35 42 46 42 38 34 34 34 33 34 34 34 34 37 34 33 33 32 32 24 23 30 28 26 28 29 28 28 28 28 27 26 26 25 26 27 28 27 26 26 27
46 44 44 44 45 45 44 46 45 43 42 41 42 43 42 39 35 34 32 32 32 29 32 32 33 36 34 38 33 32 29 29 23 27 26 19 24 28 29 29 28 28 27 26 26 27 28 29 30 29 29 28 27 26
45 44 44 44 44 44 44 44 44 44 43 39 37 35 36 33 31 29 25 29 29 32 33 33 32 33 34 34 31 30 24 21 24 21 19 22 25 24 23 26 27 28 26 25 25 25 26 26 27 25 26 26 25 25
45 44 44 45 44 43 43 43 42 41 37 32 30 30 28 28 29 29 28 23 26 33 33 33 31 30 29 28 27 19 22 22 22 15 14 20 23 22 25 26 27 25 23 23 25 26 25 24 25 24 22 23 22 23
45 44 44 44 42 42 41 42 40 38 35 30 26 23 27 26 28 32 32 33 33 34 33 32 30 27 25 22 24 19 20 17 17 14 15 21 24 25 25 25 25 25 23 23 26 25 23 23 23 25 25 24 23 22
45 44 42 43 42 41 41 39 38 34 30 27 24 19 27 29 28 30 32 32 34 33 31 28 20 21 18 16 14 17 15 13 14 13 19 23 25 26 26 25 26 26 26 26 27 26 26 23 23 26 26 24 23 22
43 40 43 43 42 40 39 36 34 29 24 20 19 28 19 20 22 24 32 32 34 31 26 24 14 13 16 9 12 17 12 14 16 19 22 25 25 25 26 26 24 25 26 26 26 26 26 26 23 22 23 27 25 25
40 43 43 42 39 37 35 32 27 25 21 21 20 19 29 24 22 24 28 28 31 29 25 22 20 11 7 7 10 15 17 17 20 20 23 25 26 26 26 26 26 27 27 27 25 25 24 22 24 27 27 27 27 27
42 42 41 39 37 31 29 28 28 20 19 19 21 22 20 22 27 25 23 27 30 31 27 21 10 11 14 15 13 9 8 14 20 23 24 25 25 25 26 26 26 27 27 26 26 27 28 27 27 28 27 27 29 30
42 41 40 38 35 28 24 24 27 23 20 22 19 21 20 20 24 26 29 25 25 29 28 22 19 17 17 19 20 20 21 21 22 21 22 23 25 25 26 27 27 27 27 26 25 23 25 26 27 27 27 29 31 31
40 39 38 35 30 28 25 20 20 21 23 21 21 20 16 25 25 25 27 27 27 26 20 23 18 23 24 24 24 24 25 25 24 23 22 22 25 26 26 27 26 24 21 20 25 27 27 28 29 31 31 30 30 31
38 39 34 33 25 22 23 23 21 21 18 16 15 17 9 8 19 23 27 25 24 22 24 23 23 24 24 24 24 25 25 25 26 25 23 24 24 23 23 24 18 21 19 20 23 25 28 28 30 32 31 30 30 32
36 33 28 24 19 14 19 22 16 19 12 12 13 11 8 6 12 24 22 24 22 25 25 25 25 25 25 25 25 26 26 25 25 25 25 25 26 24 19 21 18 20 21 23 22 25 29 29 29 32 32 31 30 30
34 28 23 20 14 14 22 19 20 16 10 9 8 11 9 8 14 20 16 11 21 22 23 25 26 24 24 24 24 25 26 26 26 24 23 20 21 23 21 22 19 19 22 25 25 29 28 28 32 32 32 29 29 28
22 24 16 18 20 17 13 7 8 18 18 7 7 6 7 8 7 5 8 14 11 12 17 18 20 23 21 18 19 22 22 25 23 22 24 21 19 15 19 20 20 21 19 15 18 22 29 30 30 29 30 30 28 28
12 22 18 14 19 9 8 11 15 14 -1 1 11 5 -3 -0 3 7 12 13 8 11 10 10 12 14 19 23 22 21 23 22 21 19 24 22 22 22 18 17 20 21 18 25 28 29 28 28 27 27 27 27 28 28
12 19 24 22 19 14 5 1 6 2 -1 5 3 0 1 3 3 11 16 17 19 19 20 20 20 21 23 23 23 23 21 19 22 23 20 20 22 23 23 22 26 26 27 28 27 28 27 27 27 27 28 27 28 29
12 14 16 18 19 14 4 -1 1 5 7 12 6 5 6 7 10 16 20 21 20 20 20 21 21 23 23 23 20 17 23 23 23 14 19 25 26 26 22 21 25 27 25 27 28 28 28 29 28 27 26 26 26 27
22 19 15 15 7 5 10 11 9 13 18 15 11 7 10 15 16 16 18 17 15 19 18 18 19 13 17 18 19 24 24 27 27 25 23 23 14 22 22 20 22 26 28 28 28 28 26 21 19 22 21 24 26 27
19 17 11 7 10 12 16 20 14 11 13 16 17 18 17 15 12 14 14 15 18 20 22 22 24 24 25 26 26 26 22 23 24 25 22 16 15 14 14 15 16 21 23 26 26 25 24 10 12 13 14 16 16 17
8 11 13 11 10 10 13 4 -1 1 2 9 9 15 19 14 13 7 12 9 11 12 13 11 12 14 13 15 16 18 20 18 18 15 15 15 15 15 13 12 11 12 16 20 22 21 11 5 2 1 7 15 16 12
16 10 8 5 7 6 1 10 1 2 3 2 16 1 3 5 0 6 12 10 9 9 9 10 10 11 15 17 18 18 17 16 15 15 14 14 13 11 8 6 4 3 1 8 5 3 0 -2 -3 -1 -2 2 4 4
-4 -3 2 -4 3 4 -1 0 -1 3 -4 -7 -4 -3 -5 2 5 9 14 14 12 10 9 11 13 15 17 16 15 15 15 15 14 13 12 13 8 5 1 -3 -5 -6 -5 -4 -3 -5 -3 -5 -6 -4 -3 -2 -1 -1

GFSWCAN_sfc_dewp_009.txt.gz
Dewpoint
49 49 49 49 49 49 49 50 50 50 50 50 50 51 50 50 50 52 51 51 46 39 42 45 42 39 40 38 37 38 38 38 37 34 33 33 31 31 30 29 27 28 29 28 28 28 25 31 33 34 38 41 39 39
49 49 49 49 49 49 49 49 50 49 50 49 50 51 50 50 50 50 50 50 49 45 42 48 50 47 44 41 40 38 38 37 39 35 33 33 31 29 30 32 31 31 32 31 32 32 33 34 36 40 40 40 40 40
48 48 49 48 49 49 49 49 49 49 49 49 50 51 50 50 50 50 49 48 46 39 42 44 44 46 49 47 46 41 38 40 39 40 37 34 33 33 31 31 34 35 36 36 34 37 36 38 40 42 41 40 39 39
47 47 47 48 48 48 49 49 49 49 49 49 49 50 50 49 49 49 49 47 46 41 34 39 44 44 47 49 48 46 44 43 42 40 35 34 33 38 34 37 37 37 38 37 35 37 37 38 41 42 40 40 38 37
47 47 47 47 48 48 48 48 48 48 49 49 48 49 49 49 49 49 49 49 48 46 37 38 42 44 45 46 47 46 45 44 41 38 34 35 37 37 36 36 35 39 38 37 35 38 40 40 42 42 38 37 35 35
46 46 46 46 47 47 48 48 48 49 49 49 49 50 49 49 49 48 44 47 49 48 39 35 41 40 41 44 45 45 45 44 43 41 36 40 42 40 33 33 38 38 39 40 39 42 42 41 39 37 34 33 30 28
46 46 46 46 46 47 47 47 48 48 48 48 49 49 49 48 51 47 43 45 48 46 37 35 35 37 39 40 40 40 42 42 44 41 37 38 38 41 33 33 37 38 38 40 39 40 37 35 34 32 27 25 27 25
46 45 46 46 46 46 47 47 47 48 48 48 49 49 49 48 48 47 48 48 48 44 40 34 35 34 39 36 36 38 37 40 42 41 37 36 37 36 34 37 34 33 34 38 38 38 37 30 26 25 26 25 25 24
45 45 45 45 46 46 46 47 47 47 48 48 48 49 48 46 43 45 47 47 47 44 37 33 34 34 39 37 36 35 37 34 38 34 35 37 35 33 33 32 34 35 35 35 32 25 26 27 26 26 26 26 25 24
45 44 44 45 45 45 46 47 47 47 48 48 46 43 36 40 47 47 44 40 38 37 37 34 36 35 39 35 34 35 34 33 32 34 34 33 33 30 29 33 35 34 33 32 28 27 27 26 27 27 27 28 27 26
45 45 44 45 45 45 46 47 47 47 46 43 38 35 42 46 42 38 34 34 35 33 35 34 35 35 38 35 34 33 32 33 28 28 31 30 29 29 28 28 29 29 29 28 27 27 27 28 28 28 29 30 30 29
46 44 44 45 45 45 46 47 46 44 43 43 42 44 42 40 35 33 32 32 33 31 33 33 34 36 35 38 33 32 31 30 23 29 29 26 27 28 29 28 29 28 26 24 24 25 26 26 28 29 29 28 28 28
45 44 44 45 44 44 45 45 45 45 44 42 38 34 36 33 31 30 28 29 31 33 33 33 32 33 34 35 32 30 26 25 27 25 23 24 25 23 23 26 26 26 26 26 25 26 28 27 27 26 27 27 27 27
45 44 44 44 44 45 45 45 44 41 39 33 33 31 30 29 30 27 26 27 30 33 33 33 31 31 30 29 28 24 24 24 23 19 20 24 22 22 25 28 25 24 24 24 26 27 27 26 26 26 24 25 25 26
45 44 45 43 43 42 43 42 41 41 34 28 28 27 28 27 31 32 33 33 33 34 33 31 30 30 26 25 24 23 22 20 20 19 22 25 26 26 26 26 25 25 24 24 27 28 26 25 25 26 27 28 28 26
45 44 41 42 42 43 41 40 39 35 30 28 25 24 27 27 29 32 33 32 34 33 31 30 24 26 23 22 21 19 18 15 20 22 24 24 26 27 27 27 26 26 26 27 27 27 27 26 25 28 28 27 26 26
44 40 43 42 41 40 39 35 34 29 26 22 22 26 24 23 27 30 33 33 35 33 28 24 21 21 20 18 18 19 17 20 22 23 22 25 26 26 26 26 25 26 26 27 27 28 28 28 26 25 26 28 29 28
40 43 43 41 38 38 35 32 28 25 22 24 22 25 29 28 23 23 30 32 33 29 26 23 22 16 15 14 16 19 21 22 22 23 24 25 26 26 26 26 26 27 27 28 27 27 26 26 27 28 28 29 28 29
42 42 41 40 37 31 29 29 28 20 19 20 22 25 26 28 28 27 29 30 30 29 26 22 17 18 19 20 20 19 19 20 22 23 24 25 26 26 25 26 26 27 27 28 28 28 28 28 27 28 29 29 29 29
41 40 39 38 36 28 25 23 26 22 20 22 22 25 22 24 27 28 29 31 32 32 29 26 23 23 21 22 22 23 23 22 22 23 24 25 26 25 26 27 27 28 28 28 27 24 27 28 28 28 29 29 30 29
39 39 37 35 30 28 25 21 21 22 23 21 21 21 19 26 26 26 28 30 29 27 26 26 24 26 25 25 25 25 25 25 24 26 25 24 26 26 26 27 28 27 26 27 26 27 24 28 29 30 30 30 31 31
38 38 34 30 25 23 22 23 22 21 19 18 17 18 11 12 22 24 28 26 25 24 26 25 25 26 25 25 26 27 27 27 27 26 25 25 25 25 26 26 25 26 26 27 27 27 28 28 30 30 30 31 32 31
35 33 28 23 19 15 19 22 16 18 12 13 13 12 10 8 14 24 22 23 24 25 26 26 25 26 26 26 25 26 26 26 26 26 26 26 26 27 26 26 25 25 25 27 27 27 27 29 29 29 31 32 32 32
32 27 24 15 13 16 21 13 18 18 13 11 10 13 10 11 18 20 18 17 21 23 24 26 26 25 25 24 25 25 26 27 26 26 26 25 25 26 26 26 26 25 26 28 26 27 28 30 28 31 30 27 27 29
20 22 16 17 19 14 9 15 17 20 15 16 14 10 8 10 9 11 16 16 15 16 19 17 19 24 22 22 21 23 23 25 25 24 26 24 26 24 25 25 24 25 26 25 26 25 26 30 31 29 27 27 27 28
14 22 10 9 10 9 8 14 15 16 10 9 14 6 1 4 6 9 13 16 14 16 15 16 18 18 19 22 22 23 24 24 24 24 26 25 25 25 25 25 24 26 26 27 28 28 28 27 28 27 27 28 27 27
15 18 21 21 17 13 5 4 8 3 9 9 5 1 3 5 4 12 17 18 20 20 20 21 21 21 22 23 24 24 24 22 24 25 24 24 25 25 25 27 27 29 29 29 29 28 27 27 27 28 27 26 26 26
11 13 12 15 17 10 3 -1 1 6 8 12 7 6 8 8 10 17 20 21 20 21 22 21 21 22 23 24 24 23 24 24 27 26 24 24 26 25 25 25 26 26 27 28 29 28 28 28 26 25 25 26 25 26
18 13 13 18 16 15 8 13 13 15 17 14 10 6 11 16 15 15 16 16 17 21 20 20 22 21 22 23 26 24 25 27 27 26 26 25 25 23 19 20 21 23 25 26 27 28 27 26 24 23 22 22 22 21
17 15 10 6 8 10 14 17 12 10 13 15 15 17 17 12 12 11 11 11 10 11 13 15 17 17 17 16 16 18 19 19 19 20 21 21 18 16 16 16 17 17 18 21 23 24 23 16 15 14 14 17 15 14
9 19 11 11 9 10 9 -1 -3 -0 1 7 4 14 16 10 10 8 10 7 4 6 8 8 8 11 12 12 13 15 17 17 17 17 17 15 14 13 12 11 11 11 12 16 20 19 14 10 8 7 8 7 6 7
17 14 10 10 8 3 2 9 3 0 -2 1 5 -4 1 4 -2 6 10 9 7 6 8 8 8 10 14 17 16 16 15 14 12 13 13 12 11 10 8 6 5 4 7 7 7 7 5 4 4 3 3 3 2 2
7 10 9 4 6 5 -1 -3 -1 4 -2 -6 -6 -6 -5 -2 -5 3 6 9 9 7 6 7 9 15 13 12 11 11 11 11 10 9 8 8 5 3 2 0 -0 1 2 2 1 2 1 0 -0 -1 -1 -3 -3 -3

GFSWCAN_sfc_dewp_012.txt.gz
Dewpoint
49 49 50 50 49 49 49 50 50 50 50 51 51 51 50 50 50 54 54 54 50 47 44 45 43 42 41 42 45 44 43 44 44 37 37 38 36 36 33 30 31 31 36 33 34 30 29 33 32 36 37 40 41 40
49 49 49 49 49 49 49 49 49 50 50 50 50 51 50 50 50 52 52 54 53 50 47 51 51 48 47 42 43 45 42 42 45 43 39 38 34 34 39 34 33 32 33 32 32 34 34 36 37 38 41 41 40 40
47 48 48 49 48 49 49 49 49 49 50 50 50 51 50 50 50 52 53 54 52 50 48 49 47 48 50 48 48 46 47 43 44 45 45 41 35 40 34 36 39 35 35 36 36 35 35 37 38 41 42 41 40 38
47 47 47 48 48 48 48 48 49 49 49 49 50 50 50 49 49 51 54 51 51 47 37 46 45 46 47 50 50 48 46 46 46 47 39 37 37 40 39 39 38 36 37 35 36 37 38 36 41 42 41 40 38 31
46 46 46 47 47 48 48 48 48 48 49 49 49 48 50 49 50 54 55 53 53 51 44 46 45 45 45 47 49 48 48 48 47 42 36 38 45 42 41 40 39 37 35 37 37 39 40 40 39 41 41 34 31 30
46 46 46 46 46 47 48 48 48 48 48 49 49 50 50 49 50 54 51 54 53 53 48 42 45 43 43 46 48 48 48 49 48 45 41 45 43 44 34 36 38 37 39 39 39 41 39 40 40 37 31 30 24 24
46 46 46 46 46 47 47 47 48 48 48 49 49 49 50 49 55 51 48 50 50 52 44 41 42 42 41 43 44 45 47 48 47 46 42 45 45 42 37 35 37 39 35 36 39 39 38 37 35 30 26 26 27 25
45 45 45 46 46 46 46 47 47 48 48 48 48 49 48 48 49 51 52 49 51 48 45 39 37 41 41 41 39 41 42 44 44 43 39 42 41 41 36 38 35 34 36 37 38 38 36 31 28 26 26 24 23 19
45 45 44 45 46 46 46 47 47 48 48 48 48 48 49 48 45 48 47 48 51 48 41 36 35 35 41 39 39 40 42 37 41 36 37 40 37 36 37 34 34 35 36 34 31 30 27 24 22 21 20 19 20 23
44 44 44 45 45 45 46 46 47 47 48 48 48 44 36 42 47 48 46 46 43 43 41 37 43 39 41 38 37 38 38 37 35 36 36 33 34 30 31 35 35 36 33 31 28 24 21 19 16 18 21 23 24 24
45 45 44 45 45 46 46 46 47 47 47 43 39 36 43 46 44 40 35 36 35 34 36 36 36 36 40 38 37 37 34 35 32 34 34 33 32 31 32 29 29 28 25 20 18 18 20 21 22 24 26 27 29 29
45 45 44 45 45 46 46 46 46 45 44 44 43 44 42 39 35 34 32 32 33 34 34 34 35 37 36 40 36 34 34 34 30 33 31 28 30 29 28 28 27 23 20 18 19 21 23 25 27 28 28 28 30 31
44 45 44 45 44 46 46 46 46 45 45 44 39 33 35 32 32 32 30 32 32 35 34 34 33 36 36 37 33 35 32 31 32 28 27 29 29 29 27 26 25 23 23 26 22 24 27 28 30 30 31 32 33 32
43 45 44 45 44 45 45 45 45 44 41 36 33 31 33 31 33 33 34 36 36 36 36 35 33 35 33 32 33 31 30 30 27 24 27 28 25 21 23 27 23 21 32 27 26 28 32 33 32 33 31 32 31 31
43 45 45 44 43 44 44 43 43 41 37 33 34 30 31 31 34 34 35 36 35 37 36 34 33 34 32 30 30 29 26 24 25 26 29 28 24 24 26 28 26 30 33 30 27 32 33 32 32 32 33 34 33 32
44 44 44 43 43 42 42 42 41 37 34 31 31 30 31 32 32 33 34 33 35 34 35 35 32 31 29 29 27 27 24 21 26 32 31 26 26 27 28 31 29 26 27 27 28 29 30 32 32 31 32 32 32 32
45 41 43 42 41 39 38 37 38 30 30 32 30 31 32 33 34 34 36 35 36 34 32 31 29 27 26 25 25 24 24 29 32 29 26 26 27 26 25 28 31 29 27 28 29 30 30 32 34 32 31 29 32 34
41 43 43 41 40 39 37 35 33 30 28 28 29 31 32 32 32 33 35 36 35 32 30 29 25 24 24 22 24 28 28 30 28 27 25 26 28 28 27 27 26 26 27 28 33 31 31 32 31 29 28 28 29 30
41 44 42 40 39 37 34 33 31 26 26 28 29 30 31 32 31 31 33 33 34 32 30 29 28 24 24 25 30 32 32 31 28 25 25 26 28 28 27 27 27 27 28 29 30 30 29 30 31 29 29 29 28 30
43 40 39 37 37 34 32 31 31 26 26 27 29 30 30 29 30 32 33 34 34 34 32 30 28 29 29 28 27 29 28 27 26 27 25 25 27 27 27 27 27 27 28 29 30 30 30 31 31 31 31 30 32 31
37 39 37 37 34 31 29 28 28 28 28 27 28 29 28 29 29 29 30 32 32 31 28 30 34 32 30 28 27 28 27 27 26 28 28 26 27 28 27 27 28 28 30 31 34 33 32 34 33 32 34 33 33 34
37 38 35 33 30 30 28 28 28 27 28 28 28 28 29 28 27 27 29 28 27 27 28 29 27 28 28 27 27 28 28 28 28 28 29 28 28 28 29 30 30 33 33 35 34 35 35 34 34 34 33 32 31 33
37 34 31 31 26 27 26 28 26 24 24 26 26 25 26 27 26 26 25 24 26 27 27 27 27 28 27 27 27 27 27 27 27 28 30 30 30 32 33 32 33 33 34 33 33 34 35 32 33 33 34 33 32 30
33 30 27 24 25 23 27 25 26 25 26 24 23 18 19 25 23 23 22 25 26 27 26 26 27 25 25 26 25 24 25 27 28 30 31 30 30 30 30 32 33 34 33 31 33 34 34 33 32 33 32 32 30 30
27 24 24 21 24 21 21 22 21 22 19 20 18 21 22 22 22 21 21 24 28 30 29 25 24 24 25 27 27 27 27 27 28 28 32 32 33 33 32 31 32 33 34 32 32 32 32 32 32 32 31 30 28 30
20 22 19 21 21 19 21 19 19 19 19 18 19 20 21 23 19 18 19 27 31 30 33 34 33 26 23 23 24 25 27 29 29 29 29 30 30 32 32 31 31 32 34 34 32 31 29 29 28 28 28 28 26 26
19 20 24 22 21 19 19 19 19 20 18 18 21 19 21 17 17 20 23 24 25 27 27 27 27 25 25 25 27 28 30 30 30 28 30 30 30 31 31 29 29 31 32 32 32 31 29 28 28 28 27 27 26 26
22 23 20 23 22 22 19 19 19 19 21 20 21 18 18 18 18 23 22 21 22 24 25 25 25 24 24 26 26 28 28 28 28 30 30 31 30 30 29 30 29 27 30 31 31 31 30 30 27 26 26 26 25 25
24 23 24 19 20 21 22 22 22 22 21 22 22 21 22 20 18 17 17 17 19 20 19 18 19 21 22 22 23 24 24 23 22 22 22 24 29 25 24 25 25 26 27 27 26 28 28 25 25 24 24 25 24 23
23 25 23 20 19 21 26 26 28 27 24 26 25 23 21 16 14 16 15 15 15 15 16 16 16 17 16 16 17 19 21 20 19 18 17 18 18 19 20 20 20 21 22 23 24 24 22 22 21 21 20 19 18 18
23 24 23 22 22 27 26 21 22 22 24 26 26 26 24 14 13 13 12 14 13 14 13 12 13 16 15 15 14 14 15 17 15 15 16 17 17 16 16 15 16 17 19 20 20 21 19 19 18 16 14 12 11 11
23 22 22 20 23 22 20 22 22 22 24 23 23 19 17 16 10 10 11 12 11 9 8 10 10 12 14 15 15 15 12 13 12 11 10 11 12 12 12 12 13 14 15 16 16 15 14 13 13 12 11 8 7 6
17 18 17 18 19 20 19 16 15 16 17 17 16 16 12 11 4 8 10 11 10 9 9 10 11 12 14 13 12 12 11 12 10 10 8 7 6 5 7 9 9 11 11 12 12 11 9 8 7 6 5 3 2 1

GFSWCAN_sfc_dewp_015.txt.gz
Dewpoint
49 50 50 49 49 49 50 50 50 51 51 51 51 51 50 50 50 54 54 56 52 49 45 44 43 43 43 41 46 45 44 45 47 39 40 41 38 36 33 28 33 33 35 33 35 33 29 32 32 35 38 41 40 41
49 49 49 49 49 49 49 49 50 50 50 51 51 51 50 50 50 52 51 53 54 49 49 52 50 50 48 45 43 47 41 44 44 44 43 44 39 37 39 33 30 31 34 34 33 33 32 35 36 39 40 41 41 40
48 48 48 49 49 49 49 49 49 50 50 50 51 52 50 50 50 52 53 54 52 55 49 48 46 49 49 50 51 46 49 42 45 48 47 43 36 42 35 37 40 33 32 37 37 33 32 35 39 41 42 42 40 40
47 47 47 48 49 48 48 48 49 49 50 50 50 51 51 50 50 52 52 53 51 49 40 48 46 48 48 50 49 50 47 49 48 48 42 38 40 41 42 39 37 37 35 36 38 35 35 36 40 41 41 41 40 36
46 46 46 47 47 48 48 48 48 48 49 49 49 49 51 50 51 54 54 53 53 51 46 49 46 46 46 48 49 48 48 47 49 45 39 40 46 44 44 43 40 35 35 39 38 37 40 41 42 41 40 40 32 31
46 46 46 46 47 47 48 48 48 48 48 48 49 50 51 50 51 53 49 54 53 53 51 43 47 44 45 46 48 48 48 48 47 46 41 45 43 44 37 38 36 35 36 36 38 41 41 42 41 40 35 32 28 27
45 46 46 46 46 46 47 47 48 48 48 48 49 50 50 49 55 50 46 51 50 54 50 44 46 44 43 46 46 47 48 48 47 46 47 46 45 43 40 37 34 36 37 37 40 41 39 40 37 33 30 28 29 24
45 45 45 46 46 46 46 47 47 48 48 49 49 49 49 48 49 51 53 50 51 50 51 42 41 43 43 44 44 44 45 46 46 45 44 43 43 45 38 39 38 37 36 38 38 40 41 38 31 28 26 22 17 17
45 45 44 45 45 45 46 47 47 48 48 48 48 48 50 51 50 52 47 49 53 51 46 38 37 36 43 40 41 42 43 40 44 38 40 42 40 38 38 37 37 37 38 37 35 32 30 27 23 18 16 17 18 20
44 44 44 45 45 45 46 46 47 47 48 48 49 46 38 43 48 48 50 49 48 47 46 38 44 40 40 40 38 39 40 39 35 38 38 33 35 38 34 36 36 37 36 33 32 29 23 19 17 18 19 21 21 22
44 45 44 45 45 46 46 46 47 47 47 44 39 37 44 47 45 40 37 40 40 36 40 42 43 40 43 39 37 40 36 36 33 35 36 35 33 35 35 36 36 34 32 26 21 19 18 18 20 22 24 27 28 27
44 45 44 45 45 46 46 46 46 46 45 44 43 44 43 39 35 37 35 33 34 35 36 35 37 40 39 42 36 34 34 35 33 35 33 30 31 33 34 31 30 26 21 19 17 18 20 20 24 28 28 27 28 31
44 45 44 45 44 46 46 45 45 46 46 43 36 34 34 32 31 32 30 33 33 34 34 35 33 35 36 37 34 35 33 34 34 30 28 30 31 31 31 29 26 23 24 23 17 19 23 25 28 31 32 32 35 32
43 45 44 44 45 45 46 45 43 44 43 36 33 31 32 32 33 34 36 35 36 36 35 35 33 34 34 34 35 32 33 32 28 25 30 32 31 30 30 29 25 23 32 26 23 25 28 34 34 36 34 34 33 33
41 44 44 44 45 44 44 43 42 41 39 35 35 31 32 33 34 34 35 36 37 38 38 37 37 37 34 33 34 31 29 27 27 28 32 31 31 29 27 28 26 28 35 31 26 31 35 35 35 33 34 35 34 34
43 44 43 43 43 43 43 42 42 39 37 34 34 32 34 34 33 33 34 33 37 37 38 38 34 33 32 33 30 30 29 25 29 34 34 28 27 27 28 28 28 26 25 25 25 26 31 35 34 32 33 34 34 33
44 43 44 43 41 39 41 40 39 31 34 34 32 35 35 35 34 33 36 36 38 36 33 35 31 30 30 29 28 28 30 32 34 33 29 27 26 26 25 25 33 30 28 27 27 28 30 33 35 34 33 30 31 32
41 44 43 42 42 41 40 37 36 33 31 31 33 33 34 35 35 35 37 37 36 34 32 31 28 28 28 26 27 32 31 32 31 28 25 26 26 27 27 28 27 27 26 27 32 31 31 35 32 31 27 28 30 32
41 43 42 42 42 39 36 36 34 30 31 32 31 32 33 33 33 33 35 35 35 35 33 31 31 27 27 28 32 35 35 33 28 25 26 28 28 28 28 28 28 27 27 27 28 29 28 28 30 30 30 30 31 32
42 42 39 38 39 37 34 33 33 29 29 30 32 32 31 31 32 33 34 35 35 34 33 31 29 30 31 29 29 31 29 29 28 29 27 26 25 26 28 28 27 28 27 28 28 29 30 31 31 30 32 32 33 33
37 39 38 39 36 33 31 31 31 30 29 29 30 31 30 31 31 31 32 34 33 32 27 29 36 34 32 31 30 30 30 29 26 28 28 26 26 27 27 28 28 29 30 31 36 34 34 36 34 34 36 35 34 35
37 38 35 37 35 34 30 31 30 31 30 30 30 30 30 29 29 29 30 30 28 29 28 30 29 29 29 30 29 29 29 29 29 29 29 29 28 29 28 28 30 35 34 38 35 37 38 36 37 38 36 33 34 35
37 36 34 34 31 32 28 32 31 26 28 28 29 28 28 28 28 27 27 26 28 28 28 27 28 30 29 28 27 28 28 27 27 26 28 30 30 32 33 33 35 37 36 34 33 36 38 35 36 34 34 34 33 33
36 32 30 29 30 26 31 28 27 26 28 26 26 24 23 28 26 26 25 28 27 27 27 26 27 25 25 26 24 21 23 25 27 28 31 30 30 29 30 30 34 37 35 35 36 36 36 34 33 33 33 32 32 32
30 27 29 24 27 25 24 25 25 25 23 24 24 24 26 27 25 23 24 25 31 33 32 29 26 24 24 26 25 25 27 28 28 28 31 31 34 35 34 31 32 33 38 35 33 33 32 33 33 32 31 32 30 30
22 26 25 25 24 23 23 21 22 23 23 23 24 25 27 26 22 21 19 30 33 31 31 32 32 28 26 25 26 26 28 30 30 29 29 31 32 35 34 31 30 32 37 36 34 32 32 32 31 30 30 30 30 29
21 23 25 24 24 23 24 25 24 25 22 21 24 24 24 19 18 21 26 26 27 27 27 28 28 27 26 25 26 26 26 26 28 28 29 30 31 31 31 31 31 32 32 33 32 32 31 31 29 30 29 30 30 30
26 26 22 26 26 26 23 23 23 22 24 22 25 22 19 19 21 24 22 22 24 24 25 25 24 22 23 23 23 24 24 23 24 26 27 28 31 28 27 28 30 28 30 31 31 31 31 30 29 28 28 27 27 28
26 27 26 21 23 25 25 24 25 24 24 26 26 23 26 22 21 21 19 20 22 22 21 20 21 22 22 22 23 24 22 20 18 16 16 19 20 21 22 23 24 25 25 26 27 29 28 26 25 24 24 24 24 23
25 28 26 22 21 22 30 31 32 32 28 30 29 25 22 19 17 18 18 19 18 18 19 19 19 19 18 17 18 19 21 19 17 15 14 14 16 19 19 19 19 20 21 22 23 25 26 25 24 23 21 20 19 19
26 27 24 25 25 31 30 29 30 30 30 30 33 30 24 17 16 15 15 16 16 16 16 15 16 17 15 15 15 14 14 17 15 14 13 14 15 16 15 15 17 17 18 19 21 21 20 21 20 18 17 15 13 13
26 23 23 21 25 28 29 28 29 28 29 28 28 24 20 19 14 13 14 15 15 13 12 13 12 13 15 16 16 16 14 15 14 13 12 11 12 12 11 12 13 14 15 16 18 18 17 17 15 14 14 11 9 8
23 22 22 22 23 23 26 24 21 20 23 22 21 20 17 17 10 12 13 14 13 11 11 12 13 14 15 14 15 14 13 13 13 12 11 9 8 9 9 10 9 8 11 14 15 15 13 12 10 9 7 6 4 3

GFSWCAN_sfc_dewp_018.txt.gz
Dewpoint
50 50 50 49 49 49 50 51 51 51 52 52 51 51 50 50 50 54 56 57 56 51 46 46 44 43 42 44 47 45 44 47 50 38 40 42 38 40 36 31 35 33 34 32 35 32 29 32 31 35 39 42 42 41
49 49 49 49 49 49 49 50 50 51 51 52 53 51 50 50 50 51 52 54 57 53 50 52 51 50 47 47 45 48 42 45 47 44 44 45 36 37 39 36 29 33 38 37 35 35 37 37 36 40 43 42 42 40
48 48 49 49 49 49 49 49 49 50 51 51 52 53 51 50 50 52 54 55 54 57 50 48 47 50 50 51 53 48 53 43 46 49 46 42 34 42 35 39 39 31 30 41 39 34 32 36 38 42 41 41 40 40
47 47 48 49 49 49 48 49 49 49 50 50 51 52 52 50 51 52 53 55 54 50 38 50 47 48 49 51 50 52 50 52 52 49 41 37 36 42 42 39 41 38 35 35 37 35 36 37 41 41 40 41 40 39
46 46 47 47 48 49 48 48 48 49 49 50 49 48 51 52 51 54 55 54 54 53 44 50 47 46 46 48 48 48 51 50 50 44 37 39 47 47 47 44 42 37 35 38 38 39 41 41 42 42 43 41 39 30
46 46 46 46 46 47 48 48 48 48 48 48 49 50 51 51 50 55 50 54 53 55 50 42 48 45 45 47 48 48 48 49 48 46 41 45 44 46 37 38 37 33 34 35 37 41 43 42 41 41 40 36 29 28
45 46 46 46 46 47 47 48 47 48 48 47 48 50 50 50 54 50 47 50 50 55 49 42 46 44 44 46 47 47 49 49 47 48 47 46 47 43 37 37 35 34 34 37 40 41 39 39 37 34 31 29 29 22
45 45 45 45 46 46 46 47 47 48 48 48 49 49 49 48 48 51 52 51 51 52 52 42 42 44 44 46 45 45 46 46 47 45 44 43 44 43 37 39 36 35 36 38 39 39 41 41 39 31 27 21 17 18
45 44 45 45 45 46 46 46 47 48 48 48 49 48 52 52 51 52 48 50 55 52 47 37 37 36 43 42 42 43 44 39 45 39 39 43 39 36 38 37 37 37 37 38 38 36 38 33 26 21 17 19 20 20
45 44 45 45 45 46 46 46 47 47 48 48 49 46 38 43 48 48 50 50 49 50 48 38 43 40 41 40 38 39 39 39 35 38 39 35 36 39 36 37 38 38 38 37 35 32 27 23 19 19 20 21 22 23
44 44 45 45 45 46 46 46 47 47 47 45 40 37 43 46 47 43 41 42 42 38 42 42 43 40 43 38 37 40 35 36 34 36 37 35 34 36 38 37 37 38 36 34 31 27 21 19 20 23 27 31 30 30
45 44 45 45 45 45 46 46 46 46 45 44 43 44 43 39 36 37 34 35 36 37 37 35 38 42 41 44 38 36 34 35 31 37 34 31 33 35 36 36 35 34 27 22 20 19 20 20 23 30 31 31 30 32
44 44 45 45 45 46 45 45 45 44 45 42 37 35 36 32 32 32 30 32 33 33 34 34 33 36 36 38 34 33 32 32 37 33 29 31 34 34 34 33 29 25 26 27 18 19 23 25 29 32 32 32 32 32
44 44 45 45 45 45 45 43 43 44 42 36 33 32 32 32 33 33 33 33 34 34 34 34 33 34 33 33 32 32 33 35 30 28 28 35 32 31 31 33 27 26 27 28 29 29 29 33 34 33 33 32 30 32
41 44 44 45 44 44 43 42 42 41 40 35 35 31 32 33 34 33 33 34 35 37 35 34 34 35 33 32 33 32 30 28 30 31 33 36 35 34 32 30 29 31 32 31 31 30 31 32 33 33 33 34 34 32
43 44 43 44 44 43 43 43 43 41 38 36 34 33 34 33 32 32 32 33 37 36 37 37 33 32 32 33 30 30 29 28 33 37 38 33 32 32 32 31 31 30 29 30 29 28 29 32 31 32 33 34 32 33
43 43 44 42 41 41 41 41 39 34 34 34 32 37 35 34 33 33 35 36 39 35 32 34 31 29 32 30 29 32 31 34 37 36 35 33 31 31 30 29 31 31 31 30 30 30 30 31 33 33 32 32 32 34
40 44 43 43 43 42 40 39 38 35 32 32 33 34 34 35 34 35 36 38 37 35 35 32 32 29 28 27 28 34 34 36 36 35 32 32 31 31 30 33 31 32 31 30 31 31 31 32 32 32 32 32 32 32
42 43 43 42 41 39 37 37 36 31 31 32 32 33 34 34 35 35 35 36 36 35 35 33 31 29 30 32 35 37 38 37 33 30 30 31 30 31 31 31 31 31 30 30 30 30 30 31 31 31 32 32 32 34
40 41 41 40 40 38 34 34 35 30 30 30 32 31 32 31 32 33 34 35 35 36 32 31 31 35 35 35 35 37 36 36 34 32 31 31 33 31 31 32 32 32 31 31 31 31 32 32 32 32 33 32 34 35
39 39 39 41 37 34 32 32 31 31 30 30 30 32 28 31 31 32 33 35 33 33 28 31 38 36 36 36 36 36 34 34 31 33 31 29 32 34 32 31 32 32 32 33 35 34 34 34 34 35 35 34 34 33
37 38 35 36 35 34 31 33 31 31 31 30 30 31 28 28 28 29 31 31 28 29 30 32 32 32 33 33 32 33 34 32 33 32 30 30 30 31 31 33 33 35 35 35 33 34 35 35 36 37 35 34 34 33
37 36 34 33 32 32 29 33 32 28 27 27 28 27 26 27 27 28 26 27 28 29 30 29 30 33 32 33 30 31 32 31 29 30 32 32 32 35 35 34 34 34 33 33 34 34 34 34 35 34 33 33 33 32
36 33 31 30 32 27 32 27 27 26 28 27 26 24 24 26 26 26 24 27 27 29 27 27 28 27 30 29 26 28 30 30 29 30 32 31 31 31 31 31 32 33 32 33 35 35 34 33 33 33 32 32 32 31
30 28 30 25 30 26 24 25 25 25 23 25 24 24 25 26 24 23 23 28 31 30 31 33 31 27 26 30 30 30 31 31 30 30 31 31 32 32 32 32 32 33 34 33 33 33 33 33 32 32 32 31 29 29
25 27 28 27 26 25 24 22 23 23 24 23 23 26 27 25 21 20 21 29 28 27 28 28 30 28 27 27 26 26 26 27 26 24 25 26 26 26 26 27 27 29 30 31 32 32 31 32 32 31 30 29 30 29
22 23 25 25 25 25 26 26 25 25 22 21 24 23 23 19 18 24 25 24 25 25 25 26 25 24 23 23 23 23 25 25 23 21 23 25 28 25 24 23 22 24 27 28 29 29 29 29 30 29 29 29 29 29
25 26 22 27 26 26 23 23 23 22 23 22 25 21 20 19 22 23 22 22 23 23 24 24 23 21 22 21 23 24 22 22 22 21 22 27 26 23 21 22 22 21 23 23 25 26 27 27 26 26 26 26 26 26
25 27 26 22 24 26 25 24 24 23 23 26 25 23 26 21 22 21 20 21 23 22 20 20 21 23 22 21 24 23 20 18 15 12 11 14 15 16 18 19 19 19 19 20 20 23 24 26 25 24 24 25 24 25
25 28 25 23 23 23 29 32 31 31 30 31 31 24 21 18 18 20 20 19 18 18 20 20 20 18 17 17 17 17 22 18 16 13 10 10 11 15 16 15 14 16 17 17 18 19 22 22 23 25 22 21 18 19
25 26 25 25 24 29 29 29 29 29 30 29 31 28 21 17 17 17 17 19 18 18 16 15 16 17 15 14 14 12 12 15 16 14 13 14 13 13 12 12 12 14 14 14 15 17 19 18 20 20 17 15 14 12
25 23 23 21 25 28 28 27 26 26 29 25 26 24 22 21 16 15 15 17 16 13 12 13 12 12 14 15 17 17 15 15 15 14 12 13 11 11 10 10 11 11 9 9 12 16 16 15 16 13 13 10 8 6
23 24 22 22 22 22 26 25 20 20 23 21 23 21 18 17 13 14 16 16 14 12 12 12 12 14 16 14 11 16 11 12 11 14 13 12 9 9 8 9 9 8 5 6 9 13 11 10 8 8 6 5 1 -1

GFSWCAN_sfc_dewp_021.txt.gz
Dewpoint
50 50 49 49 49 49 50 51 51 51 52 52 51 50 50 50 50 55 53 55 54 46 47 50 50 45 45 46 38 43 39 39 36 35 33 32 29 31 30 33 31 27 27 24 28 26 22 35 33 28 33 41 41 39
49 49 49 49 49 49 50 50 50 51 51 52 51 50 50 50 50 52 52 54 56 52 50 51 50 50 50 50 46 44 38 44 44 38 34 35 33 35 32 26 35 29 33 30 30 29 34 36 35 39 41 41 39 39
49 49 48 48 49 49 49 49 50 50 51 51 51 51 50 50 50 52 54 55 55 48 48 48 47 50 50 51 51 44 45 46 46 48 40 39 30 36 28 31 29 33 37 33 33 36 35 39 42 42 41 40 40 41
48 48 48 48 48 49 48 49 49 50 50 51 51 50 50 50 50 52 54 55 52 47 36 45 47 48 48 50 50 50 49 50 49 44 38 36 31 41 33 33 32 34 36 34 33 36 36 41 41 41 41 41 41 41
46 47 47 48 48 49 48 48 48 49 50 48 48 48 50 50 50 55 54 54 53 50 38 39 47 47 47 48 48 49 50 48 44 38 35 34 35 36 33 34 33 39 34 33 31 38 38 41 41 43 42 41 39 37
46 46 46 47 47 48 49 48 48 48 47 47 48 50 50 50 50 55 50 54 51 54 44 37 46 45 46 47 48 48 47 47 47 41 35 41 45 38 34 32 38 38 38 36 38 43 43 42 41 41 41 40 35 28
46 46 46 46 46 47 48 48 48 48 46 48 49 50 50 49 51 48 46 49 49 52 40 37 39 43 43 46 46 48 48 46 45 41 38 36 39 42 34 32 38 39 36 41 42 41 40 39 39 41 36 31 31 23
45 45 45 46 46 46 46 47 48 48 48 47 49 50 49 47 48 50 50 49 50 49 44 37 37 36 44 37 38 44 38 43 44 41 39 36 38 36 34 39 39 38 38 40 41 40 40 40 39 32 29 22 23 22
45 45 45 46 46 46 46 46 47 48 48 48 49 49 50 50 45 49 48 49 53 48 38 34 33 31 42 39 38 37 42 34 41 35 36 39 35 35 38 39 38 37 38 39 39 40 41 40 38 23 23 23 22 23
44 45 45 45 46 46 46 46 47 48 48 48 49 47 40 43 47 48 48 43 40 40 40 36 38 36 40 36 35 35 34 34 33 34 38 33 34 38 39 38 38 39 39 39 37 37 34 24 24 23 24 25 25 26
45 45 45 45 45 46 46 47 47 48 47 45 39 36 43 46 46 40 37 37 38 35 39 38 37 36 39 34 34 35 33 33 31 30 33 32 32 35 37 37 38 38 37 34 27 26 25 24 24 26 28 27 26 27
45 45 45 45 45 45 46 46 46 45 43 43 42 44 42 39 36 36 34 34 34 34 35 35 36 39 37 42 34 34 33 33 29 35 32 29 31 36 37 36 35 26 24 24 24 24 25 27 29 28 27 27 27 28
44 45 45 45 45 44 45 45 44 44 44 41 37 35 36 32 31 31 30 31 32 33 34 34 33 34 35 37 33 33 32 31 34 31 27 28 34 36 36 28 24 24 25 25 24 28 28 28 29 27 27 28 26 29
44 45 45 45 45 44 43 43 43 43 41 35 33 30 32 30 31 30 31 32 33 33 33 33 32 33 32 33 32 31 31 32 29 24 21 33 34 33 33 29 24 23 23 22 23 25 24 27 28 27 28 26 24 28
44 44 44 44 44 43 43 43 43 42 37 33 33 29 30 31 32 32 32 33 33 35 34 33 33 34 32 31 31 30 28 26 28 28 31 34 34 31 30 27 25 25 25 27 27 26 25 26 27 29 29 29 29 27
43 44 43 43 43 43 43 42 41 40 33 33 32 30 32 32 32 32 32 32 35 33 34 34 31 31 29 30 28 28 27 26 30 32 33 31 30 30 30 29 28 28 26 26 27 27 27 25 24 28 28 29 26 28
42 42 43 41 41 41 42 40 38 32 30 31 30 34 33 32 31 32 33 33 37 33 32 32 28 27 30 28 27 30 29 30 32 32 32 30 29 29 27 26 26 27 28 28 28 28 28 28 26 28 28 29 30 30
42 43 42 42 43 41 39 39 32 31 28 31 32 31 32 33 32 33 33 34 34 32 31 30 31 27 26 25 27 31 30 31 31 30 29 28 29 28 29 28 30 28 28 28 28 27 28 26 28 29 30 31 30 29
42 43 43 43 42 38 34 33 34 28 31 29 31 31 31 32 33 33 33 34 34 33 32 29 27 26 26 28 30 31 31 30 29 28 28 27 27 27 28 29 28 28 28 28 28 29 29 29 29 30 29 29 29 29
41 41 41 41 40 35 31 30 34 29 28 30 30 31 30 30 31 32 33 33 33 31 26 25 25 28 28 30 30 31 31 31 30 28 29 29 29 28 28 29 29 29 29 29 29 26 28 28 29 29 29 27 23 26
39 39 39 40 36 36 30 31 31 29 29 30 31 30 28 30 29 29 30 32 31 25 25 27 27 30 31 30 30 30 30 29 28 28 27 27 29 28 28 29 29 28 27 27 25 27 25 28 30 30 31 32 33 32
37 38 34 36 33 33 28 30 31 29 30 30 30 30 27 26 26 28 30 25 25 26 28 28 28 29 30 30 30 30 29 27 28 28 26 26 27 27 27 28 26 24 25 26 29 29 28 30 30 28 31 32 33 32
36 35 32 32 30 29 25 30 27 28 23 27 29 26 25 25 27 27 25 25 26 29 29 30 30 29 28 28 26 27 28 27 27 28 29 28 28 28 28 28 26 26 28 28 28 29 28 30 29 26 29 30 30 32
36 32 31 30 31 26 29 26 26 24 24 25 24 21 23 25 23 20 17 21 27 29 30 30 29 27 28 27 28 28 28 28 27 27 28 27 27 27 27 27 27 27 28 29 29 29 29 29 26 28 30 30 31 27
26 26 28 25 29 26 21 24 23 21 14 18 15 16 21 20 14 13 15 26 26 27 28 27 28 28 27 25 26 26 25 24 23 22 23 23 21 21 22 23 24 25 24 23 24 24 25 27 29 30 29 29 28 25
22 25 25 26 23 22 22 19 23 20 17 16 16 22 19 15 12 11 23 25 25 25 26 25 22 24 23 24 22 22 23 23 20 19 20 22 23 20 17 16 16 16 19 20 20 19 19 21 23 25 28 28 27 27
23 24 25 27 28 28 27 27 27 24 20 17 18 16 14 9 9 21 24 24 24 25 27 25 23 23 23 22 22 23 21 19 17 18 20 24 21 18 16 14 14 16 17 18 17 17 18 19 21 21 22 24 26 25
25 27 22 26 26 26 21 21 19 17 18 23 19 10 9 9 17 22 22 23 24 26 26 23 21 22 22 23 23 18 12 12 12 12 13 19 16 12 12 13 14 14 12 14 14 15 16 17 19 21 21 22 23 21
26 28 23 16 18 20 19 18 18 24 27 22 15 14 19 19 19 21 21 22 23 21 18 19 15 13 13 14 16 17 9 5 4 0 -3 -2 4 4 10 10 9 8 9 11 12 14 15 16 19 19 20 21 19 14
25 28 20 16 14 18 26 27 28 28 25 27 25 20 18 17 17 18 18 15 14 13 16 16 15 6 3 3 3 5 13 8 1 1 -2 -3 5 8 8 7 7 6 7 9 7 8 11 15 17 19 16 14 15 11
26 25 23 21 24 26 28 28 27 27 27 27 28 23 14 11 11 12 13 16 15 6 6 4 3 4 1 1 5 4 -0 -0 3 8 4 1 5 -2 0 4 4 5 7 4 3 4 6 12 14 13 10 8 8 5
25 24 21 18 23 26 27 24 25 24 20 23 22 21 16 15 5 7 5 9 6 2 2 1 -0 3 1 6 1 0 11 5 1 1 3 5 2 3 2 0 3 4 4 -3 1 3 5 9 8 7 6 3 2 0
20 17 17 13 12 14 21 13 12 11 12 10 16 15 9 5 1 5 10 11 3 -0 -1 -1 -2 -1 8 1 -3 3 -1 -3 0 10 7 9 5 1 -2 2 5 4 -0 -2 0 5 5 5 2 1 -1 -2 -4 -5

GFSWCAN_sfc_dewp_024.txt.gz
Dewpoint
49 49 49 49 49 49 50 50 51 51 51 50 50 49 49 50 50 51 51 54 49 44 47 49 48 44 45 42 37 41 37 37 37 29 26 33 25 29 29 32 30 28 27 24 23 17 19 33 34 28 32 39 40 39
49 49 49 48 49 49 50 50 50 50 51 50 50 50 49 50 50 53 47 54 54 48 47 49 49 50 49 46 45 42 35 40 39 35 34 35 27 34 28 27 34 25 28 28 29 28 31 35 34 36 41 40 39 38
49 48 48 48 48 49 49 49 49 50 51 51 49 49 50 50 50 53 52 53 51 44 45 47 46 49 49 49 49 41 42 46 45 42 37 33 26 33 30 31 31 33 37 33 32 33 35 36 42 42 41 40 40 41
48 48 48 48 48 48 49 49 49 49 50 49 47 48 49 50 50 52 51 52 48 43 35 43 48 46 48 49 49 48 48 49 45 41 36 34 29 36 30 30 30 31 36 34 32 35 39 41 40 40 40 40 40 41
48 48 48 48 48 48 48 48 49 48 48 48 49 49 50 49 50 53 52 51 51 44 38 38 46 46 47 48 49 49 48 46 41 37 34 33 31 34 33 31 32 38 33 32 31 34 35 39 41 41 40 40 40 38
47 47 48 48 48 48 48 48 48 46 48 48 49 50 49 49 51 52 47 51 49 50 40 33 44 43 44 47 48 47 47 46 43 38 35 37 43 35 33 35 38 40 40 38 37 42 42 41 42 42 42 40 37 27
46 46 46 47 48 48 48 47 46 47 47 48 50 49 48 48 49 47 42 48 48 49 39 36 35 42 43 46 44 45 45 44 44 38 36 38 36 40 33 33 37 38 38 42 42 41 39 40 39 42 40 34 27 23
46 46 46 46 46 47 48 48 48 47 47 49 50 49 48 49 49 49 49 48 49 45 40 34 32 34 42 36 36 41 37 40 41 41 39 36 36 35 34 39 40 39 39 42 41 40 39 40 40 31 25 23 23 22
45 45 45 45 46 46 46 47 48 48 48 49 49 49 48 47 45 48 47 47 50 45 36 33 31 30 40 39 37 35 38 34 39 35 35 36 34 33 36 38 39 40 39 40 40 40 40 38 26 23 23 24 23 25
45 45 45 45 45 46 46 47 48 48 49 48 47 44 40 42 46 47 45 41 39 40 38 33 37 33 39 34 34 34 34 33 33 35 38 33 34 37 38 39 38 39 39 40 40 39 33 26 25 25 25 26 25 25
45 45 44 46 46 46 47 47 48 48 47 45 40 37 42 45 43 39 37 36 37 35 38 36 36 36 37 34 34 33 33 33 30 28 30 29 30 34 37 38 37 39 34 32 33 29 27 27 27 29 28 27 26 25
45 45 45 45 45 45 45 45 45 44 43 43 43 44 41 38 36 36 34 34 34 34 34 34 35 39 36 39 34 34 32 32 28 33 32 29 31 36 31 26 25 25 25 25 27 28 29 28 29 28 27 27 26 27
45 45 45 44 44 44 45 45 45 45 43 42 38 35 37 33 32 33 31 31 32 33 34 34 34 34 35 37 33 33 31 30 33 32 29 30 36 30 24 23 23 24 27 27 26 28 29 28 27 25 25 26 25 27
44 44 45 45 44 44 43 43 44 43 40 35 34 30 32 30 30 30 31 32 33 33 33 33 32 33 32 33 32 31 31 31 29 24 21 33 37 35 27 26 22 22 24 23 24 25 25 26 27 25 24 24 22 26
44 44 43 43 43 43 43 42 43 41 37 33 30 28 28 30 31 32 32 33 33 34 33 33 32 33 31 30 31 29 27 25 27 26 31 33 33 30 28 26 25 26 27 27 26 25 24 24 25 27 27 28 29 25
42 43 42 43 42 43 42 41 39 36 31 32 31 29 31 30 31 32 32 32 34 33 33 33 31 31 28 29 27 27 26 24 28 31 33 31 29 29 29 29 29 28 26 26 26 26 26 24 22 26 27 27 25 24
43 41 42 41 43 42 42 38 34 32 30 30 30 33 32 32 31 33 33 33 36 34 31 31 25 24 29 25 26 30 27 30 32 32 32 30 30 29 27 27 28 28 28 28 28 28 27 28 25 26 26 28 28 29
40 41 43 43 43 40 37 36 31 29 29 31 30 31 31 32 32 32 33 33 32 31 31 27 29 27 26 24 26 31 31 31 31 31 30 29 29 28 29 27 29 28 27 27 27 27 27 25 27 28 28 29 29 28
41 41 43 42 40 34 33 31 32 26 30 30 31 31 31 31 31 32 33 33 32 29 28 26 24 24 25 27 28 31 30 29 28 27 28 27 27 28 28 29 29 27 27 27 28 28 28 29 29 29 29 28 27 26
41 41 41 41 40 30 28 27 31 27 27 30 31 30 29 29 30 32 33 33 32 26 21 20 21 24 25 26 27 27 27 28 28 27 28 28 29 28 27 28 28 28 29 29 28 25 28 28 29 29 28 26 27 31
38 38 39 38 33 31 27 30 30 29 28 29 30 29 27 29 29 29 30 31 26 20 24 25 24 27 28 28 27 27 28 28 27 25 25 25 26 26 27 28 29 27 26 25 23 26 24 25 29 29 26 31 31 30
37 38 34 36 33 30 25 29 27 28 30 29 29 29 27 25 26 27 29 25 23 25 27 26 27 27 29 29 29 29 28 27 28 27 26 25 27 27 27 27 26 24 24 23 27 27 28 28 29 29 31 31 31 30
37 36 32 32 22 27 24 30 25 26 22 26 28 25 24 25 27 28 24 24 25 30 27 28 28 29 28 28 27 26 27 28 26 25 26 25 25 22 22 23 23 22 22 22 25 24 23 23 24 26 28 29 30 29
36 31 26 21 26 21 27 26 26 27 26 25 24 21 22 24 24 21 13 25 29 27 26 27 27 27 27 26 23 23 23 23 23 23 22 21 20 21 22 22 24 20 19 20 19 18 18 19 20 21 23 24 25 26
27 18 18 17 25 22 18 20 24 22 15 20 16 15 19 17 10 8 10 25 26 25 23 23 25 25 25 24 23 22 22 20 19 19 20 21 16 15 16 17 16 17 15 14 14 13 13 14 15 16 18 22 22 24
16 16 15 16 15 19 18 15 16 18 17 16 16 21 10 9 10 9 21 21 23 24 23 24 20 21 21 22 20 19 18 19 18 16 19 19 16 11 9 8 9 10 12 11 12 10 9 10 11 13 14 16 20 22
15 16 24 27 26 27 21 22 26 23 21 20 21 18 13 8 4 20 23 22 23 25 24 24 23 22 20 21 20 16 15 14 12 13 17 15 13 11 9 7 6 9 10 8 8 8 8 8 9 10 12 15 18 21
22 21 17 24 26 27 23 22 22 21 19 23 18 13 12 9 15 18 21 23 24 23 21 21 20 19 19 18 15 9 7 6 7 7 12 11 9 5 4 1 3 10 4 4 6 7 6 6 8 9 13 14 16 15
25 27 24 21 19 19 18 18 18 24 27 20 12 10 17 16 16 19 19 20 20 19 15 13 13 12 10 9 6 5 -1 -0 0 -6 -11 -11 -7 -3 1 -4 -4 2 2 3 6 7 6 7 9 10 16 13 10 9
22 24 16 12 14 19 24 26 27 27 25 24 20 18 16 14 15 16 14 14 13 11 12 11 4 1 -7 -5 -6 0 2 -6 -7 -6 -9 -9 -2 3 -4 -3 0 0 1 2 2 1 4 2 4 11 10 10 7 5
25 25 22 18 22 24 26 26 27 26 26 26 24 17 11 9 10 9 10 9 3 3 3 -2 -2 -8 -3 -3 -5 -10 -6 -1 -3 -1 -5 -2 -2 -7 -8 -5 -4 -2 -1 1 -2 -3 -1 -0 4 4 2 2 1 0
23 22 21 16 22 23 25 23 18 16 16 18 19 14 10 2 -4 2 4 3 -1 -3 -9 -12 -9 -5 -2 -2 -4 -8 -5 -7 -9 -7 -2 -1 -4 -7 -8 -5 -6 -6 -2 -8 -10 -7 -0 -1 -2 -3 -4 -4 -4 -5
13 4 7 -1 5 10 13 6 3 3 7 7 8 4 1 1 -2 2 5 -3 -3 -7 -9 -9 -10 -10 -6 -7 -9 -11 -8 -11 -10 1 1 4 -3 -5 -9 -12 -11 -15 -16 -15 -13 -9 -7 -10 -10 -7 -8 -8 -8 -8

GFSWCAN_sfc_dewp_027.txt.gz
Dewpoint
49 49 49 48 48 49 50 50 50 50 50 50 49 49 49 50 51 51 51 52 47 43 46 48 47 43 43 41 36 39 37 36 32 27 25 27 22 29 28 30 30 29 28 27 26 18 19 31 32 28 31 35 39 39
48 48 48 48 49 49 50 50 50 49 49 50 49 50 49 50 51 50 50 54 52 47 46 48 48 48 48 42 43 40 37 37 37 32 29 31 26 33 27 24 32 26 27 27 28 28 30 32 34 35 38 39 39 39
48 48 48 48 49 49 49 49 49 50 49 47 47 48 50 50 51 52 52 51 47 43 45 45 45 48 48 49 48 39 40 43 41 39 37 32 24 31 29 30 29 32 34 30 30 30 33 33 37 40 40 39 39 40
48 48 48 48 48 48 48 49 49 48 47 47 48 49 49 50 51 51 51 50 45 41 35 42 47 46 48 49 50 46 46 45 42 39 34 33 25 34 28 30 31 32 35 32 31 33 37 39 40 40 40 40 40 41
48 47 48 48 48 48 48 48 47 47 48 48 49 49 49 50 51 51 50 49 49 41 37 37 45 46 45 49 49 48 46 44 40 36 33 32 31 33 34 30 32 36 33 30 30 34 35 34 40 40 39 39 40 37
47 47 47 48 48 48 48 46 46 47 48 49 49 48 48 50 51 47 43 49 50 47 39 34 42 43 44 47 48 48 47 44 41 38 34 36 40 34 33 34 37 38 39 35 34 36 37 39 40 40 40 41 35 25
47 47 47 47 47 47 47 46 46 47 48 49 49 48 48 48 48 44 37 46 48 46 38 36 35 41 43 44 42 44 43 43 42 39 35 36 35 39 34 33 35 38 38 39 41 41 38 39 39 42 40 31 28 23
46 46 46 47 48 47 47 46 47 47 48 49 49 48 48 48 49 47 48 47 47 42 38 32 31 34 41 37 37 41 37 40 39 38 38 37 35 34 33 37 39 39 39 41 41 40 40 41 41 35 24 22 23 24
45 45 45 46 46 47 47 47 47 47 48 50 48 48 47 46 46 47 47 47 47 43 35 32 29 29 39 38 36 35 38 34 39 34 35 35 33 34 37 37 38 39 39 39 40 39 39 37 27 23 24 25 24 25
45 45 45 45 45 46 47 47 47 48 48 46 46 42 36 43 46 46 43 39 37 40 37 32 36 33 39 34 34 33 34 33 33 32 38 33 34 36 36 37 39 39 39 40 38 37 27 26 28 29 29 26 26 26
45 45 45 45 46 46 47 47 48 47 47 43 38 37 43 45 42 38 36 34 37 36 38 36 35 36 38 34 33 32 33 32 30 28 33 30 30 32 31 28 32 32 34 31 32 31 32 34 34 31 28 28 27 26
44 44 44 44 45 45 46 46 45 44 44 42 41 42 39 36 34 34 32 34 34 33 34 35 35 38 36 36 34 34 30 31 27 33 32 27 30 27 25 26 29 32 34 34 35 35 35 33 30 29 29 28 27 27
45 45 45 44 44 45 45 45 45 45 44 42 38 36 37 34 33 33 32 31 32 32 34 33 33 33 35 36 33 33 32 30 32 31 30 31 28 30 31 32 33 35 35 35 35 34 33 30 28 26 25 25 26 27
43 43 43 43 43 43 43 44 44 43 41 36 34 31 32 29 30 30 31 32 32 32 33 33 32 33 32 33 32 31 31 31 29 25 21 32 35 36 28 27 22 24 26 25 25 25 25 27 27 26 25 25 23 26
43 43 43 42 43 43 43 42 43 41 37 32 32 27 28 30 31 32 32 32 32 34 33 33 32 33 31 31 31 29 27 25 25 21 29 32 32 30 27 28 29 27 26 26 25 25 24 24 25 25 26 26 27 23
43 42 41 43 43 43 42 40 38 36 33 32 31 29 31 31 31 32 32 32 34 33 33 33 31 30 28 29 23 21 23 19 23 30 32 31 30 31 33 33 28 27 27 27 27 27 27 25 24 27 27 26 23 22
42 40 43 42 42 41 41 36 32 31 28 30 30 33 31 31 31 32 33 33 35 33 31 30 23 24 29 26 26 29 26 29 32 32 32 31 30 29 29 29 29 28 28 27 27 27 27 27 25 25 25 27 27 28
40 40 43 43 41 38 35 34 29 28 29 31 30 30 31 32 32 32 32 32 30 32 30 25 28 22 21 20 25 30 32 32 32 32 31 30 30 28 28 28 29 28 27 27 27 27 27 25 27 27 28 28 28 27
39 40 41 42 40 33 30 30 31 28 30 30 30 30 31 31 31 32 32 32 28 27 27 23 20 21 23 26 25 29 29 27 28 28 27 28 28 28 28 28 28 27 27 28 28 28 28 28 28 28 28 28 27 27
40 40 40 40 39 29 27 27 30 27 26 30 30 29 29 29 30 32 32 32 30 24 22 20 22 23 24 25 26 25 26 26 26 24 25 26 27 27 28 28 27 27 27 27 27 24 27 27 28 28 27 27 27 28
36 37 39 37 31 30 28 30 29 29 30 29 30 29 27 29 29 29 30 30 22 19 23 25 20 25 27 27 26 26 27 27 26 24 23 24 26 27 26 26 26 25 24 23 24 24 24 24 24 24 25 25 27 27
36 37 34 35 31 26 25 29 29 28 29 29 28 28 26 25 26 27 29 27 23 23 26 29 29 30 30 28 27 28 28 27 27 26 25 24 23 22 22 23 22 21 21 20 21 21 21 20 20 20 21 22 23 25
37 35 32 31 23 23 22 31 26 27 24 26 28 25 24 25 27 28 24 25 27 29 27 28 29 29 27 25 24 23 24 24 22 22 22 23 23 19 19 21 19 14 14 16 17 16 14 13 14 14 16 16 18 21
34 30 27 25 23 16 20 26 25 23 26 25 24 21 22 24 25 22 15 25 28 27 25 26 27 25 25 23 21 20 20 21 21 20 20 20 19 18 18 18 16 14 12 12 12 10 10 9 9 11 11 12 12 14
26 18 24 15 22 12 9 10 16 17 13 22 21 21 21 19 15 18 11 22 25 24 24 24 24 25 23 21 21 19 18 19 19 18 18 15 11 10 12 13 13 12 9 5 4 5 5 5 5 6 7 8 8 11
15 17 17 10 14 14 12 9 12 14 15 18 21 22 16 16 17 10 20 22 23 23 21 23 23 22 20 21 19 15 13 16 17 15 14 12 10 4 1 1 3 3 8 1 2 1 2 3 2 2 3 5 7 9
10 8 18 26 25 24 20 17 23 23 20 20 17 17 18 15 14 18 21 21 23 23 24 23 23 21 20 16 13 12 11 10 10 14 13 11 10 9 2 -4 -1 3 6 3 -2 -1 0 0 -0 0 2 4 6 10
19 21 20 20 25 27 22 21 22 22 22 25 23 19 18 14 14 17 20 22 21 21 19 18 18 18 15 13 11 7 6 5 7 9 9 7 5 -1 -1 -4 -3 7 -2 -5 -6 -1 -1 0 0 1 3 5 5 6
23 26 25 20 22 20 21 21 20 25 27 23 14 16 15 14 13 15 16 17 19 16 12 11 10 10 9 8 4 2 -3 -4 -5 -9 -14 -15 -14 -6 -0 -10 -11 -8 -9 -8 -0 4 4 4 4 4 7 9 4 1
23 25 20 14 16 20 23 25 24 26 26 20 18 16 13 11 12 14 13 13 10 8 6 3 -2 -0 -12 -9 -11 -4 -2 -9 -10 -9 -13 -14 -6 -2 -13 -11 -10 -10 -11 -13 -8 -5 -2 -6 -4 -6 -5 -4 -2 -2
24 24 21 20 17 22 24 26 26 26 26 24 19 14 9 6 7 9 8 4 5 -1 -4 -8 -6 -15 -8 -11 -13 -14 -11 -12 -14 -9 -9 -10 -11 -14 -13 -11 -11 -14 -13 -13 -14 -16 -15 -13 -15 -16 -15 -14 -12 -11
23 21 20 17 20 22 14 14 14 7 20 20 15 11 3 -3 -8 -1 3 -3 -6 -7 -13 -17 -12 -9 -8 -9 -13 -14 -8 -13 -14 -14 -13 -10 -11 -13 -15 -14 -18 -20 -21 -21 -20 -20 -19 -20 -21 -20 -21 -20 -17 -16
12 6 7 -3 5 8 9 -1 -2 2 12 14 7 0 -3 -1 -4 0 3 -5 -6 -9 -12 -13 -15 -15 -13 -12 -12 -14 -13 -16 -15 -5 -5 -4 -9 -9 -16 -20 -23 -24 -23 -24 -23 -24 -21 -21 -23 -23 -23 -22 -20 -18

GFSWCAN_sfc_dewp_030.txt.gz
Dewpoint
49 49 48 47 48 49 50 50 50 50 49 49 49 49 50 51 51 54 52 51 46 43 45 47 46 42 41 39 36 39 36 36 31 27 25 25 21 28 28 28 31 29 29 28 23 15 18 28 32 27 30 32 37 37
48 48 48 48 48 49 49 49 50 50 48 48 48 49 50 51 51 52 52 52 50 47 46 48 47 47 46 41 42 39 37 37 36 30 25 29 28 31 26 23 32 26 27 26 26 27 29 30 34 34 34 34 37 37
48 48 48 49 49 49 49 49 49 48 47 49 49 49 50 51 50 52 51 48 47 43 44 45 45 48 47 48 46 39 38 41 38 37 32 31 23 29 25 28 28 32 31 28 28 28 31 32 33 38 37 38 39 39
48 48 48 48 48 48 48 48 46 47 48 49 49 49 50 50 50 51 49 48 43 41 35 40 47 45 47 49 49 45 44 42 40 37 33 30 25 32 26 28 29 32 33 30 30 32 33 35 38 36 39 39 39 40
48 48 48 48 48 48 47 47 47 47 48 49 49 50 50 50 50 50 49 48 47 38 37 37 44 44 46 49 47 46 44 42 39 35 33 31 28 31 33 30 31 34 32 29 28 30 32 32 37 40 39 39 40 38
47 47 48 48 48 47 47 47 47 48 48 47 47 49 49 48 49 43 41 48 49 45 40 34 41 42 44 45 46 46 46 42 40 38 34 35 38 34 33 33 35 36 37 33 32 35 35 37 39 39 39 39 36 30
47 47 48 47 47 47 47 47 47 48 48 48 48 48 48 48 48 40 36 45 47 44 38 36 35 39 41 43 41 42 43 41 41 39 34 34 36 37 32 31 34 36 37 38 39 39 37 38 38 41 39 29 26 24
47 47 47 47 47 47 47 47 47 48 49 48 48 48 48 48 48 46 47 47 47 40 37 32 31 33 41 37 37 41 37 40 40 39 38 35 36 34 33 36 38 39 40 39 40 39 38 39 39 27 25 23 24 27
46 47 47 47 47 47 47 47 47 48 48 48 47 47 47 46 45 46 46 46 45 41 34 30 29 29 39 38 36 37 38 35 38 34 36 35 33 33 35 35 36 37 38 38 39 39 34 30 24 24 28 31 31 30
45 45 46 46 47 47 47 47 47 48 47 46 46 43 38 43 46 45 43 38 37 37 39 33 34 33 39 34 34 33 34 33 33 33 38 33 33 34 28 28 31 35 38 39 36 29 27 30 33 34 34 34 31 27
45 46 46 46 47 47 47 47 46 47 46 44 39 38 43 44 42 36 33 32 36 32 36 36 35 35 38 34 34 31 33 32 30 27 33 30 30 31 28 33 34 35 35 35 35 35 35 36 34 32 31 31 31 29
45 45 45 45 46 46 46 46 45 43 41 42 41 41 38 36 35 32 31 34 34 31 34 34 35 38 36 35 34 34 30 31 26 32 32 27 27 26 32 34 36 36 36 35 35 34 35 34 34 34 33 30 28 27
43 44 44 44 45 45 45 45 45 44 43 41 36 33 34 32 33 32 31 32 32 32 33 33 33 33 35 36 33 33 31 30 32 30 29 31 30 35 36 35 34 36 36 36 35 35 35 34 31 27 25 25 26 26
43 43 43 44 43 43 45 45 44 43 41 36 34 33 32 30 30 30 32 32 32 32 33 33 32 33 32 33 32 31 31 31 29 25 21 31 34 35 26 27 25 26 26 26 25 25 26 28 27 26 25 25 23 26
42 43 42 42 43 43 42 43 43 41 37 32 32 27 27 30 31 32 32 32 32 34 33 33 33 34 32 31 30 29 26 21 22 20 29 31 32 29 31 33 29 25 24 25 25 25 23 23 24 25 26 26 27 22
42 41 42 43 43 42 41 39 38 37 33 32 31 29 31 31 31 32 32 32 34 33 33 33 31 28 26 29 25 23 21 16 22 29 32 32 32 32 33 34 29 29 28 27 27 27 26 23 22 26 26 25 21 21
42 40 42 42 42 40 40 35 32 30 30 30 30 32 31 32 31 32 32 32 35 33 31 28 23 22 26 23 22 26 20 27 31 31 31 31 30 31 33 30 29 28 27 27 27 27 27 27 24 25 26 28 28 27
38 39 41 42 40 36 34 32 29 29 30 31 30 30 31 32 32 32 32 32 32 31 28 24 29 21 18 17 20 29 30 29 29 30 31 30 29 29 28 28 29 28 27 28 27 28 27 26 27 27 27 27 26 25
39 39 41 40 38 32 29 30 30 28 29 30 30 30 30 30 31 32 32 32 27 27 26 22 18 19 20 23 20 30 31 25 29 29 28 27 27 28 28 28 28 28 28 27 27 26 26 27 24 23 24 24 23 24
39 39 39 39 36 29 27 26 29 28 28 30 30 29 29 29 30 31 32 31 26 23 22 20 20 22 23 25 26 26 27 26 26 24 24 26 27 26 26 25 25 26 24 24 24 21 21 21 21 20 20 20 20 21
36 36 37 34 29 30 29 29 29 30 30 29 29 29 27 29 28 29 29 30 20 19 23 24 21 25 27 27 27 26 27 26 25 23 23 25 25 24 23 23 22 22 20 19 19 18 16 16 17 17 14 15 17 17
35 37 30 31 26 25 26 30 29 29 29 29 28 28 26 25 26 27 28 23 23 23 26 29 30 30 29 27 26 26 26 25 25 23 22 21 20 20 20 18 16 14 15 14 15 12 12 13 12 11 10 11 12 14
35 32 32 25 21 20 25 31 23 27 24 26 27 23 24 25 26 27 24 25 27 28 28 29 27 27 25 23 21 21 22 20 20 20 21 21 20 19 19 15 12 8 8 10 11 12 9 6 7 5 7 7 8 8
31 29 27 25 18 16 20 22 23 20 25 25 22 21 21 24 25 22 18 24 27 27 27 27 25 23 23 20 18 17 19 21 19 18 19 19 16 15 15 14 11 9 7 6 5 2 3 -0 0 3 2 1 2 4
16 19 21 19 23 11 6 6 15 16 10 19 21 20 21 19 17 18 14 21 23 23 23 25 26 25 22 21 19 16 16 19 18 15 13 11 9 8 9 9 9 9 7 -0 -2 -3 -4 -3 -5 -3 -2 -2 0 2
14 20 16 6 9 19 7 7 6 9 9 12 15 19 15 15 16 14 19 20 21 21 20 21 21 20 19 20 17 14 11 13 17 13 11 9 6 2 -3 -4 -4 -1 4 -6 -9 -7 -5 -4 -4 -5 -4 -3 -1 2
11 9 17 25 25 24 13 13 19 14 13 19 18 17 20 18 14 17 21 20 21 21 21 21 22 20 16 13 10 9 10 11 12 12 11 9 8 6 -2 -9 -7 -0 3 -1 -11 -16 -11 -6 -5 -5 -3 -2 -1 1
19 15 15 16 20 24 21 22 21 19 21 24 21 18 18 13 11 16 18 20 19 18 16 15 15 14 11 10 9 8 6 9 7 6 5 4 3 -2 -5 -7 -6 3 -7 -13 -16 -12 -12 -7 -3 -2 -1 0 -4 -5
19 21 19 15 21 22 22 21 21 24 26 24 19 16 12 12 11 12 15 16 17 15 12 10 8 9 8 6 3 -0 -3 -7 -8 -10 -13 -16 -15 -8 -4 -13 -15 -14 -16 -15 -7 -0 0 -0 0 -2 -7 -6 -4 -6
15 20 14 12 14 18 17 22 19 21 22 20 18 14 11 10 11 13 13 12 9 5 1 -2 -3 -0 -12 -12 -12 -8 -12 -17 -14 -11 -15 -17 -11 -6 -15 -19 -17 -15 -18 -23 -18 -16 -9 -16 -14 -18 -17 -18 -19 -22
20 21 20 19 17 18 22 24 25 25 23 14 14 11 9 5 5 8 5 2 2 -2 -7 -11 -11 -20 -15 -15 -17 -16 -13 -15 -18 -14 -14 -16 -12 -17 -18 -17 -20 -25 -26 -26 -27 -27 -26 -25 -27 -27 -25 -22 -22 -23
21 19 18 16 15 14 9 14 11 14 16 19 12 8 -0 -2 -8 -0 -1 -2 -6 -10 -14 -21 -15 -11 -14 -16 -19 -18 -12 -15 -16 -16 -16 -16 -15 -14 -16 -19 -25 -27 -26 -26 -27 -27 -27 -27 -28 -28 -28 -27 -27 -26
11 4 6 1 6 6 4 -4 -6 2 9 7 -3 -4 -5 -4 -5 -2 -0 -7 -7 -11 -13 -15 -16 -20 -17 -15 -16 -18 -17 -19 -17 -8 -6 -7 -13 -12 -19 -24 -27 -27 -25 -27 -28 -30 -27 -26 -27 -27 -28 -29 -27 -26

GFSWCAN_sfc_dewp_033.txt.gz
Dewpoint
49 48 48 48 47 48 49 49 49 49 49 49 49 49 49 50 51 53 52 52 48 44 47 48 47 41 41 41 39 41 39 39 35 34 35 30 32 30 28 28 32 31 31 30 25 25 24 28 32 32 34 34 35 37
48 47 47 48 49 49 49 49 49 48 48 48 49 50 49 49 51 52 52 53 50 47 47 49 48 49 49 43 42 41 40 39 39 35 32 31 32 32 29 29 32 29 31 30 28 30 32 30 36 35 35 35 36 39
47 47 48 48 48 48 49 48 47 48 48 49 49 50 50 50 50 52 52 50 48 45 45 46 46 48 48 48 48 41 40 42 38 38 35 34 32 33 32 31 32 32 32 32 31 30 31 33 34 35 36 38 38 40
48 48 48 48 48 47 47 48 48 48 48 49 49 50 50 50 51 51 50 49 45 43 37 43 46 45 47 50 50 46 43 42 40 38 35 34 34 33 32 32 33 33 33 32 32 33 33 33 36 38 37 40 40 40
48 48 48 48 46 46 47 47 48 48 48 50 49 49 50 50 50 51 50 49 47 41 38 40 44 44 46 48 46 45 43 43 41 38 35 36 33 35 35 34 33 34 33 34 33 32 33 34 36 40 40 40 40 40
48 48 47 46 46 47 47 47 48 47 48 48 49 50 50 50 49 46 43 48 47 45 42 37 42 42 43 45 45 45 45 43 41 40 35 37 39 36 34 33 35 36 37 35 35 37 36 38 39 40 40 40 37 33
47 47 47 46 46 47 47 48 48 47 48 48 48 49 49 49 49 40 37 45 46 44 39 36 37 40 41 43 43 43 44 42 42 39 36 37 39 37 34 34 37 38 39 40 40 40 39 39 40 39 32 27 27 26
47 46 46 46 46 47 47 47 48 48 47 48 48 48 48 48 48 47 47 46 46 39 38 33 34 36 41 39 37 41 39 41 41 39 38 36 38 37 34 33 32 35 37 39 40 41 40 34 27 25 26 29 32 33
46 46 46 46 46 46 46 47 48 47 47 47 47 47 47 46 44 46 46 46 45 41 34 31 32 33 41 38 37 38 39 36 39 35 37 38 35 32 27 28 30 32 35 37 32 27 27 30 31 32 32 32 31 31
46 46 46 46 46 46 46 47 47 47 46 46 46 43 38 43 45 45 42 39 38 37 39 33 36 35 39 36 35 35 35 35 35 35 38 34 33 27 32 34 35 35 35 36 35 31 34 33 32 33 34 34 33 33
46 46 46 46 46 46 46 46 46 46 46 44 41 39 44 44 43 37 35 34 35 32 37 36 36 35 38 36 34 34 34 34 32 32 34 31 30 26 34 35 36 36 36 35 35 35 35 34 34 33 34 34 34 34
45 45 46 46 45 45 46 46 46 44 43 43 43 43 41 38 35 35 33 34 32 32 34 35 35 38 36 37 35 34 31 31 28 32 32 28 25 32 35 35 37 37 36 36 37 35 35 35 35 35 35 34 32 30
44 44 44 45 45 45 45 44 44 44 43 41 38 35 37 34 32 26 30 31 32 33 34 34 34 34 36 36 34 34 32 31 34 31 29 30 30 35 34 34 34 35 35 35 34 35 35 34 32 30 28 28 29 28
43 43 44 44 44 45 44 43 43 43 40 34 32 29 28 31 31 31 32 33 32 33 33 34 33 34 33 33 32 32 32 33 29 27 25 31 34 28 26 27 25 25 26 26 26 26 26 27 27 27 27 27 27 28
43 42 42 43 43 43 43 43 42 41 37 33 32 27 28 30 32 32 32 33 32 34 33 34 34 34 32 31 31 30 27 24 25 23 29 31 31 28 33 30 27 27 26 27 27 27 26 25 26 27 28 28 27 26
42 41 40 42 42 41 40 40 39 38 34 33 31 29 31 31 32 32 32 32 34 33 33 34 32 30 28 29 25 25 25 21 26 31 32 32 31 33 34 35 30 30 28 27 27 27 27 26 26 27 27 28 26 26
41 38 40 42 41 39 39 36 35 32 32 32 30 33 32 32 32 32 32 32 35 33 31 29 25 25 28 25 25 27 24 27 32 32 34 34 34 34 34 34 29 28 28 28 29 29 28 28 27 26 24 24 25 25
37 38 40 41 38 36 34 32 31 30 29 30 30 30 31 32 32 32 32 32 33 32 30 28 30 25 23 21 24 28 30 32 33 33 33 31 31 31 30 29 29 29 28 28 27 26 25 24 21 20 20 19 21 22
37 38 39 39 36 32 30 30 30 28 29 30 30 30 30 31 31 32 32 32 30 29 29 25 22 24 25 25 27 30 31 30 30 29 28 29 29 28 28 27 26 25 25 23 21 20 20 20 19 17 16 16 17 19
37 38 38 36 36 30 27 27 31 30 28 30 30 29 29 29 30 31 32 31 28 26 25 23 24 25 25 27 28 31 30 28 27 26 25 26 25 24 23 23 22 21 20 19 18 16 15 15 14 14 13 12 14 13
34 35 35 33 29 30 28 29 29 30 30 28 30 29 27 29 28 29 29 29 23 23 24 27 26 27 28 27 27 27 27 27 25 26 26 23 23 21 19 19 18 16 15 14 14 13 12 12 11 10 11 10 11 12
34 35 29 28 25 25 27 30 29 30 29 29 28 28 26 26 26 27 28 24 23 26 27 29 30 29 26 25 24 24 24 23 23 22 22 22 21 19 15 13 12 12 11 10 10 10 9 9 8 8 7 8 8 9
33 30 26 25 23 22 24 30 21 27 25 26 27 23 25 25 27 27 25 25 27 28 29 28 27 27 25 23 21 20 20 20 20 20 19 19 19 17 14 12 10 8 7 6 6 6 5 3 4 4 5 5 5 5
29 25 21 23 20 22 19 21 24 21 26 25 23 18 22 24 25 22 21 25 26 27 28 27 26 23 21 18 17 18 19 17 16 16 17 16 14 13 13 11 9 7 5 4 3 2 1 1 -1 1 1 1 1 2
17 21 17 20 21 12 14 13 15 21 10 17 15 13 16 18 17 17 15 21 21 21 23 26 26 24 19 18 17 16 17 19 16 13 11 10 10 8 7 5 6 5 5 3 1 0 -1 -1 -1 -1 -1 -1 -1 0
17 20 15 16 19 14 13 7 14 10 10 13 16 18 17 18 16 15 17 19 21 21 21 23 21 18 17 18 15 14 12 14 14 10 9 7 5 5 3 1 1 2 4 2 -1 -2 -2 -2 -2 -3 -2 -1 -2 -0
15 15 19 25 24 23 13 16 20 16 11 13 17 17 18 16 12 15 20 18 19 19 19 18 21 18 15 11 10 11 12 12 13 10 9 7 6 4 2 1 -1 1 3 1 -2 -4 -5 -5 -5 -4 -2 0 1 1
23 17 13 14 14 20 14 11 14 16 18 23 21 15 16 14 12 14 16 18 17 16 14 13 13 12 10 8 8 10 9 8 8 6 6 5 4 3 1 1 -1 2 -4 -5 -5 -5 -4 -4 -4 -2 -1 -1 -2 -1
16 17 14 8 11 13 13 13 14 21 24 23 19 15 11 10 10 11 13 15 16 14 11 10 8 9 7 5 1 0 0 3 1 -4 -5 -3 -3 1 1 -1 -3 -4 -6 -7 -6 -1 1 3 1 -1 -6 -7 -7 -7
17 19 14 9 10 15 18 19 17 19 19 18 16 13 10 9 9 11 12 10 8 4 2 1 1 4 -3 -2 -2 -1 -3 -5 -2 -2 -3 -4 -3 -1 -2 -4 -5 -5 -8 -10 -10 -9 -6 -8 -7 -10 -11 -11 -11 -11
18 21 20 19 16 15 15 14 25 26 19 14 12 9 7 6 7 7 5 2 2 0 0 -4 -4 -11 -4 -6 -4 -5 -4 -4 -11 -7 -5 -6 -6 -5 -4 -5 -6 -10 -11 -11 -11 -12 -12 -11 -12 -13 -13 -13 -15 -15
18 16 16 9 10 8 8 14 7 13 16 15 4 4 -1 0 -4 3 2 0 -2 -3 -11 -13 -7 -3 -7 -8 -11 -9 -11 -7 -6 -6 -8 -7 -5 -4 -5 -6 -11 -13 -11 -11 -12 -13 -14 -14 -13 -14 -14 -15 -16 -16
8 1 8 6 8 5 -0 -4 -6 -2 5 2 -1 -5 -4 -2 -4 1 1 -3 1 -4 -8 -7 -7 -9 -10 -10 -8 -8 -12 -9 -12 -8 -6 -5 -8 -6 -7 -8 -11 -12 -12 -11 -12 -14 -13 -14 -13 -15 -15 -17 -18 -19

GFSWCAN_sfc_dewp_036.txt.gz
Dewpoint
46 46 46 47 48 48 48 48 48 48 49 49 49 49 49 50 51 56 55 55 52 50 48 48 45 44 42 44 44 42 40 42 43 45 44 39 41 32 29 27 31 33 36 37 33 35 30 27 32 31 34 35 33 36
48 48 47 47 47 47 48 49 49 48 48 49 49 49 49 50 51 53 54 55 53 50 49 50 50 50 48 45 45 44 43 41 42 43 43 42 39 37 35 33 33 31 33 34 31 31 30 31 35 35 37 37 37 38
47 47 47 48 48 48 48 48 48 48 48 48 49 49 49 50 51 53 54 55 53 52 48 49 47 49 50 51 51 44 46 43 42 44 44 44 38 39 37 35 34 33 33 34 32 28 30 31 32 33 34 36 36 36
48 48 48 47 47 47 47 47 47 48 48 48 49 49 49 50 51 52 52 53 54 50 42 47 48 48 49 51 50 48 46 45 43 44 47 42 42 37 39 35 36 34 34 32 33 31 30 30 32 36 38 40 39 39
47 47 47 46 46 47 47 47 48 48 49 49 49 49 49 50 50 52 51 51 51 48 44 48 47 47 48 47 46 46 45 44 45 46 42 44 40 41 40 39 38 33 33 36 35 34 35 35 38 40 40 40 41 41
46 46 46 46 47 47 47 47 48 49 48 49 49 49 49 49 49 52 47 50 48 50 50 44 46 45 47 48 47 47 47 46 45 45 41 40 39 42 39 38 38 38 39 40 38 40 41 41 41 41 40 38 38 36
46 46 46 47 47 47 47 47 48 49 48 48 49 49 49 50 53 44 42 48 47 48 49 42 45 44 45 46 45 46 47 46 46 44 40 42 42 41 39 39 35 35 36 39 40 41 40 38 36 33 32 32 34 33
46 46 46 46 47 47 47 47 47 48 48 48 48 48 48 48 49 50 48 46 47 43 46 42 41 46 45 44 43 44 45 46 44 41 42 41 40 42 38 32 33 35 37 39 35 39 37 33 31 32 33 34 32 31
46 46 46 46 46 47 46 46 46 46 47 47 47 47 51 49 51 50 46 46 49 46 43 38 41 38 42 40 41 43 44 39 42 39 40 42 37 34 29 31 34 36 36 37 34 35 35 33 32 31 32 34 33 34
46 46 46 46 46 46 46 46 46 47 46 47 50 48 46 48 45 46 45 46 46 45 42 36 39 37 40 41 39 40 41 38 37 38 40 38 30 30 34 35 35 36 36 34 35 34 33 33 34 35 36 35 34 33
46 46 46 46 46 47 47 46 46 47 49 50 48 44 49 45 46 44 41 40 41 39 40 38 40 38 40 38 37 39 37 38 35 36 38 35 30 29 35 35 35 35 35 35 35 34 35 34 35 35 35 35 35 35
46 46 45 45 45 46 46 45 46 47 47 47 47 46 45 42 42 37 35 37 38 36 38 38 38 39 39 41 38 37 35 35 31 35 35 31 29 35 35 36 36 35 35 34 34 33 33 33 34 34 32 30 29 30
44 44 45 45 44 44 45 45 44 44 44 47 44 40 42 38 36 36 33 35 34 35 36 36 35 40 39 40 37 36 33 33 35 33 31 30 33 34 35 33 32 33 33 32 30 31 30 29 28 29 30 29 34 29
43 43 43 44 44 44 43 43 44 45 45 38 37 34 35 34 35 35 36 36 34 34 36 38 36 37 37 36 35 34 33 35 31 29 29 31 35 33 31 31 29 27 30 27 26 28 28 28 28 32 33 32 33 30
42 42 42 42 43 43 43 42 42 42 39 35 37 31 31 32 33 33 33 34 34 35 36 37 36 38 34 33 34 34 31 30 30 30 31 33 33 32 29 27 28 28 31 30 27 29 32 31 31 30 31 28 28 29
41 41 40 42 41 42 41 41 41 40 37 35 34 32 33 33 32 33 33 32 35 35 36 36 34 34 32 34 32 31 31 28 29 31 33 32 34 35 32 32 33 29 28 29 30 30 30 30 30 28 28 25 26 26
39 38 40 41 40 39 39 40 38 34 34 33 33 34 34 33 32 32 33 33 35 34 33 36 32 30 33 31 29 31 31 32 33 33 33 34 34 35 34 35 32 31 30 30 29 28 27 25 24 22 19 17 19 20
38 39 39 39 39 38 36 36 35 33 30 32 32 32 33 33 33 33 34 35 37 35 35 32 32 31 31 28 30 31 31 34 35 34 35 35 36 35 35 31 31 31 29 27 26 23 21 21 18 17 15 14 15 15
38 38 38 38 37 37 34 33 33 29 31 32 33 33 34 34 35 34 34 34 33 34 35 32 32 30 31 32 32 32 34 34 32 30 30 32 31 31 30 29 28 25 22 20 19 18 17 16 15 14 13 12 13 15
37 38 37 36 37 35 31 31 35 30 29 31 32 30 31 31 33 33 34 35 32 34 32 31 29 30 31 31 31 33 35 34 31 29 27 27 27 26 25 24 22 20 19 17 16 15 15 15 12 11 12 12 14 14
37 37 36 37 35 33 31 31 29 31 30 29 30 29 29 32 31 32 32 32 33 28 27 29 29 28 29 29 30 31 31 31 29 31 28 25 23 22 20 19 17 17 17 18 17 14 14 13 11 11 14 15 14 15
36 35 36 35 33 33 32 32 31 32 30 30 29 29 28 28 29 29 30 30 27 28 28 30 29 28 26 24 25 26 27 26 26 25 24 23 21 19 17 16 17 17 15 14 12 14 13 9 10 11 13 13 12 13
33 34 34 33 30 31 28 31 30 28 26 28 29 25 26 28 29 29 28 27 28 29 30 28 28 28 25 23 22 22 22 22 21 21 22 21 18 19 17 14 14 14 13 9 9 10 10 6 8 9 11 11 11 12
31 28 27 26 27 25 27 27 27 26 29 27 25 23 24 27 28 26 23 26 26 28 28 27 26 24 24 23 21 20 19 19 19 19 19 19 18 15 14 12 11 10 8 8 9 10 9 9 6 8 9 9 9 9
26 23 24 22 24 23 22 22 23 23 22 24 22 23 25 27 23 19 20 21 22 24 25 28 27 25 22 21 21 19 20 20 19 15 14 15 15 13 10 8 8 7 9 10 9 8 8 7 7 6 6 7 6 5
20 24 23 22 23 22 22 20 22 22 22 22 23 24 27 25 18 16 16 20 22 22 22 24 24 20 19 20 18 17 16 19 16 13 11 10 10 11 10 9 9 9 8 9 7 5 5 4 4 3 4 5 4 5
20 22 24 26 25 24 25 24 24 23 21 21 24 23 23 17 14 16 19 19 19 19 19 20 20 19 16 15 15 14 15 15 15 12 10 8 8 8 9 8 5 6 6 5 5 4 3 3 3 3 4 6 6 5
23 24 22 24 25 26 22 23 22 22 23 24 25 19 17 17 15 16 16 18 19 17 16 15 14 14 13 12 14 14 13 12 12 11 11 10 9 10 7 8 7 4 4 4 3 3 3 3 3 4 4 3 3 3
24 26 25 19 22 23 23 22 22 24 24 24 23 18 14 12 14 15 15 17 19 18 15 14 13 14 12 10 10 11 12 12 7 2 -1 7 8 8 8 7 7 6 6 4 2 2 2 4 4 2 0 1 1 1
24 26 23 19 19 19 24 25 25 26 22 21 18 14 11 12 12 14 15 15 14 12 11 11 11 14 11 12 10 8 9 8 7 6 5 4 5 6 6 6 5 5 4 3 2 1 0 1 1 1 -1 -1 -0 -2
26 27 21 20 20 24 23 23 27 26 23 19 17 15 11 11 12 11 10 10 11 11 12 10 8 9 9 7 8 7 7 7 3 3 3 5 5 6 6 5 5 4 3 1 0 -0 -2 -2 -1 -2 -3 -5 -6 -6
22 19 19 17 21 20 20 21 21 22 21 18 12 12 10 11 7 9 8 11 11 8 1 6 8 8 7 8 6 6 -3 5 5 3 3 4 5 6 5 4 3 2 1 -0 -1 -2 -3 -4 -3 -4 -5 -6 -7 -9
20 20 18 18 19 18 16 14 12 14 15 13 10 9 8 9 3 8 9 9 8 8 7 7 8 8 4 1 4 6 -0 4 1 1 -1 -1 -2 0 2 4 3 1 -1 -1 -1 -3 -5 -6 -5 -6 -7 -9 -10 -11

GFSWCAN_sfc_dewp_039.txt.gz
Dewpoint
43 43 44 44 44 45 45 45 46 48 48 49 48 48 49 49 50 52 56 58 49 47 47 47 40 38 42 39 44 43 42 43 44 43 45 41 42 36 32 28 33 34 38 37 37 36 31 25 28 26 36 32 33 33
43 44 44 45 45 45 46 47 48 48 48 48 48 48 48 49 50 51 55 55 55 49 49 52 51 51 49 48 43 45 41 43 42 42 47 48 42 40 39 33 31 32 33 36 32 33 30 29 28 31 33 34 34 35
45 45 45 45 45 46 48 48 48 48 47 48 48 48 49 50 51 53 55 56 53 52 49 49 48 50 51 52 53 44 48 43 44 48 46 48 41 43 39 38 35 32 33 33 30 26 26 28 30 31 34 37 36 37
46 46 47 47 47 48 48 48 48 48 48 49 48 49 49 50 50 53 53 56 53 51 46 48 49 49 50 51 50 50 49 49 48 47 51 44 43 40 42 37 36 35 33 30 32 29 31 29 35 39 40 40 39 39
47 47 47 47 47 47 47 47 47 48 48 48 49 49 50 50 51 55 57 54 54 47 46 48 49 48 48 48 47 48 48 46 45 48 44 46 43 44 44 42 39 33 33 37 37 36 39 38 41 41 41 40 40 40
46 46 47 47 47 47 48 48 48 47 48 48 49 49 49 50 51 53 51 52 52 52 50 47 48 47 48 48 47 47 47 46 46 47 47 42 41 45 42 39 38 37 38 38 39 40 41 41 37 36 35 35 34 34
47 47 47 47 48 49 48 48 48 48 48 48 48 49 49 50 53 48 43 49 50 52 51 46 46 47 48 47 47 47 49 48 47 47 44 46 43 43 41 39 36 36 36 39 39 41 40 35 34 36 37 35 35 37
46 47 46 47 47 48 48 48 48 48 48 48 48 47 48 48 49 48 47 46 49 45 48 44 42 48 47 48 46 47 49 48 46 43 44 43 43 45 42 35 35 36 38 36 36 37 35 35 35 34 33 34 34 35
46 46 46 46 46 46 46 47 48 47 48 48 48 48 51 52 52 48 46 48 52 48 44 38 40 38 44 43 45 46 47 42 44 42 43 42 40 39 34 34 35 37 37 36 36 35 34 33 33 33 33 33 33 35
46 46 46 46 46 45 45 47 46 47 47 48 50 45 49 50 46 47 47 48 48 47 44 39 43 42 42 44 41 42 42 41 38 41 42 41 35 33 34 35 35 36 36 36 35 34 33 33 33 33 32 32 31 31
45 45 45 46 46 45 46 46 47 47 48 51 50 47 49 46 46 46 42 42 43 41 41 40 42 41 43 40 38 42 39 41 36 37 39 36 33 32 35 35 35 35 36 35 35 34 34 34 33 33 32 33 33 31
45 44 44 44 45 45 44 45 46 48 48 48 49 48 47 44 45 39 37 39 39 37 39 39 39 39 41 42 39 40 36 37 33 37 38 34 32 35 35 35 35 34 33 33 32 32 32 32 31 29 28 29 30 30
44 44 44 43 43 44 45 44 44 44 45 49 46 42 44 40 37 35 33 35 35 37 37 39 37 41 41 41 39 38 35 35 37 35 32 32 34 36 35 34 32 31 32 30 29 28 27 28 29 30 30 31 35 31
42 43 43 43 43 43 43 44 45 47 46 43 40 34 35 35 35 35 36 36 35 36 38 40 37 40 40 37 37 34 34 34 32 30 31 33 34 35 32 31 30 27 33 27 26 28 29 29 31 33 33 33 32 28
42 41 42 42 42 42 42 43 43 45 41 36 38 33 32 33 33 33 34 35 35 37 40 39 39 40 36 35 36 34 32 31 32 33 33 34 35 34 33 30 27 28 32 29 28 31 34 35 31 30 29 26 27 27
41 40 39 42 41 41 41 42 42 41 39 35 34 32 33 33 32 33 33 33 36 37 40 41 37 37 34 35 33 34 33 31 32 34 35 35 33 33 30 31 30 28 29 31 31 31 31 30 32 27 25 22 27 26
40 38 40 41 40 40 41 40 39 36 36 35 33 34 34 33 32 32 33 33 36 36 34 36 35 32 34 32 32 35 33 34 33 34 34 35 35 33 34 33 33 32 32 31 30 29 26 24 24 20 18 16 16 17
39 39 39 39 39 39 37 38 37 34 32 35 32 33 34 33 34 33 35 36 37 36 37 35 34 33 33 31 31 32 33 35 33 33 35 36 36 35 35 32 31 31 30 29 25 22 21 21 18 17 15 12 12 14
37 38 38 38 38 37 33 33 35 31 33 35 35 35 35 35 35 35 37 38 37 38 37 35 34 33 32 33 33 33 33 33 32 32 33 35 35 35 33 31 30 28 24 22 21 20 19 16 15 13 13 12 15 16
37 38 38 38 39 35 31 32 35 31 30 32 34 33 33 33 35 35 36 37 35 35 32 31 29 29 30 31 33 35 35 33 32 31 30 32 34 33 30 28 25 23 20 19 18 17 17 16 13 12 14 14 17 16
38 37 38 39 37 34 32 31 30 31 31 30 32 31 32 34 33 33 34 34 33 28 28 29 29 30 30 31 33 35 34 34 31 31 30 27 27 25 23 21 21 20 21 22 21 17 17 15 13 13 17 19 17 18
36 37 39 39 36 35 32 33 30 32 30 31 30 30 31 31 31 31 33 30 27 28 29 31 31 29 28 28 30 30 31 30 30 29 26 26 24 23 22 21 21 21 18 18 15 17 16 12 12 13 16 16 15 16
36 37 37 37 33 33 30 33 31 28 28 27 28 26 27 29 29 29 27 27 28 30 30 30 30 31 28 26 24 25 25 26 26 26 25 24 22 22 20 18 19 19 17 12 12 13 14 10 12 13 14 14 14 14
33 32 30 30 31 27 32 28 27 25 28 28 25 23 24 27 27 26 25 25 26 27 29 28 28 26 27 25 23 23 24 23 22 22 23 22 20 18 16 14 14 13 12 12 13 14 14 14 11 12 12 11 12 11
28 26 29 25 30 27 26 26 27 25 23 26 25 25 25 28 24 22 22 23 24 24 27 27 26 26 24 24 23 21 23 25 22 19 20 20 18 15 12 11 11 10 12 14 13 12 12 11 11 10 8 9 8 7
23 25 25 25 25 25 25 22 23 23 23 23 24 26 28 27 20 18 17 22 23 22 23 25 26 23 20 21 19 18 19 22 21 16 14 13 14 16 14 13 13 13 11 12 11 9 8 8 7 6 7 7 6 7
22 24 26 25 24 24 26 26 25 24 21 22 23 23 25 18 17 18 19 19 20 21 20 21 20 19 18 16 16 17 18 17 16 13 12 11 11 11 13 12 9 9 8 9 8 7 6 6 6 6 6 8 8 7
24 25 22 25 25 25 23 23 23 22 23 23 25 21 20 19 17 18 18 20 21 19 18 17 16 16 16 16 18 18 16 15 15 14 13 12 12 12 10 11 9 3 8 8 7 6 6 6 6 6 7 6 5 6
24 26 26 22 24 24 23 22 23 23 23 23 24 20 17 14 16 18 17 20 22 22 19 17 17 18 16 15 15 15 15 15 12 6 5 10 11 12 11 10 10 9 9 8 6 6 5 5 5 5 4 4 5 5
24 28 24 23 21 20 23 25 26 26 23 23 20 16 14 14 15 18 18 17 16 16 16 16 16 16 14 15 13 12 12 11 9 8 7 7 8 9 9 9 8 9 8 8 6 5 5 5 5 5 4 4 4 3
26 28 23 23 21 24 25 27 29 26 24 21 21 19 15 14 15 14 14 15 15 15 15 14 12 13 12 10 11 10 10 11 6 5 5 7 8 8 9 8 8 8 7 6 5 4 3 2 3 2 2 1 -1 -1
24 22 21 17 22 24 25 23 24 24 24 21 17 17 16 16 11 11 12 15 14 12 9 11 11 10 10 10 10 11 3 7 7 6 5 6 7 8 8 7 7 7 5 4 3 3 2 1 1 0 0 -1 -3 -5
21 22 21 21 20 18 21 21 18 17 18 15 14 14 13 13 6 10 12 13 11 11 10 11 11 11 8 7 7 8 5 7 4 5 4 2 1 2 3 6 6 5 4 3 3 2 1 -1 -1 -2 -4 -5 -6 -7

GFSWCAN_sfc_dewp_042.txt.gz
Dewpoint
43 43 43 43 42 42 43 43 44 45 46 46 46 46 46 46 46 47 48 52 50 50 44 44 42 39 43 45 45 45 44 44 49 46 47 45 43 41 36 31 37 37 39 37 40 35 32 26 25 28 37 37 35 35
43 43 43 42 42 43 44 44 45 45 45 45 45 46 47 47 47 49 48 52 54 53 51 54 52 51 49 51 48 48 45 44 45 45 48 50 40 40 42 37 30 35 36 39 37 37 35 30 31 33 36 36 38 38
43 43 43 43 44 44 45 45 45 45 45 46 45 46 48 49 49 50 50 53 57 52 50 50 48 50 51 53 56 47 53 44 46 51 49 50 40 47 39 43 40 32 34 38 35 27 28 29 32 38 38 40 38 38
44 44 44 44 45 45 45 44 45 45 45 47 46 48 48 49 50 50 49 54 59 51 45 48 49 48 50 51 51 53 52 53 53 53 54 43 42 43 47 41 42 36 34 30 32 31 31 36 40 41 40 41 40 40
44 44 45 44 44 45 45 45 47 47 48 48 48 48 49 49 50 51 53 56 58 51 46 48 48 48 48 49 48 50 52 51 51 49 42 48 46 47 47 46 45 34 34 41 41 38 40 40 38 38 37 36 36 37
44 44 45 45 45 46 47 47 47 47 47 48 48 48 49 49 50 53 51 53 56 53 50 45 49 47 47 47 47 48 49 50 48 49 49 45 43 48 42 43 38 38 38 39 40 40 41 38 36 36 35 35 36 36
47 47 47 47 47 47 47 47 47 47 48 48 48 49 50 49 54 51 49 50 48 55 51 44 45 47 48 47 48 48 50 49 48 48 47 46 44 45 42 43 37 36 37 39 38 40 37 36 36 36 36 35 35 34
47 47 47 47 47 47 47 47 47 47 48 48 49 49 48 47 48 50 52 47 48 49 51 42 39 47 48 49 46 48 50 49 46 44 45 45 44 48 44 37 36 36 37 36 36 37 36 36 34 34 34 33 33 33
46 45 46 47 48 47 48 47 47 48 48 48 48 48 51 54 53 49 47 47 54 50 46 38 40 38 45 44 45 47 47 42 45 42 43 43 41 39 37 36 36 37 37 36 35 35 34 34 33 33 33 33 33 34
45 45 45 45 46 47 48 48 47 47 48 48 49 48 47 52 46 49 48 48 50 48 45 41 44 42 43 45 42 42 43 41 39 40 42 41 35 34 35 36 36 37 37 36 34 33 34 33 32 31 31 33 32 32
45 45 45 45 45 46 46 47 47 48 49 52 51 47 50 47 48 47 44 44 43 41 40 42 43 42 44 40 38 43 38 41 36 38 38 36 34 33 34 35 36 36 37 36 35 34 34 33 33 33 32 31 31 31
44 44 44 44 45 45 45 46 48 48 49 49 49 50 49 46 45 38 36 40 40 37 39 39 41 40 43 43 40 41 35 38 34 39 37 34 33 34 34 34 34 35 34 34 33 32 33 31 31 29 29 30 32 33
43 43 43 43 43 44 45 45 45 45 46 50 47 41 44 40 36 36 33 35 34 36 37 39 36 41 41 41 39 36 34 36 39 35 32 33 34 34 34 33 32 33 33 33 31 29 29 31 32 32 31 33 33 31
43 42 42 42 43 43 44 45 45 47 46 43 39 34 36 33 34 34 34 34 34 35 38 39 37 39 39 36 37 34 35 34 32 31 32 33 34 35 34 33 31 29 31 29 28 29 31 31 31 31 30 30 27 25
41 41 41 41 42 43 43 44 44 45 41 37 38 32 32 33 33 33 34 34 35 37 39 40 40 39 36 35 37 34 32 31 32 33 34 34 36 34 33 30 29 31 31 30 30 32 33 32 30 28 25 25 26 25
41 41 39 41 42 42 43 43 42 42 39 35 34 32 33 33 32 33 33 33 36 38 41 42 38 35 33 35 33 33 32 31 32 34 34 36 36 35 34 30 30 30 32 32 32 31 30 29 28 25 23 21 25 24
40 38 40 41 41 40 41 41 40 36 34 34 32 32 33 33 32 32 33 33 36 37 34 38 34 32 34 33 31 33 31 33 33 34 35 36 35 34 33 33 33 33 33 32 31 29 27 25 25 22 19 16 16 19
38 38 40 41 41 40 39 39 37 34 31 33 32 33 33 32 33 33 34 35 36 35 35 34 36 33 33 31 30 32 33 33 34 34 34 36 36 34 32 32 33 31 31 29 25 24 22 24 20 18 15 13 15 16
37 38 40 41 39 37 34 35 36 32 33 34 34 34 34 34 35 36 36 37 38 38 37 35 33 31 30 32 33 32 33 33 32 32 33 35 35 35 34 33 32 30 27 25 24 22 19 17 15 14 15 14 16 17
38 38 39 40 39 35 31 33 37 33 31 33 35 34 34 34 35 34 36 37 34 34 30 29 27 27 30 31 33 35 34 33 32 31 31 32 34 33 32 30 26 23 20 19 19 21 18 18 14 13 15 16 17 16
37 37 39 39 37 34 33 32 31 33 32 31 32 32 32 35 33 33 34 34 32 28 28 30 30 31 33 33 33 34 34 35 34 32 31 31 31 28 27 26 24 24 24 24 22 18 19 15 14 14 18 19 18 18
35 38 41 40 36 35 32 35 32 33 31 32 31 31 31 31 31 32 33 29 26 28 29 30 32 31 30 31 32 33 33 33 32 30 29 28 26 25 25 25 24 22 20 19 18 19 17 13 13 14 16 17 15 17
37 38 38 37 32 32 30 35 31 28 27 27 29 26 28 29 29 31 28 26 27 31 30 29 29 30 28 27 26 27 30 29 28 28 28 27 25 24 22 21 22 22 17 13 13 15 15 12 14 14 15 15 14 15
34 33 31 30 31 27 33 27 27 25 28 27 24 23 24 26 28 27 23 24 26 27 28 29 31 27 26 24 22 23 27 27 26 27 28 24 22 20 18 16 15 14 14 14 15 15 15 15 12 12 13 11 12 11
29 27 30 25 31 27 25 23 25 24 23 25 24 24 25 28 23 22 21 24 23 24 25 28 25 26 24 23 22 21 24 24 22 20 23 22 20 17 14 12 12 12 14 15 13 12 12 13 12 10 8 9 8 8
22 25 23 23 24 24 23 22 21 23 24 23 23 24 28 26 20 19 19 22 21 20 22 23 25 20 18 19 18 17 18 23 21 17 17 17 17 19 16 15 15 13 12 13 11 9 8 8 7 7 7 7 7 9
21 22 25 27 26 26 25 25 26 26 23 23 25 25 25 20 18 18 20 20 19 20 20 20 19 18 17 17 17 18 17 17 16 14 13 12 12 12 13 11 9 9 8 9 8 7 6 6 6 6 7 9 9 8
24 24 21 26 25 26 23 24 24 23 23 23 27 20 18 17 14 18 19 21 22 19 18 18 17 17 17 18 19 19 20 17 16 15 14 14 13 13 12 12 11 7 9 10 7 8 6 6 5 5 6 6 6 7
24 27 27 22 23 22 24 24 23 24 23 24 24 19 16 14 17 18 19 22 23 21 19 18 20 20 17 15 16 15 14 14 12 9 8 10 12 13 11 11 11 11 11 9 10 9 8 7 6 6 4 4 5 7
23 29 23 22 22 21 23 26 25 25 22 23 19 15 13 14 17 19 18 17 17 16 17 17 17 16 16 16 13 12 12 10 9 7 6 6 7 9 10 11 10 9 10 8 7 6 8 7 6 5 6 6 5 4
25 27 23 22 23 23 24 26 28 26 24 21 22 18 13 13 15 15 14 18 15 16 17 15 12 12 11 9 10 10 11 11 8 6 5 6 8 9 10 10 9 9 8 7 6 5 5 4 3 3 2 2 2 1
23 20 21 19 23 24 24 23 23 25 24 21 18 18 17 18 10 11 13 16 14 12 11 12 11 10 10 11 11 12 4 8 8 7 5 5 5 6 7 7 7 8 7 6 5 4 4 3 2 1 1 0 -0 -3
21 22 20 20 19 20 22 21 17 18 18 16 14 15 13 12 6 11 14 14 12 11 11 11 12 13 11 9 8 8 6 8 7 9 9 5 1 3 2 4 5 5 4 2 2 3 2 2 2 1 -2 -3 -3 -5

GFSWCAN_sfc_dewp_045.txt.gz
Dewpoint
42 42 42 42 42 42 42 43 43 45 44 45 45 46 47 47 47 45 43 48 45 44 46 47 40 41 46 45 40 46 45 46 44 37 36 32 32 32 33 37 34 30 31 26 31 30 26 29 28 27 36 35 36 36
43 43 42 42 42 42 42 43 44 44 44 46 46 46 47 47 47 46 43 47 51 46 47 51 51 51 47 47 47 47 47 46 46 42 40 38 37 35 32 28 37 32 37 34 33 33 38 33 38 40 40 38 38 39
43 43 43 43 43 42 43 43 43 44 45 46 46 46 46 47 47 46 45 48 49 46 44 46 49 51 52 50 50 45 47 49 47 50 45 41 35 36 29 32 33 35 35 35 30 34 32 40 41 41 42 41 39 38
44 43 43 43 43 43 43 43 44 45 45 45 45 46 46 46 47 47 46 49 50 45 35 46 53 51 53 55 54 55 53 52 52 50 40 37 36 42 34 35 35 36 33 33 31 38 40 38 40 40 39 39 35 35
43 43 43 43 43 43 43 44 44 45 45 45 46 46 46 46 47 48 49 49 51 45 43 47 49 49 52 54 52 52 52 49 47 39 36 38 42 39 38 36 34 36 35 31 33 40 38 37 37 37 36 36 36 36
44 44 44 44 43 43 43 43 43 44 44 45 46 46 46 48 49 49 45 48 50 52 48 40 49 49 49 50 51 51 50 49 49 43 38 42 43 39 33 30 38 39 40 41 40 39 37 36 37 37 36 36 36 36
44 43 43 43 43 43 43 43 44 44 44 45 46 47 48 49 50 46 47 51 50 51 46 39 40 47 50 50 49 49 50 48 48 44 40 40 41 42 35 32 37 38 38 39 39 37 36 37 35 36 35 35 35 34
44 44 44 44 44 44 44 45 47 47 46 47 48 48 48 49 50 48 51 50 49 52 46 38 37 42 48 44 40 47 45 45 43 42 41 36 39 34 32 37 37 37 36 36 36 38 36 35 35 34 33 33 33 33
46 46 46 46 46 46 46 47 47 47 47 48 48 49 49 49 49 49 47 46 51 49 38 35 36 36 45 43 42 42 43 38 44 36 39 37 35 34 36 36 37 37 36 35 35 35 34 34 33 33 33 33 33 32
45 46 46 46 46 46 46 47 47 48 48 48 51 50 41 48 47 48 48 43 43 43 40 36 41 37 43 38 36 37 36 35 34 36 40 35 33 35 36 37 37 37 36 35 34 33 33 33 32 32 33 32 30 30
45 45 45 47 47 47 47 47 47 48 49 49 47 43 48 47 48 41 34 34 37 34 36 38 40 39 43 35 35 36 34 33 29 32 32 31 32 34 36 36 36 38 36 36 35 35 34 34 33 32 31 31 31 30
44 44 45 45 46 47 47 47 48 49 50 49 48 49 48 45 39 33 33 35 33 32 36 36 38 40 38 42 35 36 33 30 27 36 33 29 32 34 35 35 36 36 35 34 34 33 33 33 31 31 31 31 29 28
42 43 44 44 45 46 47 47 47 47 46 47 42 38 40 35 31 29 26 32 33 34 35 35 34 36 37 37 35 34 32 27 34 32 29 31 34 34 34 34 33 33 33 31 31 32 32 31 31 31 30 30 28 26
41 41 42 43 44 44 45 45 45 46 45 38 35 32 33 32 31 30 32 33 33 33 35 36 35 34 34 34 33 31 33 32 29 27 26 32 34 34 33 32 32 31 30 30 30 30 29 29 29 27 25 24 24 24
41 40 40 41 43 44 44 44 44 43 38 33 33 29 29 31 32 32 33 33 33 35 36 36 35 36 33 33 33 32 30 27 27 26 31 34 35 34 32 29 29 29 30 31 32 30 29 27 25 24 26 24 24 20
42 40 39 42 42 43 43 42 42 40 36 33 32 31 32 32 32 32 32 32 35 34 35 34 33 32 32 32 30 30 25 24 29 31 34 35 35 32 30 29 30 31 31 31 31 30 29 26 23 22 22 23 17 15
40 37 41 42 42 42 42 41 39 35 32 32 30 32 32 32 30 31 32 33 35 34 33 33 31 29 32 30 28 30 27 30 32 33 35 35 34 30 32 31 32 32 31 30 30 27 25 24 24 21 16 17 21 18
37 39 42 42 42 40 40 38 34 33 30 31 29 31 32 32 32 32 33 34 34 33 33 32 34 31 29 27 27 30 31 32 32 33 34 35 34 33 33 33 31 30 27 26 25 25 24 22 19 18 16 18 19 18
37 39 41 41 39 37 33 35 35 29 31 32 32 32 32 32 33 34 35 35 36 36 34 32 27 26 26 29 30 31 31 32 31 31 33 34 34 34 33 32 32 29 26 25 23 19 18 17 17 17 17 18 18 17
39 39 40 39 40 33 31 31 36 31 30 31 32 32 32 32 33 33 33 32 32 31 27 25 25 27 28 29 32 32 32 33 32 30 30 31 32 32 31 27 23 22 20 20 21 20 18 16 16 17 17 17 13 12
38 37 40 40 36 34 32 31 31 33 32 31 32 32 31 32 31 31 28 30 27 27 26 29 27 29 31 31 32 33 34 34 31 30 30 29 29 27 26 26 26 26 24 21 19 17 16 15 15 16 9 6 5 7
35 39 34 36 32 31 31 33 31 31 31 31 30 30 28 28 28 29 29 24 25 27 28 28 28 28 26 26 29 31 32 31 30 29 29 27 27 26 27 26 22 20 20 20 19 16 15 15 14 11 5 3 8 7
37 37 33 31 23 24 23 31 25 28 24 26 29 26 26 27 28 31 24 25 27 30 30 29 28 27 26 26 26 28 29 28 27 26 25 24 23 22 20 20 22 18 17 16 17 16 14 12 9 3 5 3 3 -1
35 30 24 24 24 24 24 21 27 26 26 26 23 21 22 24 27 22 20 22 23 22 24 26 29 25 22 21 20 22 26 25 23 25 25 22 19 19 18 17 17 17 17 16 15 12 10 2 2 3 -3 -6 -7 -6
19 21 21 15 22 19 17 24 23 20 16 20 19 18 23 26 19 18 19 20 18 18 20 24 20 21 20 20 19 19 21 23 19 16 19 22 18 17 16 14 13 13 14 10 7 -0 -3 -4 -5 -6 -4 -8 -2 -6
20 24 21 23 23 21 23 20 20 18 17 13 22 23 23 20 11 12 16 17 16 17 17 18 20 17 15 17 15 15 16 21 19 15 15 16 15 16 16 12 9 9 10 4 -4 -6 -4 -4 -6 -5 -8 -4 -0 -1
21 23 26 28 28 27 22 24 24 18 14 17 20 18 22 11 8 16 19 19 18 18 19 18 19 18 17 17 17 17 16 15 15 13 13 12 12 12 9 4 -1 2 6 1 -5 -7 -9 -9 -9 -9 -10 -2 -2 -6
25 26 23 25 25 25 22 22 20 18 20 22 24 11 10 8 9 17 18 22 20 19 18 17 17 16 16 15 14 13 14 15 13 13 13 13 11 8 5 3 3 8 5 3 -4 -4 -6 -6 -9 -10 -9 -10 -11 -11
25 27 22 16 22 22 21 21 21 22 22 23 15 11 11 14 15 17 18 19 19 17 15 15 18 15 13 12 11 9 6 6 2 -2 -3 1 2 4 1 -1 1 -1 -2 -2 5 6 3 0 1 -2 -8 -2 -2 -5
22 26 21 19 19 19 21 24 19 21 23 20 15 12 12 12 14 15 15 15 15 12 13 13 12 9 8 8 5 3 0 -2 -1 -6 -10 -11 -8 -1 -0 4 1 -3 -1 -5 -7 -4 2 -4 -3 -9 -9 -10 -3 -7
25 22 17 17 14 22 24 26 23 23 17 12 13 6 6 8 9 11 11 13 11 12 12 5 5 6 5 4 1 -4 -4 -3 -0 -4 -6 -7 -6 -3 3 3 3 -2 -7 0 -4 -8 -11 -12 -8 -7 -12 -12 -9 -10
19 17 12 12 16 20 24 20 17 22 19 13 10 6 6 8 -0 4 10 10 7 7 7 5 3 -0 -3 -2 -2 -2 -3 -1 1 -5 -5 -6 -10 -11 -10 -9 -7 0 0 -0 -2 -5 -5 -6 -9 -7 -8 -11 -16 -19
16 14 13 12 14 16 13 13 16 9 9 8 10 9 3 2 -2 3 11 9 2 0 5 6 7 5 5 0 -5 -2 1 -3 -3 5 5 4 -6 -6 -11 -12 -14 -15 -14 -15 -15 -14 -9 -4 -2 -5 -10 -17 -16 -16

GFSWCAN_sfc_dewp_048.txt.gz
Dewpoint
42 41 41 41 42 42 42 43 42 43 43 43 43 44 44 44 47 45 43 47 43 40 43 47 46 37 36 39 38 43 43 43 40 34 35 33 28 32 32 33 30 28 28 25 28 22 21 35 29 25 30 36 36 36
42 42 42 42 42 42 42 42 42 43 43 43 44 45 46 46 47 44 41 47 49 44 44 47 47 45 46 40 46 45 42 44 45 41 38 37 35 32 31 30 37 30 30 30 31 30 36 38 37 38 38 38 39 40
42 42 42 42 42 42 42 42 42 44 44 44 45 46 47 46 47 44 43 45 45 41 43 45 44 50 51 50 51 44 45 48 48 49 44 41 33 35 30 30 33 35 39 35 32 37 39 40 41 41 39 36 36 37
43 42 42 42 42 42 43 42 43 44 44 43 45 46 46 46 47 45 42 46 45 45 37 41 51 51 53 53 51 49 46 49 50 48 40 38 35 39 32 35 33 35 34 34 38 38 38 38 38 37 36 37 36 36
43 43 43 43 43 43 43 44 44 44 44 45 46 46 46 47 47 45 45 46 48 46 39 40 49 52 54 54 51 54 49 48 44 38 36 38 40 39 36 35 32 35 33 31 32 39 37 36 37 37 36 36 36 35
44 43 43 43 43 43 43 44 44 44 45 45 46 46 46 46 46 45 40 45 48 50 43 37 48 50 53 53 52 52 52 50 48 42 39 42 43 36 32 29 37 39 40 40 39 38 37 37 37 37 36 35 35 34
43 43 43 43 43 44 44 44 44 45 45 45 46 46 46 46 45 42 39 47 48 49 42 37 40 49 52 51 48 50 50 47 48 44 39 39 41 40 32 31 38 39 37 37 37 36 35 36 35 35 35 34 33 32
43 43 43 43 43 44 44 43 43 44 44 45 45 46 46 46 46 44 48 50 50 46 44 37 38 41 49 43 42 47 44 44 44 42 39 34 38 32 31 37 37 37 37 37 37 37 36 35 33 33 33 33 32 32
43 43 43 43 43 43 42 42 42 44 44 45 45 46 48 46 44 44 47 49 50 47 40 35 36 35 44 41 40 40 41 37 42 36 37 37 34 30 35 36 35 36 36 35 35 34 34 33 32 33 33 32 31 29
44 43 43 43 43 42 42 43 43 44 45 46 47 46 39 45 49 49 47 45 44 42 40 35 39 37 42 36 36 36 36 35 34 36 39 33 32 35 36 37 36 36 35 35 33 32 32 32 32 32 32 31 29 28
46 46 46 46 45 45 44 45 46 47 47 47 45 42 48 48 47 44 37 35 36 33 35 38 39 38 42 35 34 34 34 31 31 34 33 33 31 34 36 37 37 36 35 35 34 34 33 33 33 31 30 30 29 29
46 46 46 46 46 47 47 47 47 48 49 49 48 49 47 43 36 33 32 32 33 32 35 36 37 40 38 40 34 35 32 29 28 36 34 29 33 36 38 37 37 36 35 34 34 34 33 32 31 30 29 28 28 28
44 44 45 47 47 47 47 47 48 47 48 46 41 36 38 33 31 23 25 30 31 33 35 34 34 35 37 37 34 34 27 27 33 30 25 30 34 35 35 35 34 34 33 33 32 32 32 32 31 29 26 26 26 25
42 42 43 44 45 45 46 47 46 44 43 37 31 30 31 30 29 30 31 32 32 32 34 34 34 35 33 34 33 31 33 33 24 24 25 32 34 33 33 32 31 31 31 31 30 30 29 28 27 27 26 24 23 20
41 41 42 42 44 44 44 43 43 41 36 31 32 28 28 31 32 32 32 33 33 35 34 34 34 35 33 32 32 31 29 27 24 24 31 34 34 32 31 30 30 29 30 30 29 28 26 25 23 23 23 22 22 21
41 39 38 42 42 43 43 42 39 39 35 31 31 31 32 32 31 31 32 32 35 33 34 33 32 30 31 31 29 28 24 26 29 31 33 35 32 30 30 31 32 33 30 29 28 27 25 23 23 22 22 19 18 18
40 37 40 43 42 42 42 38 36 33 33 30 29 32 32 31 30 31 32 32 35 33 33 31 30 29 31 29 28 30 27 29 31 33 34 32 30 31 33 32 32 31 30 30 29 26 24 21 21 22 19 18 18 18
36 37 42 43 40 39 38 36 33 32 29 31 28 30 32 32 31 32 32 34 34 33 33 31 33 26 23 25 26 29 30 31 33 33 32 33 33 33 33 33 33 31 29 27 25 24 22 21 17 18 19 19 18 18
38 39 41 41 39 34 31 32 33 29 30 31 32 32 32 31 32 32 32 33 34 33 32 29 24 23 24 28 29 30 31 31 30 31 32 33 33 32 32 31 30 29 28 24 22 20 19 18 17 18 19 17 16 17
39 39 40 40 38 31 29 29 33 30 29 31 32 31 31 31 31 30 29 29 30 29 26 24 22 24 26 28 31 31 31 32 31 29 29 31 32 30 29 27 26 25 23 20 18 18 17 17 17 18 16 14 11 11
36 37 38 36 33 33 32 31 32 32 31 30 32 32 31 28 24 24 24 27 23 24 24 26 25 26 28 29 31 32 32 32 31 31 28 26 28 27 27 27 25 22 20 18 17 16 16 15 15 14 7 3 2 4
34 38 30 31 28 27 27 30 30 32 30 30 29 30 27 26 25 25 24 23 23 25 26 25 25 24 24 25 26 28 29 29 29 28 27 26 24 23 22 22 20 19 19 19 17 16 15 13 13 12 9 3 8 4
33 31 27 24 20 19 19 27 22 27 23 25 27 24 24 24 29 27 21 21 22 24 26 25 25 25 23 24 24 25 26 25 23 22 21 20 20 19 19 19 19 17 16 17 18 16 14 11 10 7 4 4 0 -8
31 24 25 17 20 15 16 19 24 24 22 20 20 18 21 24 25 19 16 17 19 21 21 23 23 20 19 18 18 19 22 22 20 21 22 19 16 16 16 15 15 15 15 14 12 10 9 6 4 3 -5 -12 -15 -14
17 18 14 10 18 17 13 19 14 16 13 15 13 16 18 22 15 14 12 15 15 15 17 19 17 17 15 15 15 17 20 19 16 14 16 18 16 15 14 13 11 12 11 8 4 1 -0 -2 -7 -12 -9 -15 -4 -5
17 19 19 21 21 17 15 17 11 19 11 8 18 22 19 9 4 7 12 14 13 15 14 16 16 14 13 14 13 13 15 19 15 11 12 14 14 14 12 10 8 6 7 1 -3 -8 -10 -11 -13 -12 -15 -6 -2 -7
13 15 22 27 26 23 15 16 18 12 9 15 14 8 14 -1 2 12 17 18 15 16 17 17 16 15 13 13 14 14 14 14 12 11 12 11 10 8 4 -3 -4 1 3 -4 -10 -12 -12 -14 -15 -15 -17 -18 -15 -15
22 23 18 20 13 17 8 8 7 9 9 18 14 3 -2 -1 5 15 16 19 18 18 16 15 15 12 10 8 8 8 9 11 12 11 9 8 7 5 3 3 1 10 2 -3 -6 -6 -8 -5 -9 -10 -12 -15 -14 -16
22 24 16 15 11 13 15 13 12 18 21 20 4 4 5 10 11 13 15 17 17 14 11 10 11 10 7 5 3 2 2 -0 -5 -8 -12 -11 -10 -5 2 4 1 -0 -8 -6 0 2 -1 -2 -3 -6 -12 -14 -7 -11
14 17 10 5 6 11 13 10 10 8 17 10 10 9 8 9 11 13 13 11 9 7 6 6 7 4 1 -6 -6 -2 -4 -6 -4 -9 -14 -15 -10 -6 -7 -5 -2 -1 -2 -10 -7 -7 -2 -12 -11 -13 -12 -13 -18 -17
16 11 8 7 7 18 20 12 12 9 3 -0 -1 -3 -1 4 6 10 10 8 9 5 3 -1 -5 -11 -6 -9 -14 -15 -11 -5 -9 -10 -12 -14 -17 -18 -18 -17 -17 -17 -15 -13 -9 -9 -9 -12 -14 -12 -10 -12 -14 -17
5 3 4 8 9 13 18 20 19 11 5 -0 -0 -6 -3 -8 -8 -0 6 0 2 -0 -4 -7 -8 -5 -12 -14 -14 -8 -5 -7 -8 -9 -7 -9 -13 -15 -18 -16 -20 -21 -21 -22 -23 -21 -20 -17 -12 -10 -8 -12 -15 -20
5 -0 -2 3 9 8 3 11 8 5 4 -3 1 -1 -4 -5 -7 -1 6 -1 -5 -10 -11 -12 -8 -2 -1 -7 -10 -12 -10 -15 -13 -4 -2 -2 -4 -4 -14 -19 -20 -20 -19 -21 -23 -24 -18 -17 -17 -15 -11 -12 -15 -19

GFSWCAN_sfc_dewp_051.txt.gz
Dewpoint
43 44 44 43 43 43 42 42 42 42 42 42 41 42 43 42 44 44 43 48 44 40 40 45 45 40 38 37 35 39 42 42 39 35 33 31 27 33 30 32 30 31 30 25 26 21 22 32 28 22 28 35 36 36
42 42 41 42 42 42 42 41 41 41 41 41 42 43 43 44 46 44 42 47 47 41 42 44 44 44 44 43 40 43 40 42 42 39 36 34 31 29 31 29 34 27 32 31 30 29 34 38 32 37 37 36 37 38
41 41 41 41 41 41 41 41 42 42 42 43 43 44 44 44 44 43 44 46 45 40 39 42 43 46 47 46 48 42 43 46 46 45 40 39 33 34 30 30 33 34 37 34 33 37 39 40 38 38 38 38 38 40
42 42 42 42 42 42 42 42 42 42 43 43 43 43 44 45 44 45 44 46 42 42 36 39 46 48 52 52 50 49 45 49 48 45 38 36 33 39 31 36 34 36 36 36 36 38 38 37 36 36 36 36 36 35
42 42 42 42 42 42 42 42 42 43 43 43 43 43 45 45 46 45 46 45 47 39 38 41 45 46 53 53 51 50 49 47 42 38 35 35 40 39 38 38 34 35 35 34 33 38 37 37 36 37 36 35 35 34
43 43 43 43 42 42 42 44 43 42 43 42 46 46 47 46 45 44 38 42 47 48 41 35 44 45 50 51 51 49 49 47 44 40 38 41 42 38 34 34 36 39 39 37 36 39 37 37 36 36 35 34 34 33
43 43 43 43 43 43 43 43 43 43 43 44 45 46 45 45 43 38 38 43 45 48 41 35 36 43 52 48 46 47 47 44 45 41 37 38 40 37 28 30 37 38 38 37 36 36 35 35 34 35 34 33 33 32
43 43 43 43 44 44 44 44 45 45 45 46 46 46 46 45 43 38 45 47 47 43 43 35 36 39 49 43 42 46 43 43 43 41 38 34 38 31 31 36 37 37 36 36 36 36 36 34 34 32 32 32 31 31
43 43 43 44 44 44 44 45 45 45 45 45 45 45 44 43 38 42 48 49 50 42 36 34 34 34 45 42 41 40 43 36 42 36 38 39 34 33 34 36 37 36 36 34 34 33 33 32 32 32 31 30 28 27
43 43 43 44 43 43 43 43 44 44 45 45 45 42 38 41 47 47 46 42 43 43 43 35 40 37 43 36 36 35 35 35 34 36 39 34 34 36 36 37 36 36 34 34 32 32 32 32 32 31 30 29 27 27
43 43 42 43 43 42 42 43 44 44 44 43 40 39 47 48 45 40 35 35 36 33 36 38 38 38 42 36 35 35 33 33 33 35 35 33 32 35 36 36 36 36 35 36 35 34 33 33 32 30 29 29 28 28
43 43 43 42 42 42 43 43 43 44 43 43 46 48 47 44 38 34 32 33 33 32 35 36 37 40 37 40 34 34 32 29 30 35 33 31 32 36 36 36 36 36 36 35 35 34 34 32 31 29 28 28 28 27
44 44 43 43 43 43 43 44 44 46 48 47 42 37 39 34 31 29 28 30 30 33 35 34 34 34 36 36 31 28 25 27 33 32 31 29 34 37 37 36 35 36 35 34 33 32 31 29 29 28 28 27 25 22
45 46 46 46 45 45 45 46 46 47 44 36 35 29 31 29 29 29 31 32 32 33 33 34 33 34 33 33 32 24 32 32 21 20 23 32 34 34 34 33 32 32 32 31 31 30 28 26 25 25 25 23 20 17
43 43 43 44 45 46 47 46 44 42 36 33 33 27 28 31 32 32 32 33 33 34 33 33 33 33 33 31 31 30 28 26 22 22 30 33 33 32 32 31 31 30 30 30 30 29 27 25 23 22 23 20 19 19
41 41 40 43 43 44 43 42 40 38 33 32 31 30 31 32 30 31 32 32 35 33 32 31 28 26 31 30 28 27 20 21 28 31 33 33 31 31 31 31 32 31 30 29 29 27 25 23 22 20 21 20 19 18
40 38 41 43 41 42 42 39 36 32 30 30 29 32 31 31 30 31 32 32 34 34 32 29 29 29 31 28 27 29 25 28 31 32 32 31 31 32 32 31 31 30 29 26 25 24 23 22 20 18 17 18 17 17
36 37 42 43 40 39 38 37 33 31 29 31 28 30 30 30 30 30 31 32 33 33 32 29 31 25 22 23 24 29 30 31 32 31 32 32 32 32 33 31 31 30 29 28 24 21 21 21 19 18 18 19 18 17
37 38 40 41 38 34 31 33 33 29 30 31 32 32 32 30 30 30 31 32 32 32 30 28 22 20 22 26 27 29 30 31 30 31 31 32 32 32 32 31 30 29 28 27 25 21 20 18 19 19 17 17 17 17
38 39 38 39 37 30 29 30 33 31 29 30 31 27 27 27 28 27 26 26 27 27 23 20 19 21 22 25 29 31 31 32 31 28 26 27 29 29 29 28 26 25 23 22 22 20 17 17 17 15 15 15 14 13
34 35 35 34 31 31 30 30 31 31 31 31 32 31 27 24 21 21 21 23 21 23 20 22 21 23 25 25 28 30 29 29 28 27 26 24 26 26 25 25 24 22 20 19 17 16 16 16 16 13 12 7 8 10
31 34 27 28 25 25 26 29 31 32 30 30 29 28 25 23 21 22 22 17 18 19 23 22 21 22 21 22 23 25 25 25 24 23 22 23 21 20 20 21 20 18 18 17 16 15 14 15 14 12 9 6 9 8
31 29 25 23 19 18 17 26 22 27 23 25 25 23 24 24 25 24 17 17 18 21 22 23 23 23 21 22 22 22 24 22 20 19 19 18 18 18 17 18 18 16 15 15 16 14 13 13 10 7 6 6 3 -3
27 19 15 14 17 10 14 15 22 21 20 19 19 17 23 22 22 16 12 14 16 18 18 19 20 18 17 16 16 17 20 19 17 17 19 16 13 13 13 13 13 12 13 12 10 8 6 4 4 3 -1 -7 -9 -11
16 16 13 8 13 13 7 7 11 14 7 10 9 13 20 18 10 9 9 12 13 13 15 17 15 15 13 14 14 15 17 15 13 11 13 16 13 12 10 9 9 8 9 5 2 1 -0 -2 -5 -8 -5 -14 -6 -12
14 17 18 11 15 13 12 8 12 9 6 8 17 19 8 3 -2 2 10 11 11 13 12 13 13 12 11 12 10 10 12 14 11 8 9 9 10 11 8 5 4 5 5 -1 -5 -8 -8 -11 -16 -15 -17 -12 -10 -15
14 15 19 24 22 19 12 10 13 7 7 9 10 5 1 -6 -4 10 16 15 13 15 15 14 13 11 9 9 10 11 11 11 10 9 8 7 7 6 1 -4 -4 1 3 -7 -12 -13 -11 -14 -17 -17 -16 -23 -22 -20
23 22 9 10 10 14 6 2 3 5 7 17 6 -5 -8 -7 2 12 14 18 16 14 11 9 7 6 4 4 5 7 8 6 6 5 3 2 2 2 2 4 4 8 1 -3 -6 -9 -14 -10 -9 -11 -14 -14 -12 -19
16 16 13 5 6 9 12 6 6 14 15 13 -5 -1 2 6 7 9 12 13 13 10 7 6 5 -0 1 1 -1 -2 -1 -5 -10 -13 -16 -19 -15 -9 -5 -8 -7 -6 -6 -8 -3 4 2 -2 -5 -13 -14 -15 -9 -14
12 12 6 -2 2 7 9 7 5 2 10 6 7 6 5 6 9 12 10 7 5 2 -2 -3 -5 -4 -14 -13 -12 -7 -6 -12 -13 -14 -17 -16 -13 -13 -21 -21 -19 -17 -19 -20 -18 -13 -3 -11 -9 -13 -15 -16 -21 -22
8 7 4 3 6 10 10 3 6 1 -6 -5 -6 -7 -3 2 2 7 6 2 2 -2 -4 -10 -12 -18 -13 -15 -19 -18 -14 -9 -11 -11 -12 -14 -18 -19 -21 -22 -23 -25 -26 -25 -25 -24 -22 -22 -21 -18 -14 -14 -16 -15
2 -5 2 4 8 13 9 11 3 -1 -6 -9 -7 -12 -9 -11 -11 -3 1 -5 -7 -11 -10 -15 -13 -9 -12 -15 -17 -16 -11 -14 -17 -18 -16 -15 -14 -16 -19 -18 -22 -25 -24 -26 -27 -26 -24 -22 -23 -23 -21 -15 -13 -13
-3 -6 -7 -2 4 5 4 11 6 2 -1 -4 -3 -5 -8 -11 -12 -4 -1 -6 -10 -14 -15 -17 -16 -10 -7 -11 -15 -18 -17 -21 -19 -8 -7 -5 -12 -11 -19 -23 -25 -25 -24 -26 -25 -26 -25 -25 -24 -17 -14 -15 -15 -15

GFSWCAN_sfc_dewp_054.txt.gz
Dewpoint
45 45 45 45 45 45 45 44 44 43 43 43 43 43 43 43 44 43 42 45 43 39 40 44 42 38 37 36 32 35 38 40 37 33 32 32 27 33 31 32 33 32 30 25 25 21 23 30 27 24 27 34 34 34
43 43 43 43 43 43 44 43 43 43 43 43 43 43 43 44 44 43 40 47 47 41 41 43 43 43 42 39 38 39 36 39 39 37 34 31 29 29 31 29 33 31 33 31 31 31 33 34 30 34 34 34 35 36
42 43 43 43 43 43 43 43 43 43 43 43 43 43 44 44 44 42 41 42 44 40 40 40 39 45 46 44 45 39 41 44 43 43 38 36 31 33 29 30 32 33 35 32 32 35 37 39 38 38 38 38 39 39
41 42 42 42 43 42 42 42 42 41 41 42 42 42 43 43 43 43 42 43 43 39 33 37 47 45 48 47 46 46 44 47 45 43 37 35 32 38 32 34 34 35 36 35 34 37 38 38 36 37 36 37 36 35
42 42 42 42 42 42 42 42 42 41 41 42 42 42 43 43 43 42 43 44 44 38 35 36 42 45 47 50 49 49 48 45 41 37 34 35 38 37 34 34 32 36 35 34 32 38 36 36 36 37 36 35 35 34
42 42 42 42 42 42 42 42 42 43 43 43 42 44 43 44 44 42 38 44 47 44 36 33 42 42 46 51 51 49 49 45 43 38 34 38 41 39 33 31 36 37 38 39 35 39 37 37 36 36 35 34 34 33
43 42 42 42 42 42 43 43 43 43 43 43 43 43 43 43 43 40 37 41 46 45 38 31 33 40 49 50 48 48 45 44 43 39 34 37 38 39 27 30 34 39 38 38 37 36 35 35 34 34 34 33 33 31
43 43 42 42 42 42 42 43 41 42 43 43 43 43 44 44 43 38 42 44 46 43 41 30 33 38 47 43 42 46 42 41 42 39 35 34 37 31 33 35 37 36 36 36 36 36 36 34 33 32 32 31 30 29
43 43 43 43 42 42 43 42 43 45 45 45 45 44 44 42 38 38 46 45 45 40 34 32 33 32 42 41 40 41 42 35 40 35 37 37 33 33 34 35 36 36 36 34 34 34 33 32 31 31 31 30 29 28
43 43 43 44 44 44 44 45 45 45 45 43 41 39 34 38 45 47 45 41 40 39 41 34 37 34 42 36 35 35 35 35 34 36 39 32 33 34 35 36 37 35 34 34 32 31 31 31 31 30 29 29 29 28
44 44 44 44 44 44 44 44 44 45 43 40 38 36 41 46 43 40 34 35 35 33 36 36 37 36 41 36 34 33 33 34 32 34 35 33 34 35 36 36 36 35 35 35 34 33 33 32 30 28 28 29 29 29
44 44 44 43 43 43 44 44 43 42 41 42 43 45 45 43 37 33 32 32 33 31 34 35 37 38 37 41 35 34 33 32 31 36 33 31 33 36 36 36 36 36 35 34 34 33 32 31 29 29 28 28 27 25
43 43 43 43 43 43 43 44 44 44 45 44 42 36 38 33 31 26 27 30 31 33 34 35 34 35 36 38 33 32 29 30 34 32 31 31 35 36 36 36 36 37 35 34 33 33 32 31 31 30 28 26 24 23
43 43 44 44 43 43 44 44 44 44 43 36 33 28 30 29 29 29 31 32 32 32 33 34 33 33 33 33 31 31 32 32 28 27 23 32 34 35 34 34 33 32 32 31 31 31 30 29 27 26 25 22 21 20
44 44 43 43 44 44 44 44 45 43 38 32 32 27 28 31 32 32 32 33 33 34 33 33 33 34 32 31 30 30 29 26 24 19 30 33 33 33 33 32 31 31 31 30 29 27 26 26 23 20 19 19 20 20
43 42 42 46 46 46 45 43 41 39 33 32 30 29 30 30 29 31 31 32 34 33 33 33 31 31 30 30 27 27 24 23 27 30 32 32 32 31 31 31 32 31 30 29 28 27 25 23 21 19 19 18 19 18
42 39 42 45 44 43 43 40 36 31 30 29 28 29 30 30 28 30 30 30 34 33 32 31 29 27 31 27 25 28 24 28 30 31 32 32 31 31 30 30 29 29 28 27 26 24 22 22 20 18 16 16 16 16
37 39 43 44 42 41 39 38 32 30 28 30 27 28 27 27 26 27 29 31 32 32 31 26 29 23 21 21 22 27 29 30 31 31 31 31 31 31 31 29 29 28 27 27 26 25 24 23 20 18 18 16 16 15
37 38 41 43 40 36 32 32 33 27 28 29 28 28 28 26 27 28 29 30 31 30 28 24 18 16 17 23 22 26 29 30 28 28 29 31 31 30 30 29 29 27 26 26 25 24 23 21 19 19 19 19 18 16
37 37 38 38 37 31 29 30 33 29 28 29 28 24 23 22 23 24 24 25 24 24 19 17 16 18 19 21 24 28 30 31 28 25 24 25 27 26 26 25 24 23 22 21 21 21 19 17 15 15 16 16 15 13
33 33 33 33 30 31 30 30 31 31 31 28 29 27 25 23 18 17 17 20 17 19 16 18 18 20 23 23 24 24 24 24 23 25 23 20 23 23 22 22 22 20 18 18 16 16 16 15 15 14 13 11 11 11
30 32 26 27 25 25 25 28 30 32 29 29 28 28 25 19 18 18 18 14 15 16 19 19 19 20 19 19 20 22 23 22 22 20 20 20 18 17 17 18 17 15 15 15 14 13 13 13 13 12 11 10 11 9
29 27 23 22 17 16 16 26 20 25 18 21 23 20 20 19 22 20 14 14 15 18 20 19 21 20 19 19 19 20 21 19 17 17 16 15 15 14 13 13 14 13 11 12 13 11 10 10 9 7 7 7 6 3
25 18 14 13 15 8 12 14 21 19 17 16 16 15 20 16 18 12 9 11 15 16 16 17 18 16 15 14 13 13 16 17 15 15 16 12 10 9 10 9 9 9 9 8 7 5 4 2 2 2 -0 -3 -4 -6
17 17 12 8 12 11 5 6 9 12 10 12 11 15 14 14 8 7 5 10 12 11 13 15 13 13 11 12 12 12 13 11 10 8 11 13 11 9 7 6 5 5 6 2 0 -1 -2 -3 -5 -6 -4 -11 -5 -13
15 16 18 14 16 12 15 13 14 4 5 7 9 13 3 -1 -5 1 8 10 10 11 10 10 11 9 8 9 7 8 10 10 7 5 6 6 6 4 2 2 2 4 3 -4 -8 -10 -9 -12 -16 -15 -18 -14 -15 -21
16 13 16 20 20 16 8 6 10 4 1 2 4 -1 -6 -10 -7 8 13 13 11 10 9 8 8 7 7 7 8 8 7 7 6 5 4 4 3 4 0 -4 -4 1 3 -2 -8 -11 -12 -14 -17 -15 -18 -23 -25 -23
22 16 6 6 7 11 4 -1 0 2 7 14 1 -9 -12 -12 -1 9 12 14 11 9 7 6 4 3 3 3 4 3 4 2 0 -1 -1 -2 -2 -3 -5 -5 -5 2 -8 -11 -12 -12 -12 -12 -10 -12 -16 -16 -13 -16
12 10 10 2 3 6 7 2 3 9 10 7 -9 -6 -1 4 5 7 9 10 10 8 3 0 -1 -7 -4 -2 -4 -5 -5 -9 -12 -14 -18 -20 -18 -11 -12 -17 -18 -17 -19 -17 -8 -0 2 -2 -5 -10 -10 -12 -11 -13
7 9 4 -1 -1 2 -0 2 -5 -6 5 3 6 4 3 4 7 10 6 4 1 -8 -15 -16 -18 -14 -20 -17 -17 -11 -10 -19 -18 -16 -20 -20 -14 -11 -22 -24 -23 -23 -28 -29 -27 -20 -9 -20 -16 -21 -21 -19 -20 -19
5 4 5 3 4 1 -0 -7 -4 -6 -10 -8 -11 -11 -7 -2 -0 4 2 -2 -6 -13 -12 -15 -14 -22 -18 -20 -22 -22 -18 -16 -20 -19 -18 -18 -20 -22 -24 -24 -25 -29 -30 -29 -29 -30 -29 -28 -30 -30 -25 -21 -15 -12
-2 -8 -2 0 4 3 3 4 -10 -8 -11 -12 -10 -16 -14 -14 -15 -7 -3 -9 -14 -14 -16 -20 -19 -13 -17 -19 -23 -25 -17 -20 -20 -19 -18 -20 -22 -22 -23 -23 -28 -29 -29 -30 -30 -30 -29 -29 -32 -32 -30 -27 -24 -21
-9 -11 -10 -3 2 4 6 5 2 -2 -8 -9 -7 -9 -14 -14 -14 -8 -4 -13 -15 -17 -17 -20 -19 -17 -15 -18 -20 -22 -20 -24 -23 -9 -9 -11 -16 -16 -25 -28 -30 -30 -28 -30 -32 -32 -30 -29 -30 -30 -29 -30 -30 -28

GFSWCAN_sfc_dewp_057.txt.gz
Dewpoint
45 45 45 45 45 45 45 45 46 46 45 45 44 44 44 45 46 43 43 45 43 39 39 43 42 38 36 35 34 37 37 39 38 34 34 33 32 34 34 34 33 32 31 31 29 30 27 33 26 28 34 33 35 35
44 45 45 45 45 45 46 46 45 45 44 44 44 44 44 44 46 44 42 45 46 41 41 43 43 43 41 37 37 39 36 39 39 37 37 36 35 33 34 29 35 34 34 34 32 34 36 32 35 34 34 35 36 37
43 43 44 45 45 44 44 44 44 44 44 43 43 43 46 45 46 43 43 43 43 40 39 40 39 45 46 44 45 41 41 43 42 44 41 39 35 36 34 33 35 35 39 35 35 35 36 37 39 39 38 37 37 39
43 43 43 43 43 43 43 43 43 43 44 44 44 44 44 44 45 43 41 44 42 40 33 36 45 44 46 47 45 45 45 47 46 45 40 37 37 38 36 37 36 35 39 35 35 36 38 39 39 38 37 39 37 36
42 42 42 43 43 43 43 43 43 43 44 44 44 44 44 44 43 42 43 43 43 39 33 34 40 43 44 48 46 46 46 46 44 41 37 39 39 39 37 38 36 37 36 36 35 38 38 37 40 39 38 37 36 34
42 42 42 42 42 42 42 41 42 43 43 43 43 43 43 43 42 40 35 43 43 45 37 31 40 41 46 49 47 47 47 47 46 42 39 40 41 41 37 37 37 37 39 39 37 40 37 37 36 37 36 35 35 34
43 43 42 42 42 42 42 41 42 42 42 42 43 43 43 43 41 37 34 41 42 44 39 32 35 40 45 47 48 48 49 47 45 43 39 41 42 41 35 36 36 38 38 38 38 37 36 36 36 35 35 34 34 32
42 42 43 43 43 43 42 42 42 43 43 42 43 44 43 42 42 39 44 45 42 41 41 31 32 38 46 43 42 46 44 44 43 42 38 40 39 36 35 35 37 37 37 37 37 36 37 35 34 33 32 32 31 30
42 42 42 43 43 43 43 43 43 42 42 43 43 43 42 41 35 39 45 46 47 42 35 33 32 34 43 41 41 41 42 36 42 37 39 40 37 36 37 36 37 37 37 36 35 34 34 34 32 32 32 31 30 30
43 42 42 42 42 42 42 42 43 43 43 43 41 39 35 39 44 46 42 39 38 39 40 34 36 35 41 38 37 37 37 35 34 38 41 36 37 37 36 37 37 36 35 34 33 32 32 32 32 31 31 31 30 29
44 44 43 44 44 44 44 44 43 43 43 42 38 35 40 45 41 38 34 34 34 33 36 36 36 36 42 37 35 35 33 34 33 36 37 36 35 37 37 37 36 35 35 35 35 34 34 32 31 30 30 30 30 29
44 44 43 42 43 44 44 44 44 43 41 43 42 43 43 39 35 31 32 33 32 30 35 35 36 38 38 41 37 35 33 33 32 36 33 33 34 36 37 36 35 36 36 34 34 33 32 31 30 30 30 28 27 26
44 44 44 44 44 43 43 43 43 41 42 42 41 36 36 33 29 29 28 30 32 33 34 35 34 36 37 37 34 33 31 31 34 32 32 31 35 36 37 37 37 37 36 35 33 32 31 30 31 30 28 28 28 26
43 43 43 43 43 44 43 43 43 42 40 34 32 29 30 27 28 29 31 32 32 33 33 34 33 34 33 33 32 32 32 32 30 29 27 32 33 35 35 35 33 32 32 32 31 30 29 29 28 28 27 27 25 23
43 43 43 43 43 43 43 43 43 41 35 32 32 27 28 32 32 32 32 32 32 34 33 34 34 34 32 32 32 32 30 26 26 26 30 32 33 33 32 32 31 30 30 29 28 27 26 26 25 25 25 23 21 22
43 43 43 44 44 44 43 42 41 38 33 31 27 25 28 28 26 28 29 30 33 32 33 34 32 32 31 31 28 26 26 23 27 30 32 32 31 31 31 31 30 29 28 28 27 26 25 24 22 19 19 20 21 21
42 39 44 44 44 44 43 40 36 32 31 30 26 27 26 26 25 26 28 29 33 33 31 32 26 24 31 27 24 26 24 26 28 30 31 31 30 29 30 29 28 28 27 26 26 24 22 18 19 17 16 16 17 18
38 43 45 44 42 40 39 37 33 30 25 26 24 24 25 25 23 25 27 29 31 31 28 24 26 20 19 19 19 22 24 30 30 30 30 30 30 29 29 28 28 27 26 26 25 25 24 23 22 21 19 17 16 16
42 43 43 43 42 36 33 33 33 24 24 26 25 25 25 23 24 26 27 28 28 27 26 21 15 14 14 19 18 20 25 27 25 25 25 27 28 28 27 26 26 25 25 24 23 21 21 21 21 21 20 18 15 14
42 41 42 41 37 32 30 30 33 28 25 25 26 21 21 21 21 21 21 21 20 19 16 14 13 15 16 19 22 22 24 29 26 22 21 22 23 23 23 23 22 22 21 20 20 20 18 17 17 17 18 17 16 13
33 33 33 34 31 31 30 30 30 30 29 26 28 26 22 20 16 15 15 17 14 16 14 16 16 18 20 21 22 23 21 21 20 21 20 18 21 20 20 20 19 19 17 17 16 15 14 14 14 14 15 14 14 14
30 30 26 27 25 25 25 26 29 31 27 27 26 26 19 15 14 16 15 12 12 14 16 17 17 17 17 17 18 20 20 19 19 17 17 16 14 14 14 16 15 13 13 14 12 11 11 11 12 12 12 12 12 10
27 26 22 21 17 16 15 25 19 23 20 21 20 17 15 13 18 16 10 11 13 16 18 17 19 18 17 17 17 18 18 17 14 14 13 12 12 12 11 11 12 11 10 9 10 8 7 7 6 6 7 7 7 6
25 17 12 12 14 7 12 14 20 18 16 16 16 13 16 15 14 10 7 9 13 14 14 15 16 14 14 12 11 11 15 15 13 13 14 10 7 6 5 5 6 6 5 5 4 3 2 2 1 2 2 2 1 1
16 16 14 12 11 10 8 12 9 12 10 12 12 12 8 12 6 5 5 8 10 10 10 13 11 11 10 10 10 10 11 10 7 5 7 9 7 6 5 4 5 4 5 3 1 1 1 -1 -1 -1 -1 -2 -2 -2
12 14 16 17 15 11 14 13 10 4 6 4 8 7 3 0 -3 1 6 9 8 8 7 8 10 7 6 6 5 5 7 7 4 3 3 4 4 4 2 1 0 1 3 1 2 1 0 -1 -2 -2 -2 -2 -9 -6
12 9 14 17 18 13 6 5 8 4 1 3 4 -2 -5 -10 -6 6 11 10 7 7 7 7 8 7 6 5 4 4 4 4 3 2 2 1 1 1 0 -2 -3 -1 1 -2 -2 -2 -2 -3 -3 -4 -4 -3 -4 -7
18 12 4 4 6 9 1 -1 -1 1 5 10 -1 -9 -13 -10 -1 6 9 9 8 6 5 4 3 3 2 1 1 2 3 1 1 0 -1 -1 -2 -3 -6 -5 -6 -2 -7 -7 -3 -3 -1 -3 -3 -4 -4 -4 -6 -5
7 6 8 -3 -0 3 4 -2 1 5 7 3 -9 -6 -2 2 4 7 8 9 10 7 3 0 -2 -4 -2 -2 -4 -4 -4 -4 -5 -10 -10 -9 -8 -4 -6 -7 -7 -9 -10 -7 -5 2 1 -2 -3 -7 -10 -9 -9 -9
5 7 4 -4 -4 -1 -3 -3 -6 -6 3 3 4 2 1 2 5 7 6 5 3 -2 -7 -10 -12 -7 -9 -6 -7 -6 -7 -11 -9 -8 -8 -9 -7 -5 -9 -10 -9 -11 -14 -11 -10 -9 -7 -11 -9 -13 -13 -12 -10 -9
4 2 1 2 0 -3 -5 -10 -10 -9 -10 -7 -9 -9 -6 -1 2 3 1 -2 -5 -8 -6 -7 -8 -14 -8 -10 -10 -10 -8 -8 -15 -11 -10 -9 -10 -10 -10 -11 -12 -15 -15 -14 -14 -13 -12 -13 -15 -16 -15 -15 -16 -15
-3 -7 -1 -1 3 -1 1 -2 -12 -10 -13 -10 -10 -16 -12 -11 -13 -6 -4 -8 -6 -8 -13 -14 -11 -7 -12 -13 -17 -15 -17 -11 -10 -11 -11 -9 -7 -9 -10 -12 -16 -16 -14 -15 -16 -16 -16 -15 -16 -16 -17 -17 -17 -18
-11 -13 -10 -3 -1 -1 1 1 0 -4 -8 -9 -10 -11 -14 -11 -12 -7 -5 -12 -8 -9 -11 -11 -10 -13 -15 -15 -12 -12 -17 -13 -17 -11 -8 -8 -12 -12 -12 -13 -14 -15 -14 -14 -15 -16 -16 -16 -16 -17 -17 -19 -19 -19

GFSWCAN_sfc_dewp_060.txt.gz
Dewpoint
45 45 45 45 45 45 45 45 45 46 45 45 46 46 45 45 46 45 45 47 45 36 36 39 36 34 32 36 36 37 38 38 40 37 35 34 38 31 31 30 34 33 35 36 35 37 33 31 28 28 32 36 34 35
45 45 45 45 44 44 45 45 45 46 46 46 45 45 45 45 45 45 42 46 47 41 42 44 44 43 35 35 36 40 33 35 37 36 38 36 41 40 31 30 36 35 35 36 33 33 37 34 32 33 36 34 36 36
45 45 45 45 46 45 46 45 45 46 46 45 45 45 46 45 45 45 45 44 44 41 40 41 39 45 46 44 43 34 36 35 38 39 40 41 41 38 40 35 33 35 38 38 36 32 34 36 34 37 35 36 35 36
44 44 44 44 44 45 45 45 45 45 45 45 45 45 45 46 45 44 44 45 42 40 36 35 42 42 45 45 45 44 39 46 46 45 43 42 42 36 38 34 36 34 37 34 36 36 37 38 38 37 37 39 38 37
43 44 43 44 44 44 44 44 44 45 45 45 45 45 45 45 45 45 46 45 44 40 35 35 37 36 44 46 45 44 45 45 47 46 40 41 41 42 43 41 39 36 34 38 37 36 39 35 39 40 39 38 37 37
43 43 43 43 44 44 45 44 44 44 44 44 45 45 45 45 43 42 38 43 44 42 36 33 38 34 37 42 46 44 43 44 44 42 45 40 41 42 42 37 35 33 37 37 36 38 39 40 38 40 39 39 38 37
42 43 43 42 43 43 43 44 44 44 44 44 45 44 43 42 43 36 34 40 43 45 36 31 34 37 36 37 47 46 47 45 43 42 42 41 43 42 43 38 35 37 37 38 40 39 38 38 37 39 38 38 38 36
42 42 43 42 42 42 42 43 43 43 43 43 43 42 42 41 39 37 45 44 43 40 40 34 35 38 44 40 43 48 46 46 46 43 45 42 42 45 40 37 36 36 37 39 40 40 39 38 37 37 37 36 35 34
43 43 43 43 43 43 43 43 42 43 43 43 43 41 40 39 38 40 45 43 45 41 34 34 33 34 45 42 43 42 43 38 43 39 41 42 40 38 34 34 36 39 39 39 39 37 37 37 36 36 35 34 34 34
42 42 42 42 43 43 43 42 43 44 44 42 40 38 34 40 42 45 41 38 37 39 39 35 37 33 41 39 39 40 42 40 36 38 43 37 39 39 37 39 39 40 39 38 37 36 37 36 36 35 35 35 34 33
43 43 43 43 42 43 42 43 43 42 41 41 37 37 42 43 42 40 35 33 36 34 36 36 37 37 44 41 39 41 36 36 35 37 39 38 37 38 38 39 40 39 38 38 37 37 37 37 36 35 34 34 33 32
43 43 44 44 43 42 43 43 42 41 41 42 42 43 43 39 37 33 32 35 32 28 37 37 36 37 41 44 40 39 36 36 35 37 34 35 35 37 37 37 37 37 37 36 36 35 36 35 35 34 33 32 29 28
44 43 44 43 43 43 42 42 42 42 42 43 41 37 36 34 29 30 27 31 32 37 38 37 36 41 41 41 37 36 34 33 36 34 34 32 34 36 37 37 36 36 34 33 32 33 33 32 32 31 29 29 30 29
44 44 44 44 43 43 43 42 42 42 40 36 34 31 32 30 30 31 33 35 34 36 37 38 36 38 37 37 36 34 35 35 32 32 29 33 33 34 34 34 32 31 31 31 30 30 30 29 28 28 28 28 28 26
43 43 43 43 43 43 42 42 41 41 37 32 31 26 29 32 31 30 33 34 34 35 36 35 36 38 34 34 35 34 32 29 29 27 30 32 33 33 31 30 29 29 28 28 28 27 28 28 27 27 27 27 26 25
43 42 41 43 44 43 42 41 40 38 35 30 25 23 27 27 26 27 28 28 33 33 35 35 33 34 32 34 31 28 29 23 25 28 30 32 30 30 29 28 28 28 28 28 28 28 27 26 25 24 24 24 25 25
42 41 43 43 43 42 41 39 37 34 30 28 25 26 25 25 24 26 28 27 32 32 32 33 28 27 33 27 24 25 23 26 29 29 30 30 29 29 29 29 28 28 28 27 26 25 24 22 21 21 21 22 21 21
40 43 44 43 42 40 39 37 33 28 24 25 23 24 24 24 23 24 27 28 32 31 28 24 26 20 19 19 19 21 24 28 27 27 29 29 29 29 29 28 28 28 26 26 26 26 26 24 22 21 21 20 18 17
43 44 43 42 41 38 35 35 31 23 25 25 25 25 26 23 24 25 26 27 26 26 24 19 15 14 15 18 18 21 25 27 24 24 24 26 27 26 26 26 25 24 24 24 23 22 22 23 22 21 21 20 18 18
43 43 41 40 39 34 31 32 32 25 23 26 27 21 20 20 20 23 23 21 18 16 14 13 13 16 16 19 22 23 26 28 25 21 21 22 23 23 23 23 22 22 21 20 20 21 19 18 18 18 19 19 19 18
37 36 34 35 34 33 31 30 29 28 28 25 27 21 19 20 20 18 17 16 16 14 13 16 17 18 20 20 22 22 21 21 21 21 19 17 20 19 19 19 19 19 18 17 16 16 16 16 16 17 19 18 18 17
32 30 33 31 30 29 28 29 30 32 29 29 26 21 21 19 18 17 14 13 11 14 17 17 16 17 16 17 18 20 20 19 18 17 17 16 14 15 15 17 15 16 15 15 14 13 12 11 13 14 14 15 13 12
30 30 30 29 27 29 24 28 27 25 25 25 24 18 18 18 16 13 12 10 13 17 18 18 18 18 16 17 17 17 18 16 15 14 13 13 13 13 12 12 13 12 10 9 9 8 8 6 7 10 10 10 10 10
27 24 22 22 24 21 25 23 22 22 23 22 19 17 16 17 15 12 8 10 13 14 14 16 17 16 14 12 11 12 14 14 12 13 13 10 7 6 6 6 7 7 7 6 7 8 7 8 6 7 7 7 6 6
22 20 23 20 23 20 19 19 18 19 18 19 16 15 14 16 11 9 7 10 12 12 13 15 13 13 12 12 11 10 10 8 6 5 7 9 9 7 5 5 5 5 7 8 7 7 6 7 6 5 5 4 2 2
16 19 19 20 19 18 18 16 15 15 16 14 14 12 15 11 6 5 7 12 12 11 12 14 13 10 7 6 5 5 6 7 5 4 4 5 6 8 6 5 5 3 5 7 7 6 4 4 3 2 3 1 -1 1
15 17 18 16 18 16 16 16 15 14 11 11 12 9 9 3 3 6 11 11 10 11 11 12 10 8 7 5 4 5 5 5 4 2 2 2 2 3 5 3 1 2 3 3 4 3 3 2 1 1 1 2 2 1
18 17 12 14 13 13 11 11 10 9 10 10 9 3 1 1 3 9 10 11 11 10 8 7 7 7 7 6 7 8 7 5 5 5 4 3 3 3 2 3 1 0 1 2 3 3 1 1 -0 -1 -2 -2 -1 0
16 17 14 6 10 9 8 8 8 8 8 9 6 3 2 3 8 10 11 12 13 10 7 6 6 7 6 5 5 4 5 7 -3 -3 -2 0 2 1 2 2 2 1 2 2 0 1 0 -0 -2 -3 -4 -2 -1 0
15 16 12 7 5 6 8 7 8 8 7 8 6 3 3 5 8 11 12 11 10 9 7 7 7 8 5 6 4 2 3 3 2 3 1 -0 0 1 1 1 1 0 1 1 -0 -1 -2 -2 -3 -2 -4 -3 -3 -4
14 17 13 11 8 9 9 9 9 8 8 6 7 5 3 5 8 8 7 7 6 5 7 6 4 5 5 3 4 2 1 2 -2 -1 0 1 1 1 0 -1 0 -0 -0 -1 -2 -3 -4 -3 -4 -5 -6 -7 -8 -8
14 11 11 8 7 9 9 12 11 9 9 9 6 6 4 5 3 6 7 8 7 7 2 5 6 5 2 2 1 1 -8 1 1 0 -4 1 1 0 0 -1 -2 -1 -2 -3 -4 -4 -6 -6 -6 -7 -7 -8 -9 -10
11 12 12 10 8 7 10 11 8 7 8 7 6 5 6 5 1 5 4 5 7 7 6 6 6 4 1 -1 0 1 -3 1 -8 -8 -5 -4 -5 -3 -1 0 -1 -3 -5 -4 -4 -5 -8 -8 -7 -9 -9 -10 -10 -11

GFSWCAN_sfc_dewp_066.txt.gz
Dewpoint
45 45 44 44 45 45 46 46 46 46 46 45 45 45 45 46 46 44 45 47 46 40 38 38 36 33 30 31 30 32 34 40 39 37 36 32 35 28 23 23 34 34 34 35 35 32 30 34 30 28 34 40 37 36
45 45 46 45 46 46 46 47 47 46 45 46 46 45 45 46 46 45 43 47 50 44 41 43 45 43 36 31 33 34 34 39 34 34 35 35 41 41 28 23 29 34 35 35 34 35 40 39 38 40 41 43 42 41
45 45 46 45 46 46 45 45 45 44 45 46 46 45 45 46 46 46 44 47 47 43 43 43 41 42 41 38 41 37 37 39 39 40 36 37 37 34 37 33 28 37 41 40 41 35 34 39 39 40 39 41 39 38
44 44 46 45 46 45 45 45 45 45 45 46 45 45 46 45 45 47 45 47 43 43 37 38 40 40 42 40 40 41 42 43 44 42 42 43 39 36 38 33 31 30 36 37 38 38 38 36 37 41 41 42 40 39
44 44 45 45 46 46 46 45 45 45 45 45 46 46 46 46 47 47 47 47 49 42 35 38 38 36 38 41 40 42 43 44 44 43 45 39 37 38 37 35 34 28 27 34 36 36 41 40 43 43 42 41 41 40
44 44 44 45 45 46 45 46 46 45 46 46 46 46 45 45 46 45 40 46 48 48 39 35 39 38 38 39 38 41 42 44 46 41 42 38 36 35 42 32 28 29 26 26 30 36 38 41 41 42 40 41 41 42
44 44 44 44 45 45 44 45 45 45 45 45 46 46 44 45 46 42 38 41 46 47 34 33 32 35 38 38 40 39 43 44 45 43 41 37 36 35 38 35 28 28 26 28 33 35 37 38 40 41 41 40 42 40
43 44 44 44 44 44 44 44 45 45 44 45 45 44 44 45 45 40 42 43 44 35 33 31 31 36 39 36 37 40 41 42 42 41 41 40 39 43 38 32 33 33 31 31 33 35 38 42 41 39 39 39 39 39
43 43 44 43 44 44 44 43 44 44 44 44 44 45 44 43 39 37 42 43 47 41 32 36 31 32 39 35 39 43 43 38 40 41 39 41 39 36 36 33 35 39 38 39 40 38 39 39 39 39 38 38 38 39
42 43 43 43 43 43 43 42 41 42 43 43 41 35 37 39 43 43 40 35 33 33 35 34 33 34 39 38 39 39 41 37 34 36 38 38 37 36 37 38 39 40 40 40 40 40 40 40 40 39 37 39 38 38
43 42 43 43 43 42 41 41 41 41 41 42 38 37 41 44 42 37 34 32 32 31 32 32 34 34 39 35 34 37 33 36 34 36 37 35 35 35 37 37 37 38 39 39 39 39 39 39 39 39 36 33 33 32
43 43 43 41 41 41 42 42 43 43 41 42 38 38 41 37 35 33 32 33 28 26 34 35 36 37 36 39 36 37 34 35 33 41 37 32 32 34 34 35 34 35 35 35 36 36 35 34 33 32 31 29 28 27
43 43 42 42 42 41 42 42 42 43 44 42 36 35 35 35 30 27 24 27 32 36 38 39 35 37 38 37 35 35 33 33 37 34 28 28 31 33 32 32 30 30 30 30 30 30 30 30 29 28 27 27 26 26
42 42 42 43 43 43 42 42 42 41 41 36 35 29 31 29 29 28 28 29 32 34 36 40 38 37 37 34 33 32 33 32 32 30 26 28 30 30 29 30 28 28 28 28 28 28 28 28 28 28 28 27 25 25
42 43 42 42 42 42 41 41 42 37 34 31 30 24 26 30 30 29 30 31 31 31 34 38 36 37 33 32 32 32 32 26 25 25 27 29 30 29 28 29 29 29 29 28 29 28 28 28 26 26 27 26 24 24
43 41 40 42 41 41 41 40 37 35 34 26 23 24 25 27 25 26 27 27 30 29 31 36 33 33 32 33 29 25 25 19 23 26 29 30 29 30 30 30 30 30 29 28 28 28 27 26 25 25 26 26 25 25
43 39 42 42 41 39 39 37 33 28 26 26 26 26 25 25 23 26 27 27 30 29 32 33 27 26 32 25 19 22 21 24 25 26 27 29 28 28 29 29 29 29 28 28 27 27 26 26 24 22 22 23 23 23
41 42 42 42 42 40 35 33 29 25 22 24 23 25 25 25 24 25 28 28 30 30 27 23 24 19 17 17 16 21 26 25 25 25 26 26 26 27 28 27 28 27 27 26 26 26 26 25 23 23 23 23 23 22
43 42 42 42 41 37 33 33 29 23 25 26 25 25 25 25 25 26 27 27 28 27 24 20 16 14 15 18 19 22 26 24 22 22 22 24 25 25 25 25 25 24 24 24 23 22 23 24 24 24 23 21 21 23
42 41 41 39 38 34 30 32 32 26 24 25 27 24 23 23 24 24 22 23 20 17 15 12 13 15 16 19 22 21 26 26 23 20 19 21 22 22 23 23 22 22 21 21 22 21 20 19 19 18 18 18 17 17
40 40 38 36 34 33 33 30 27 27 28 28 27 23 23 23 19 18 18 17 17 15 14 17 17 19 21 21 22 22 21 22 21 20 19 17 20 20 19 20 20 19 17 17 17 17 17 17 17 17 16 15 16 18
38 34 37 37 32 31 32 34 30 33 28 26 24 23 23 22 21 20 16 16 15 16 17 17 18 17 16 18 20 21 21 20 19 18 18 17 16 16 16 17 16 15 15 15 13 12 13 13 14 15 17 16 13 12
32 34 36 35 32 32 29 31 29 26 25 24 23 20 20 20 18 16 14 12 16 21 19 18 19 21 19 20 19 19 20 18 16 16 16 16 16 16 16 15 14 14 12 11 11 12 12 10 12 13 13 13 12 12
32 32 30 29 30 26 31 26 24 23 23 21 18 17 17 19 17 14 11 14 17 17 17 23 22 18 16 15 14 16 18 18 16 16 15 12 9 8 9 10 12 13 11 10 11 12 11 12 10 9 8 8 8 8
25 22 27 23 28 25 22 22 22 19 19 18 16 17 17 19 15 13 11 15 15 18 18 17 17 17 14 14 14 14 13 13 12 9 13 15 12 9 6 5 6 7 12 13 10 10 9 10 9 8 5 4 4 4
19 20 20 21 21 21 20 18 18 18 17 17 17 17 21 16 11 11 12 15 15 16 19 19 16 12 10 10 9 8 9 10 7 5 5 7 9 11 9 8 5 5 8 11 10 7 5 6 6 5 5 3 0 3
18 19 19 20 21 20 21 21 19 18 16 16 17 16 15 9 8 10 12 16 13 16 15 15 11 9 8 8 8 8 7 7 6 4 5 5 5 5 7 5 3 5 7 7 7 6 5 4 3 3 4 3 3 3
18 19 16 18 16 17 15 15 14 13 13 14 15 10 9 10 9 15 13 15 15 13 11 11 11 11 10 10 12 12 11 10 9 9 7 6 6 8 7 6 4 5 5 5 6 5 5 3 3 2 1 2 3 4
19 18 14 11 13 12 12 13 12 10 11 15 13 9 7 10 16 13 14 15 16 14 12 12 13 14 12 10 10 10 11 12 6 3 3 6 6 5 6 7 6 6 7 7 6 5 2 3 1 1 2 2 3 5
18 20 13 11 11 9 12 14 12 16 12 11 8 7 8 10 14 17 16 17 16 15 15 14 15 15 13 12 7 7 7 7 7 8 6 4 3 5 6 5 5 5 6 5 4 3 4 3 4 4 1 2 1 -2
21 19 14 12 10 13 14 16 17 15 15 15 16 11 8 9 12 14 14 14 14 14 13 12 12 12 10 8 9 7 6 5 3 3 5 5 6 5 4 4 4 5 5 3 2 2 -1 1 2 0 -1 -2 -2 -4
20 17 13 10 11 14 17 20 17 14 16 14 11 11 11 12 9 11 13 14 13 14 9 12 10 9 8 7 6 5 3 5 4 3 3 5 5 4 4 3 4 4 2 1 1 1 -0 -2 -1 -1 -2 -2 -3 -4
18 18 16 14 12 12 14 16 11 11 13 12 12 13 13 13 9 11 11 14 15 15 12 13 10 9 6 6 6 5 3 5 1 4 1 1 -3 -1 0 5 4 3 1 1 1 1 -1 -2 -3 -3 -4 -4 -4 -5

GFSWCAN_sfc_dewp_072.txt.gz
Dewpoint
44 45 45 45 46 46 46 46 46 46 46 45 46 45 45 45 46 45 43 44 40 35 38 33 35 32 31 31 29 30 30 32 33 26 26 28 25 29 30 31 32 30 30 29 29 26 25 36 34 30 34 35 35 34
44 45 45 46 46 46 46 46 45 46 46 45 46 46 45 46 46 45 41 44 44 40 40 42 38 37 33 32 33 33 30 32 34 31 33 31 26 26 28 25 34 29 31 30 30 30 36 42 42 42 42 39 38 38
45 45 46 46 46 46 46 45 46 46 46 45 46 46 46 46 46 45 42 43 42 38 40 39 39 43 43 43 41 33 34 38 38 40 37 36 29 30 23 26 26 33 37 34 33 36 39 41 42 45 44 41 41 41
45 46 46 46 46 45 45 45 46 46 46 46 46 46 46 46 46 44 42 43 42 38 33 36 44 42 46 44 43 41 39 42 41 40 35 34 33 37 28 28 27 28 36 34 35 38 40 41 43 43 44 44 40 40
45 46 46 46 46 46 46 46 46 46 45 46 46 46 46 46 46 44 44 45 45 39 34 37 40 43 45 45 44 44 42 41 39 35 33 33 37 36 36 34 31 36 37 34 33 38 37 38 41 44 42 36 40 42
45 45 46 46 45 45 46 45 45 46 46 46 46 46 46 46 45 44 39 44 47 47 36 31 40 40 43 44 43 43 43 42 42 38 34 38 41 39 34 26 29 32 31 36 29 32 38 38 38 39 35 38 41 41
45 45 46 45 45 45 46 45 45 45 45 45 46 46 45 45 45 40 37 43 47 46 38 34 33 40 42 43 41 42 43 40 39 39 35 37 39 39 34 31 37 38 40 40 41 35 37 39 39 41 40 40 41 40
45 45 45 45 45 45 45 46 45 46 46 46 45 45 45 46 46 43 44 45 46 42 38 30 34 35 38 36 36 40 37 37 37 37 37 37 39 38 33 37 36 36 37 38 39 41 35 41 40 39 40 39 39 37
44 44 44 44 44 45 45 45 44 45 46 46 45 46 44 43 40 42 46 46 46 39 29 29 26 31 39 37 35 36 36 28 35 30 34 37 36 31 33 34 35 36 35 35 39 40 40 39 38 39 39 38 34 30
43 43 43 43 43 43 44 45 44 45 45 44 43 39 36 41 44 44 41 37 36 35 35 28 33 32 37 35 34 31 30 27 27 31 37 33 30 33 33 34 33 34 35 35 37 36 36 37 35 34 32 30 28 26
43 43 43 43 43 43 43 43 43 44 44 39 38 36 40 43 40 35 30 29 30 27 31 31 34 33 35 32 33 34 31 31 22 28 30 31 26 28 30 31 31 32 33 33 33 33 31 32 31 28 27 26 25 24
43 43 43 43 43 43 43 43 43 41 39 38 37 40 39 35 30 25 24 27 28 29 32 31 33 33 30 37 33 33 31 31 24 32 26 22 24 27 27 28 28 30 30 29 29 29 29 28 27 26 25 24 24 23
42 42 43 42 43 43 42 43 44 43 43 40 36 31 30 26 19 18 19 24 27 30 31 33 28 28 32 34 31 32 30 30 34 26 20 21 25 26 27 26 26 27 27 25 25 25 25 25 25 24 23 23 23 22
42 42 41 42 42 42 41 40 40 38 36 30 25 18 19 17 20 21 23 25 29 29 28 31 30 31 31 30 31 30 31 28 22 15 15 22 25 27 27 27 25 24 24 23 23 23 22 22 22 22 22 23 22 21
41 42 41 42 42 42 40 38 38 33 28 23 22 16 17 22 21 26 27 27 29 29 29 32 33 34 32 31 28 26 21 15 17 15 21 24 26 26 25 25 24 24 23 23 23 22 22 22 22 21 22 23 22 21
43 40 40 42 42 40 40 36 32 32 26 19 19 14 18 13 11 16 24 24 28 27 29 31 31 28 25 21 17 17 15 12 15 19 22 25 24 24 24 24 24 24 23 23 22 22 22 21 21 21 21 21 21 21
41 37 42 42 42 39 39 32 28 24 22 20 16 14 10 6 8 15 23 24 28 26 26 28 18 19 26 19 15 18 12 15 19 20 21 22 23 24 24 24 24 24 23 23 23 23 22 23 22 20 18 20 20 20
38 40 42 42 41 37 34 30 25 23 19 20 14 19 17 15 15 17 23 23 23 24 23 19 20 12 9 10 10 17 17 19 20 19 20 21 21 21 22 20 21 21 20 20 21 21 21 21 20 19 19 19 18 18
40 40 41 41 40 33 28 29 27 20 22 22 21 20 19 20 21 21 22 22 22 21 19 14 7 8 8 13 13 17 18 18 16 16 17 18 19 19 19 19 19 18 18 18 17 16 17 18 18 18 19 18 16 15
41 41 40 40 38 31 28 28 30 24 22 22 22 17 16 17 18 18 17 18 16 15 10 7 8 11 12 15 16 20 19 19 16 13 13 15 17 16 15 16 16 17 16 17 16 16 15 14 14 15 14 13 12 10
39 38 38 37 35 33 30 28 28 26 24 25 24 24 17 18 13 13 13 14 12 13 9 12 13 16 17 17 18 17 16 16 15 14 13 12 15 15 15 15 15 14 13 13 12 13 12 11 11 11 11 9 9 8
34 37 33 33 29 28 27 30 28 28 25 23 23 23 14 8 8 13 14 11 12 13 15 14 15 15 14 14 15 17 16 16 16 15 16 15 13 13 13 14 12 11 12 11 11 9 10 11 11 9 6 6 6 5
34 33 29 26 22 21 21 28 22 26 20 20 19 15 14 10 15 16 8 13 15 16 14 14 14 15 15 16 16 16 16 14 13 12 13 13 13 14 13 13 13 11 10 10 9 7 6 5 5 5 5 4 2 -0
30 25 21 19 21 15 18 17 24 21 17 15 13 10 15 14 14 7 7 12 16 19 16 14 13 12 12 12 11 12 15 15 14 13 13 11 9 9 9 9 11 10 9 9 8 4 2 -2 -1 -0 -4 -5 -7 -8
15 15 15 10 17 14 9 8 11 12 5 9 6 7 12 14 3 4 4 10 12 11 12 15 14 12 10 9 11 12 13 12 9 7 10 10 8 7 6 6 7 8 8 3 -0 -1 -8 -7 -7 -8 -9 -11 -6 -14
9 15 13 17 12 14 15 8 6 6 6 7 9 12 6 0 -5 -1 8 6 5 9 8 7 10 9 9 10 8 8 8 9 7 5 5 6 9 4 -0 -1 -1 3 4 -6 -7 -9 -9 -11 -12 -11 -14 -14 -16 -13
6 6 18 19 20 18 12 12 13 8 4 4 5 -1 -3 -10 -9 5 12 11 10 12 15 15 12 9 7 6 7 8 8 8 6 4 4 4 4 3 -2 -7 -7 -1 -1 -5 -12 -13 -13 -17 -19 -19 -20 -22 -22 -21
14 12 4 5 6 10 -3 -3 -5 -5 -2 11 4 -7 -10 -8 -1 8 9 10 8 13 12 12 11 11 10 10 10 8 6 6 6 6 5 4 2 -4 -6 -7 -5 1 -13 -15 -15 -16 -16 -18 -19 -20 -17 -13 -15 -14
7 10 7 -5 -1 2 5 -1 1 7 10 8 -8 -4 -0 10 8 7 8 8 11 12 9 8 5 5 4 2 -0 0 -2 -3 -5 -8 -14 -16 -16 -6 -10 -14 -11 -8 -10 -12 -1 -10 -13 -16 -16 -17 -18 -18 -20 -24
8 11 1 -6 -5 -1 0 4 1 -3 7 4 7 8 7 6 10 12 11 13 10 7 3 6 8 2 -8 -10 -16 -12 -13 -19 -17 -9 -13 -17 -12 -9 -16 -15 -15 -16 -18 -18 -17 -14 -4 -12 -6 -12 -17 -21 -24 -24
14 7 2 0 -4 -4 -2 -7 -3 2 -3 -6 -9 -7 -4 -1 2 5 5 3 2 1 1 -4 -8 -15 -8 -13 -17 -20 -16 -14 -18 -12 -10 -14 -19 -20 -19 -18 -19 -16 -19 -21 -21 -21 -22 -23 -23 -22 -22 -22 -23 -24
5 -5 -3 -5 0 3 5 4 -0 -5 -8 -10 -11 -14 -8 -9 -10 -6 0 -4 1 -1 -5 -10 -8 -11 -16 -19 -21 -20 -13 -15 -17 -13 -14 -19 -21 -21 -17 -11 -13 -18 -20 -21 -19 -18 -18 -20 -23 -24 -22 -22 -25 -25
-0 -1 -6 -5 -2 -1 1 3 -3 -0 -1 -4 -3 -4 -5 -4 -8 -3 1 1 -3 -4 -6 -12 -16 -17 -14 -13 -12 -16 -14 -17 -17 -3 -9 -10 -16 -14 -23 -23 -23 -22 -20 -22 -23 -21 -17 -16 -17 -20 -22 -25 -26 -27

GFSWCAN_sfc_dewp_075.txt.gz
Dewpoint
44 44 45 45 45 45 46 46 46 46 46 46 46 46 46 46 45 44 42 45 39 35 36 37 35 33 32 31 28 30 31 31 32 27 28 26 23 28 25 29 30 29 30 26 30 28 27 36 37 31 35 37 38 38
44 45 45 46 46 46 46 46 46 46 46 46 46 46 46 46 46 45 40 44 44 39 39 43 38 35 32 32 30 32 30 32 33 29 30 28 25 24 27 24 31 28 31 29 31 30 35 40 39 42 42 39 39 41
44 45 46 46 46 46 46 45 46 45 45 45 45 46 46 46 46 45 42 43 42 39 37 37 39 38 35 34 36 33 34 37 37 37 35 33 26 29 23 25 23 28 36 34 35 35 39 40 42 44 44 42 40 39
45 45 45 46 46 46 46 46 46 46 45 45 46 46 45 46 46 45 41 43 40 38 32 36 44 42 44 40 38 38 38 42 40 40 34 31 28 34 27 27 27 27 34 35 35 37 39 39 40 39 42 44 40 39
45 45 45 46 46 46 46 46 46 46 46 46 46 46 46 45 46 44 44 43 42 37 30 36 42 43 46 45 43 43 41 41 40 35 33 30 34 34 34 34 31 34 34 33 27 32 37 34 37 41 42 42 38 40
46 45 45 46 46 45 45 45 45 45 46 46 46 46 45 46 45 42 38 43 43 44 35 32 41 41 43 44 43 43 43 42 40 36 33 36 40 34 27 28 36 37 37 38 38 39 37 38 38 41 40 36 40 40
45 45 45 46 46 46 45 45 45 45 46 46 45 45 46 44 43 39 36 41 44 43 34 33 35 40 42 42 40 41 42 42 41 38 35 36 37 36 31 28 35 36 36 37 39 39 35 39 38 41 42 41 39 35
43 43 44 45 45 45 45 45 46 46 45 45 46 45 45 44 44 42 44 46 45 40 39 32 33 36 39 36 35 40 37 38 39 38 35 37 37 37 33 33 34 35 35 36 35 36 40 40 40 41 41 39 33 31
43 43 43 44 44 44 44 44 45 45 45 45 45 45 43 42 40 43 46 46 46 41 29 29 28 31 37 35 37 36 35 27 33 32 33 33 34 29 29 31 32 32 33 34 34 38 38 37 36 35 35 33 29 28
43 43 43 44 44 44 44 44 44 45 45 45 43 38 33 41 46 46 43 37 36 34 33 28 32 33 35 35 33 33 31 28 27 31 35 31 29 29 29 30 30 31 33 34 33 33 32 34 31 29 28 28 26 24
43 43 43 43 44 43 43 44 43 44 43 39 37 34 41 44 40 34 29 28 28 26 30 30 32 32 36 31 32 31 26 30 23 28 29 29 22 25 27 28 29 30 32 32 33 31 30 30 28 27 25 24 23 22
42 42 42 42 42 42 44 43 43 41 39 37 38 39 37 31 26 23 21 26 29 28 32 31 32 32 32 37 33 33 30 31 22 32 27 19 22 26 25 26 26 28 28 27 29 27 27 26 26 25 23 22 22 22
42 42 42 42 42 40 40 41 43 43 42 37 32 27 26 22 15 19 18 24 24 28 29 31 31 29 31 34 32 32 30 29 32 23 18 20 23 25 25 25 23 25 24 24 24 24 23 23 23 22 21 22 21 21
42 42 42 42 42 39 39 38 38 35 32 27 22 13 15 12 18 19 21 22 28 28 27 30 31 30 31 30 31 29 28 26 19 14 14 21 23 24 25 25 22 22 22 22 22 22 21 21 21 21 21 21 20 18
43 41 41 42 41 41 37 37 35 31 26 21 19 13 16 20 20 22 26 27 27 29 28 31 32 31 30 26 23 21 14 11 15 13 19 22 24 24 23 22 21 21 21 21 21 21 20 20 20 20 21 21 20 19
42 40 39 42 40 39 36 32 30 30 24 20 18 15 16 14 16 19 21 22 26 26 29 31 29 22 17 16 13 13 12 10 12 17 21 23 22 22 22 22 22 22 22 21 21 21 20 19 19 19 20 19 18 17
39 36 41 42 41 36 35 29 26 23 21 17 14 14 8 11 11 17 21 20 24 25 21 24 16 15 23 16 13 15 8 13 16 17 19 20 19 19 20 20 21 22 22 22 21 21 20 21 20 18 16 18 18 17
37 38 41 42 39 34 32 28 24 21 17 18 11 16 14 12 15 17 20 21 22 23 19 15 16 10 8 7 6 14 15 15 15 15 15 17 18 18 19 18 18 18 18 19 19 20 20 19 17 17 17 17 16 15
40 39 40 41 36 30 27 27 25 17 18 19 18 18 17 16 19 19 19 19 19 18 17 13 6 6 6 11 11 14 14 15 13 14 14 15 16 17 17 17 17 17 17 17 16 15 16 16 17 17 16 15 12 12
40 39 40 39 37 29 26 27 27 22 19 18 19 15 15 16 17 17 16 16 13 13 9 7 6 9 10 11 13 14 15 15 14 12 12 14 15 15 15 16 15 16 16 15 14 15 14 12 12 12 11 9 7 6
36 35 37 35 32 31 29 26 25 24 22 22 20 19 15 15 12 12 12 13 11 10 8 11 10 13 15 16 17 16 16 16 14 14 12 11 14 14 14 14 14 13 12 12 11 11 11 10 10 9 7 5 4 4
32 37 31 30 27 27 26 28 27 26 24 23 22 21 13 6 5 11 13 9 9 10 11 11 13 13 13 13 14 15 16 15 15 14 15 14 11 11 12 12 12 10 10 10 9 8 9 8 8 6 4 3 2 1
32 31 27 25 21 20 21 27 21 25 15 16 17 14 11 8 15 13 10 12 13 15 15 14 13 15 14 15 15 15 15 13 11 11 11 11 12 12 12 12 12 9 8 7 7 6 6 5 4 2 1 -1 -4 -7
27 22 19 18 19 13 17 16 22 18 15 14 12 8 12 8 11 5 5 9 15 16 14 14 13 12 11 10 10 11 13 14 12 12 13 10 8 8 8 9 9 9 8 5 4 1 0 -4 -3 -3 -7 -10 -18 -15
16 15 14 10 16 12 7 6 9 11 5 8 6 10 10 12 3 1 -0 7 8 6 10 13 12 10 8 8 10 10 13 12 9 7 10 9 8 7 6 6 5 6 6 0 -5 -8 -13 -12 -12 -13 -14 -15 -11 -20
9 12 12 11 9 11 10 5 3 3 4 3 6 7 1 -4 -8 -3 5 3 2 6 4 6 9 9 8 9 8 7 8 10 8 5 5 7 6 3 1 -1 -2 1 1 -8 -8 -14 -16 -18 -15 -14 -19 -15 -17 -21
4 4 16 14 17 15 6 7 9 2 -3 -3 -2 -6 -8 -14 -14 3 10 10 9 10 15 13 11 9 7 6 7 8 7 6 5 3 4 3 3 3 -2 -6 -6 -1 -1 -10 -13 -11 -13 -21 -23 -23 -23 -26 -27 -24
10 10 2 1 3 7 -5 -6 -8 -8 -3 9 -1 -11 -14 -12 -3 5 7 10 11 13 12 12 11 10 8 8 7 6 4 4 3 2 2 1 -0 -5 -9 -10 -8 -1 -17 -20 -21 -21 -19 -18 -21 -23 -21 -19 -21 -25
4 7 4 -6 -2 2 3 -4 -2 5 9 3 -11 -9 -2 8 4 4 8 6 10 11 7 5 3 3 1 -0 -3 -2 -6 -9 -10 -14 -18 -19 -19 -9 -14 -17 -17 -16 -20 -15 -4 -12 -14 -18 -18 -18 -20 -23 -25 -31
6 8 -1 -6 -4 -1 -3 -0 -5 -9 5 2 6 7 5 4 6 7 5 6 2 -1 0 2 0 -5 -11 -11 -16 -11 -13 -18 -13 -8 -14 -19 -14 -14 -18 -19 -16 -19 -23 -22 -19 -17 -6 -15 -6 -16 -20 -23 -27 -26
10 3 -0 -0 -1 -1 -3 -11 -11 -6 -10 -9 -13 -10 -5 -2 3 5 6 5 4 1 2 -2 -8 -15 -15 -21 -22 -21 -17 -16 -22 -19 -17 -19 -22 -22 -23 -23 -23 -25 -25 -23 -24 -24 -26 -26 -26 -25 -23 -23 -25 -28
-1 -6 -2 -4 -0 1 1 -3 -13 -12 -16 -13 -13 -19 -12 -12 -13 -5 0 -3 -3 -7 -11 -17 -14 -12 -20 -23 -26 -24 -17 -16 -18 -18 -17 -21 -23 -24 -23 -21 -23 -25 -25 -25 -24 -24 -22 -23 -26 -27 -26 -25 -28 -29
-2 -6 -8 -6 -4 -4 -2 -2 -5 -5 -9 -11 -8 -11 -12 -10 -12 -5 -1 -8 -7 -6 -8 -9 -16 -20 -19 -18 -17 -21 -19 -22 -21 -6 -13 -14 -20 -18 -25 -27 -26 -24 -22 -25 -26 -24 -21 -20 -22 -23 -24 -26 -28 -30

GFSWCAN_sfc_dewp_078.txt.gz
Dewpoint
44 44 44 45 45 45 46 46 46 45 46 46 45 45 45 45 45 44 42 43 39 35 38 38 36 34 32 30 28 31 32 31 32 29 29 28 23 26 25 26 30 30 29 29 32 30 27 36 37 34 36 38 39 39
44 44 44 45 45 45 46 46 46 46 46 46 46 46 46 46 46 45 40 44 43 40 39 43 42 39 33 32 30 32 31 31 31 29 29 27 24 23 26 22 28 25 31 28 30 30 35 38 39 42 42 41 39 40
44 44 45 45 46 46 46 46 46 46 46 46 46 46 46 46 46 45 42 43 42 38 37 38 37 40 38 34 35 32 33 34 34 35 31 30 24 28 23 24 23 24 33 31 31 32 35 38 41 43 44 42 41 40
45 45 46 45 46 46 46 46 46 46 46 46 46 46 46 46 46 45 41 42 41 38 31 31 38 36 41 37 36 36 35 41 39 38 33 30 27 31 26 26 25 25 30 32 32 33 36 37 40 41 41 44 43 39
46 46 46 46 45 46 46 45 46 46 46 45 45 46 46 46 46 45 44 42 40 35 28 30 41 42 45 39 36 39 40 40 37 35 29 28 32 34 32 32 30 33 33 31 30 36 38 38 37 38 40 40 42 39
45 45 45 45 45 45 45 45 45 46 46 45 45 45 45 46 45 42 37 42 43 40 35 30 41 41 43 43 37 36 38 40 39 35 32 35 38 33 26 27 34 36 36 37 36 39 38 38 39 40 40 40 40 38
44 45 45 45 45 46 46 45 45 45 45 45 46 45 45 45 43 38 37 40 44 42 35 32 34 41 43 43 42 42 43 42 41 38 34 34 36 35 28 26 33 34 34 35 37 36 37 38 38 40 41 38 35 33
44 44 44 44 45 45 45 45 45 45 45 45 45 45 44 44 44 42 44 43 42 39 37 30 33 36 41 36 36 41 38 38 39 38 38 35 37 36 32 31 32 31 32 34 34 35 37 36 34 34 34 34 29 27
43 44 44 44 44 45 45 45 45 45 45 45 44 44 43 42 39 41 44 44 45 39 32 31 31 30 38 34 36 35 34 30 33 34 36 36 34 27 27 29 29 29 30 31 33 35 34 32 30 29 31 30 28 27
43 43 43 44 44 43 44 45 45 45 44 43 40 37 33 39 46 45 42 38 38 38 34 32 33 33 34 34 33 28 30 29 28 31 36 31 25 28 26 28 27 29 29 31 31 31 30 32 28 26 25 25 24 23
43 43 42 44 44 44 43 43 44 45 43 41 35 33 42 45 42 37 31 31 31 30 33 33 33 33 35 30 31 32 26 27 22 27 30 26 20 23 26 25 27 27 28 28 31 30 30 28 27 25 23 23 22 21
43 43 42 41 42 43 43 43 43 42 41 40 40 41 36 31 27 26 23 29 29 29 31 33 31 32 31 36 32 33 29 29 22 32 24 16 21 24 24 24 23 24 25 24 25 26 27 27 26 24 22 21 20 19
42 42 42 42 40 40 39 40 42 42 42 35 31 24 24 19 13 16 15 22 23 27 28 31 29 30 30 34 32 32 29 27 29 20 15 18 23 22 22 22 21 22 21 22 22 22 22 23 24 22 21 21 20 19
42 42 41 41 40 38 38 34 36 33 30 25 20 11 12 9 16 17 20 22 27 27 27 30 31 31 31 31 30 26 24 23 14 8 10 19 22 22 22 22 20 21 22 20 21 21 20 20 19 19 19 19 18 17
42 41 41 41 39 39 35 35 30 28 24 19 17 9 13 19 19 21 23 25 25 27 28 31 33 30 25 22 22 19 11 9 13 10 16 20 22 22 21 21 21 20 20 19 20 19 18 18 18 18 19 19 18 17
40 39 38 42 37 36 32 30 29 28 24 18 15 12 14 13 14 16 18 20 24 23 28 29 27 21 18 16 11 10 10 7 9 15 18 20 19 20 20 21 21 21 20 20 19 19 18 17 16 16 17 17 16 15
39 35 40 42 40 33 33 27 26 23 20 17 13 17 11 11 9 13 18 18 22 21 20 21 11 11 19 10 9 11 6 12 14 15 17 18 17 18 18 18 18 19 20 20 19 19 18 19 18 16 14 16 16 15
35 37 41 41 36 33 29 27 23 19 15 16 9 13 13 10 14 15 17 19 19 20 16 14 15 9 8 7 7 13 13 14 15 13 14 16 16 17 18 16 17 18 17 17 18 19 18 17 15 14 15 15 14 13
38 38 40 39 33 29 26 25 22 14 15 16 16 16 15 13 17 18 18 17 18 18 16 13 7 6 6 10 10 12 13 14 12 13 14 15 16 17 17 17 16 16 15 15 15 14 13 15 14 14 13 13 11 11
39 38 39 38 34 29 26 25 25 19 15 16 17 14 14 12 15 9 14 15 13 12 8 6 5 8 9 10 13 13 13 16 14 11 11 13 15 15 14 15 15 15 14 14 14 14 12 11 11 10 10 8 7 6
34 35 36 33 31 30 27 24 23 21 20 20 19 18 14 16 11 10 10 11 9 9 6 9 7 12 14 15 16 16 15 15 13 13 12 10 13 13 13 13 14 13 11 11 10 9 9 8 7 6 5 4 4 4
31 34 29 29 27 27 26 27 24 24 23 22 20 19 11 7 7 11 13 7 8 9 10 10 11 12 11 10 12 14 14 14 14 13 13 13 11 11 11 12 11 9 9 9 8 7 7 6 5 3 1 0 1 1
31 29 26 24 19 19 20 26 21 24 15 16 17 13 9 6 13 13 7 11 11 15 14 13 13 14 13 14 14 14 13 12 10 10 10 10 11 11 11 11 11 8 7 7 7 6 5 3 1 -1 -2 -3 -5 -7
26 20 15 14 16 9 14 13 20 16 14 13 12 9 8 7 10 6 4 7 11 15 13 12 13 11 11 10 9 10 12 12 11 11 12 10 7 7 7 7 7 7 6 5 4 2 0 -4 -3 -5 -8 -11 -14 -16
15 13 12 7 12 8 3 -0 4 8 1 5 5 7 6 9 0 -1 -1 6 7 6 8 12 11 10 7 8 9 10 12 11 8 7 9 9 7 6 5 4 4 4 5 -0 -5 -7 -11 -10 -12 -13 -14 -18 -12 -22
7 10 9 8 5 8 7 -0 -1 -2 -1 -0 2 2 -2 -6 -9 -5 4 2 2 6 2 3 7 9 8 9 7 7 7 10 8 5 5 7 6 1 -1 -2 -2 -0 -2 -9 -9 -12 -14 -17 -16 -16 -21 -19 -19 -24
0 2 13 11 15 11 3 2 5 -0 -5 -6 -5 -9 -11 -16 -17 0 9 10 9 9 13 12 12 9 7 6 6 5 5 5 4 3 3 2 1 1 -3 -9 -9 -5 -4 -10 -16 -14 -15 -23 -25 -25 -25 -29 -28 -26
6 7 -1 -2 1 4 -9 -9 -11 -10 -4 7 -3 -11 -17 -15 -4 4 7 9 10 12 9 8 8 8 7 6 5 2 1 0 1 0 -0 -1 -2 -8 -11 -12 -10 -4 -17 -23 -23 -22 -21 -18 -20 -24 -24 -21 -22 -30
-1 3 1 -9 -5 -1 -0 -9 -5 4 7 -1 -13 -11 -3 5 1 5 7 9 9 8 4 2 -1 -3 -2 -3 -5 -5 -9 -12 -11 -14 -19 -21 -21 -12 -13 -18 -20 -21 -23 -17 -6 -15 -16 -21 -21 -22 -24 -24 -28 -35
0 6 -4 -11 -8 -4 -7 -3 -7 -8 2 0 5 6 4 1 3 5 6 6 3 -3 -7 -9 -12 -11 -14 -14 -15 -12 -16 -21 -16 -9 -13 -18 -15 -18 -21 -22 -21 -25 -27 -23 -21 -18 -5 -10 -12 -22 -23 -25 -28 -27
6 1 -2 -1 -2 -4 -7 -14 -17 -13 -14 -12 -15 -11 -6 -6 0 2 1 -2 -3 -7 -7 -11 -14 -20 -20 -23 -22 -21 -17 -19 -26 -23 -21 -24 -26 -23 -22 -22 -22 -26 -27 -26 -25 -27 -27 -27 -26 -25 -23 -23 -26 -29
-5 -9 -4 -3 -1 -1 -4 -12 -18 -16 -19 -13 -16 -21 -14 -14 -14 -7 -3 -5 -8 -9 -14 -19 -14 -11 -18 -23 -27 -26 -20 -20 -22 -23 -21 -23 -25 -27 -25 -23 -27 -27 -27 -27 -27 -26 -25 -25 -27 -29 -28 -26 -29 -30
-6 -6 -6 -3 -5 -6 -7 -7 -7 -9 -13 -14 -14 -17 -17 -14 -12 -9 -6 -10 -9 -8 -5 -9 -16 -23 -23 -23 -21 -24 -23 -24 -23 -9 -15 -16 -21 -20 -28 -29 -28 -26 -24 -26 -27 -26 -23 -23 -24 -27 -28 -29 -29 -30

GFSWCAN_sfc_dewp_081.txt.gz
Dewpoint
43 43 43 43 44 44 45 45 45 46 46 45 45 45 45 45 45 43 40 43 38 34 36 38 37 36 34 32 31 33 34 35 34 31 29 30 28 26 23 24 30 31 31 31 31 29 26 37 38 34 38 41 41 40
43 43 43 44 45 45 45 45 46 46 46 46 46 45 46 45 45 44 40 43 43 38 38 43 42 41 35 34 33 34 33 32 34 31 32 31 29 29 26 21 27 24 32 31 33 32 37 39 40 42 43 43 42 42
44 45 45 45 45 46 46 46 46 46 46 46 46 46 46 46 46 44 41 42 41 36 37 38 37 40 41 39 39 33 35 36 35 38 34 33 28 29 27 27 24 25 32 33 32 31 35 36 38 40 40 42 43 44
45 45 46 46 46 46 46 46 46 46 46 46 46 46 46 46 46 45 42 43 40 38 33 33 39 37 41 41 39 39 38 41 39 40 36 33 30 32 29 27 27 27 30 30 32 33 37 35 38 40 40 41 40 41
45 45 45 45 45 46 46 45 45 45 46 46 46 46 46 46 46 45 44 43 42 37 31 31 40 40 38 39 40 39 38 39 41 37 34 33 33 35 34 33 30 34 32 32 30 38 38 38 38 40 40 41 41 41
45 45 45 45 46 46 46 45 45 46 46 46 46 46 46 46 46 42 36 42 42 43 35 30 38 42 43 40 39 38 39 41 41 37 36 36 38 36 33 29 35 36 35 34 35 36 36 37 38 37 38 34 32 33
45 45 45 46 45 45 45 45 46 46 46 46 46 46 46 46 43 38 36 40 43 43 36 30 32 40 43 42 41 40 40 41 41 38 37 36 37 36 32 30 32 32 31 32 34 35 36 37 35 34 35 31 30 28
44 45 45 45 45 45 45 44 45 45 45 45 46 46 44 44 45 42 43 42 42 39 37 29 32 36 40 37 37 42 39 39 40 38 39 36 38 36 31 30 29 28 29 33 31 33 35 34 31 30 31 31 28 26
43 44 45 45 45 44 44 44 45 45 45 45 44 45 43 42 40 42 43 44 45 38 31 32 30 30 39 35 36 36 38 33 36 34 36 37 34 22 25 27 26 27 28 29 30 32 32 31 28 26 27 27 26 25
43 44 45 44 44 44 44 45 44 43 43 42 41 38 33 40 44 43 41 38 36 38 35 31 35 32 37 33 32 33 32 32 30 33 36 28 23 27 26 27 25 26 26 27 27 29 29 29 27 25 24 24 23 23
43 42 43 44 44 44 45 44 44 43 42 41 36 33 42 43 40 36 32 32 32 30 32 33 34 33 36 32 32 33 30 31 27 31 31 25 19 22 24 24 24 24 25 25 26 28 27 27 26 24 23 22 22 21
42 42 42 41 41 43 44 44 43 42 41 41 39 39 36 29 27 28 28 31 29 27 30 32 32 34 34 36 33 34 30 31 26 29 22 15 20 20 20 20 21 22 23 23 24 24 25 25 25 23 21 20 20 19
42 41 41 40 39 39 42 44 43 43 40 34 30 23 23 19 14 17 18 22 23 26 28 32 30 31 33 34 33 33 28 25 27 19 14 17 20 19 19 19 19 20 20 20 21 21 21 21 22 21 19 20 19 18
41 42 41 40 38 37 34 39 40 33 29 23 20 11 10 8 16 16 18 22 26 26 26 30 31 31 31 28 28 22 22 23 16 11 11 16 19 20 20 20 18 19 19 19 19 20 19 18 18 18 18 18 16 15
41 40 40 38 39 35 34 31 29 28 23 18 16 9 12 18 19 20 22 24 23 25 28 32 29 26 22 20 21 20 15 10 12 10 15 18 20 20 20 19 19 18 19 18 18 17 17 17 16 16 17 17 16 15
40 39 39 40 34 33 30 29 28 26 23 17 14 13 14 15 15 16 17 19 22 22 26 26 23 18 17 16 11 10 9 7 10 14 17 18 18 19 19 20 20 20 20 19 19 18 17 16 15 15 16 15 14 13
38 35 40 42 37 31 31 27 25 21 18 15 13 16 13 13 13 15 17 17 20 21 18 18 13 13 16 10 8 11 7 11 14 15 16 18 17 17 18 18 18 20 19 19 18 18 17 18 17 14 13 15 14 14
34 36 40 39 34 31 27 25 21 17 13 15 10 13 15 14 14 15 17 18 19 19 16 14 14 9 8 8 7 12 12 14 14 14 14 15 16 17 18 17 17 17 16 16 17 17 17 16 14 13 13 13 12 11
37 38 40 36 32 29 24 23 20 13 15 15 16 16 16 16 16 15 16 17 18 17 15 12 6 5 6 10 11 13 14 15 12 13 13 14 15 16 16 16 15 15 15 14 14 12 13 13 13 13 13 12 9 9
38 38 38 37 33 27 24 23 24 17 13 15 16 14 13 12 15 12 13 14 12 11 7 5 5 8 9 11 14 15 15 16 13 11 11 12 15 14 14 15 14 15 13 13 13 13 12 10 9 9 9 7 7 6
33 34 34 32 30 28 25 23 21 19 18 17 17 18 14 13 12 11 10 10 8 8 6 9 9 11 14 14 16 16 15 15 13 13 11 10 13 13 13 13 13 13 11 11 10 9 9 7 6 6 6 6 6 5
30 32 28 29 27 27 25 25 22 23 22 21 19 15 10 7 9 11 11 7 7 9 10 10 11 12 11 11 12 14 14 14 14 13 13 13 11 11 11 12 11 10 9 10 8 8 7 5 5 5 4 4 4 3
29 28 25 23 18 18 21 26 20 21 13 15 16 11 8 7 11 11 8 9 10 14 14 13 13 14 12 14 13 13 14 12 10 11 11 11 11 11 11 11 11 9 7 7 6 5 4 2 2 2 2 1 0 -1
24 18 13 12 15 8 13 12 18 14 13 13 12 7 8 8 9 6 4 8 12 14 12 13 13 11 10 9 9 10 12 11 10 10 12 9 7 7 7 5 6 7 7 6 4 4 2 1 -0 -1 -2 -4 -4 -5
12 10 10 4 10 6 1 -0 4 8 3 6 6 7 6 8 1 -0 0 6 8 7 8 11 10 9 7 8 9 9 12 11 8 6 8 7 7 6 4 3 3 3 5 3 0 -1 -3 -3 -3 -4 -4 -3 -5 -6
5 8 7 6 5 8 7 -0 -2 -1 1 1 1 1 -0 -3 -6 -4 3 4 5 7 5 7 9 8 7 8 7 6 7 9 7 5 4 6 6 5 3 2 2 2 -1 0 -1 -2 -4 -6 -5 -5 -6 -8 -12 -6
-1 -1 10 8 12 8 2 2 5 0 -5 -5 -2 -7 -7 -13 -14 1 9 9 9 11 12 12 12 9 7 5 4 4 4 4 4 3 2 1 1 1 2 1 0 1 -0 -2 -3 -1 -2 -5 -6 -5 -6 -8 -7 -6
4 5 -4 -4 -1 2 -8 -7 -8 -9 -3 5 -3 -10 -14 -11 -3 6 8 10 11 9 7 7 6 6 5 3 3 2 2 2 2 1 1 0 -1 -3 -5 -4 -3 -3 -7 -7 -5 -6 -4 -4 -5 -6 -5 -2 -5 -12
-2 1 -0 -12 -6 -2 -2 -8 -3 4 5 -2 -10 -8 -2 4 3 7 9 10 11 9 5 3 0 -0 -1 -2 -4 -3 -3 -1 -1 -6 -7 -5 -6 -2 -5 -6 -5 -6 -5 -1 -1 -5 -6 -7 -6 -5 -6 -4 -7 -12
-1 3 -5 -12 -9 -5 -7 -4 -4 -7 1 1 5 5 4 3 4 7 8 9 7 3 -2 -3 -5 -4 -3 -3 -4 -4 -8 -11 -7 -3 -4 -4 -4 -5 -7 -5 -4 -8 -8 -4 -3 -3 1 -4 -6 -9 -8 -9 -8 -7
4 -2 -3 -2 -5 -7 -9 -15 -17 -12 -11 -9 -11 -8 -3 -2 3 3 1 -2 -5 -7 -4 -4 -7 -12 -8 -9 -7 -8 -7 -7 -17 -14 -12 -11 -10 -7 -7 -9 -11 -11 -9 -7 -7 -8 -9 -9 -8 -7 -7 -7 -10 -13
-5 -9 -3 -4 -3 -1 -3 -9 -15 -11 -14 -9 -12 -17 -11 -9 -9 -2 -1 -1 1 -0 -7 -8 -6 -2 -9 -11 -16 -14 -17 -10 -10 -11 -11 -10 -9 -12 -11 -11 -13 -11 -9 -9 -10 -9 -9 -8 -8 -9 -8 -9 -10 -12
-5 -6 -5 -2 -3 -4 -6 -8 -8 -10 -13 -13 -13 -18 -17 -11 -9 -4 -3 -7 -3 1 -0 -5 -8 -12 -13 -14 -10 -12 -15 -11 -16 -8 -13 -12 -18 -13 -14 -14 -13 -12 -11 -10 -11 -11 -11 -11 -10 -11 -12 -14 -14 -15

GFSWCAN_sfc_dewp_084.txt.gz
Dewpoint
44 43 43 43 43 44 44 44 45 45 45 45 45 45 45 45 45 44 41 44 38 36 35 34 32 31 32 35 32 37 36 36 34 33 30 27 26 22 20 20 32 30 27 28 27 29 25 34 32 33 40 43 41 43
44 45 46 45 45 45 45 45 45 45 45 45 46 46 45 45 45 44 40 44 43 38 38 41 41 39 34 34 35 38 31 35 34 31 31 29 30 32 24 22 21 21 35 34 31 27 32 33 36 39 39 40 40 42
44 45 46 46 46 46 46 46 46 46 46 46 46 46 46 46 45 44 42 43 40 36 36 38 36 40 41 40 40 33 35 35 35 35 35 33 28 26 27 24 24 23 29 29 27 30 31 34 37 39 40 40 41 41
44 45 45 45 45 46 46 46 46 46 45 46 46 46 46 46 45 44 42 43 41 38 33 33 36 37 41 41 39 38 35 37 38 37 37 35 31 30 28 25 25 24 28 24 24 26 33 27 36 38 38 39 39 41
45 45 45 45 46 46 46 46 46 46 45 46 46 46 46 46 46 44 44 43 42 35 31 31 37 37 39 41 38 38 37 38 40 37 38 34 31 34 34 33 26 27 30 29 29 37 37 36 37 38 37 36 35 37
45 45 45 45 45 45 45 45 46 46 45 45 45 46 47 45 46 43 36 43 43 44 37 30 35 38 37 38 39 38 38 39 40 38 38 36 35 35 34 28 35 34 34 34 35 35 36 37 38 36 36 35 32 32
44 45 45 45 44 44 45 45 46 46 46 46 45 46 46 46 43 39 37 41 44 45 38 33 33 35 39 36 38 40 39 40 40 39 38 36 36 36 36 34 31 30 30 33 33 34 35 35 34 33 33 34 31 31
44 45 45 45 44 44 45 45 46 45 45 45 46 45 45 45 44 42 43 42 42 40 38 33 33 35 38 37 36 40 39 40 39 39 39 36 38 38 31 27 27 27 28 32 30 30 34 34 31 30 31 31 30 29
44 45 45 44 44 44 44 45 45 45 45 45 45 44 43 42 39 42 43 42 46 39 33 33 32 31 39 37 38 38 39 35 38 37 37 39 33 27 24 25 25 25 26 26 27 29 31 31 28 26 27 28 29 27
43 44 44 44 44 44 44 44 43 43 43 43 43 38 34 41 44 43 41 38 38 38 38 34 36 33 37 37 36 34 36 35 33 36 37 31 25 26 25 24 24 25 25 25 25 27 27 27 27 25 24 25 25 25
43 42 42 43 44 43 44 44 44 44 44 41 37 36 41 42 41 38 34 34 34 32 34 34 35 35 37 35 34 35 34 35 30 33 33 27 22 21 22 22 24 24 24 25 25 26 26 26 26 24 22 22 22 22
42 42 41 42 44 44 44 43 42 42 42 40 38 38 36 31 32 33 31 33 32 29 34 34 34 34 36 38 35 35 33 34 28 31 27 21 20 18 19 19 20 22 22 22 23 24 25 25 24 22 20 19 19 19
42 41 40 39 38 39 43 43 43 41 38 31 28 24 24 22 21 22 22 26 28 28 31 33 33 35 36 38 34 34 31 26 29 24 19 18 18 18 19 19 19 19 20 20 20 21 21 21 22 21 19 19 18 17
41 41 39 38 35 37 42 41 35 32 28 24 23 17 19 17 20 20 22 24 28 29 28 33 34 33 33 32 32 28 26 28 22 18 14 18 19 20 19 20 18 19 19 19 19 20 19 18 17 17 17 17 16 15
40 40 37 36 35 33 32 31 29 26 23 22 21 17 18 21 22 23 24 27 25 26 30 34 31 28 27 25 25 25 21 16 15 15 18 20 20 19 19 19 19 18 19 19 19 18 18 18 17 17 18 17 17 16
40 39 38 33 34 31 30 28 26 24 22 19 17 18 20 22 21 22 22 23 24 25 30 30 28 24 20 19 17 15 13 12 14 18 20 20 18 19 19 19 19 20 20 19 19 18 18 17 16 16 16 15 15 14
39 37 39 35 30 31 29 24 22 18 18 17 17 20 20 20 18 20 20 20 22 27 25 23 20 18 19 15 12 13 13 15 18 18 19 19 19 19 19 19 19 19 19 19 18 18 18 18 18 16 13 15 15 14
37 38 39 39 36 29 25 22 19 17 15 18 16 18 19 19 18 18 20 20 22 21 19 18 17 13 13 10 12 15 16 18 18 18 18 19 19 19 20 19 19 19 18 18 18 18 18 17 15 14 14 14 13 12
38 39 38 35 34 28 22 22 19 16 18 19 20 20 19 18 18 18 20 20 19 18 17 15 12 10 12 15 17 18 19 19 16 17 17 18 19 18 18 18 18 18 17 18 17 15 15 17 16 16 15 14 12 12
37 37 36 36 34 26 20 21 21 17 16 17 17 15 15 16 17 19 18 15 13 12 11 10 11 13 14 16 19 19 19 19 17 15 15 17 18 18 19 19 18 18 17 17 17 16 15 13 13 13 13 10 10 9
36 35 35 34 31 28 24 21 20 18 17 16 17 15 15 16 16 16 14 11 12 11 9 13 14 15 17 18 19 19 18 18 17 17 16 15 17 17 17 18 18 18 16 16 15 14 13 12 9 10 12 12 11 9
32 32 33 32 29 27 25 25 22 24 20 20 17 14 16 16 16 15 11 11 10 12 13 14 14 15 14 14 15 17 17 17 17 15 15 15 15 15 15 16 15 15 14 15 13 12 10 8 10 10 11 10 8 8
30 31 29 27 26 25 25 28 22 19 18 18 17 13 13 14 12 10 11 8 11 15 15 14 15 16 15 16 15 15 16 15 14 14 14 14 14 15 15 15 15 14 12 9 8 8 8 6 7 9 9 8 7 6
25 23 21 21 23 19 22 20 18 16 18 16 13 11 11 12 11 11 7 9 13 13 13 14 14 12 12 11 12 13 14 13 12 13 13 12 11 10 9 8 9 10 9 8 8 8 7 8 6 7 6 6 4 4
19 15 19 17 19 17 15 15 15 14 14 14 12 11 11 12 9 7 6 9 12 13 13 13 12 11 11 12 12 11 13 11 11 9 10 9 9 8 6 4 5 6 9 10 8 7 6 5 5 4 3 3 1 1
11 13 14 15 16 15 15 12 13 13 13 10 9 8 11 9 5 5 6 11 13 13 15 15 14 12 10 10 9 9 9 10 9 7 6 7 8 10 9 8 7 6 8 10 9 6 4 4 3 2 2 0 -2 0
10 11 11 9 12 11 12 12 11 11 9 9 10 6 6 1 2 5 10 12 12 14 14 14 13 11 8 4 5 7 7 8 8 5 5 4 5 6 9 9 5 6 7 7 9 8 6 4 4 3 3 4 3 4
9 8 5 6 7 7 5 6 6 6 8 6 5 1 1 1 4 10 11 13 14 12 10 9 8 6 6 6 7 8 7 7 7 6 6 5 4 5 5 6 5 3 6 7 8 7 6 6 4 3 2 4 3 3
8 8 6 -1 4 4 4 5 6 6 6 7 5 3 4 6 10 12 12 14 14 12 11 9 9 10 9 7 8 8 9 9 3 -1 -4 5 6 5 5 6 6 6 8 7 3 4 3 4 4 5 -2 5 5 3
8 9 4 1 0 2 5 7 7 7 6 8 7 5 6 8 11 13 14 14 13 13 12 11 10 11 9 9 8 6 7 5 5 7 6 5 5 5 6 6 6 6 8 7 6 5 4 4 3 2 2 2 3 3
9 10 6 6 4 7 8 7 8 8 8 8 9 8 6 9 11 10 10 11 11 9 10 9 8 9 8 7 9 6 6 4 -2 -2 1 4 5 5 5 4 5 6 6 5 4 4 3 3 3 1 0 -1 -2 -2
8 6 5 3 5 8 9 9 10 9 9 9 7 8 7 9 6 9 8 10 11 11 6 10 11 10 6 5 3 3 -2 3 2 2 0 4 5 2 3 3 2 4 4 3 2 2 -2 -2 1 -0 -0 -2 -2 -3
8 9 8 8 7 7 8 9 7 6 8 7 6 4 5 6 4 8 6 6 9 12 11 9 7 5 2 2 4 3 2 2 -3 -1 -3 -4 -6 -2 1 2 2 0 -3 -0 0 -1 -5 -8 -3 -4 -4 -5 -6 -6

GFSWCAN_sfc_dewp_087.txt.gz
Dewpoint
44 44 45 45 45 46 46 44 44 44 44 44 44 45 45 45 44 45 41 44 40 37 33 34 30 29 30 33 34 39 37 37 35 33 30 27 27 23 20 20 30 28 28 29 27 22 23 32 33 35 39 43 42 46
44 44 44 45 46 46 46 46 45 45 45 45 45 45 45 45 45 45 41 43 43 38 37 40 37 38 34 30 36 39 31 36 34 34 31 30 29 31 23 22 26 29 30 31 24 25 38 34 39 38 39 39 39 40
44 43 44 45 46 46 46 46 46 46 46 46 45 46 46 46 45 44 43 44 40 35 37 39 37 38 39 39 38 34 36 35 36 36 37 34 30 27 29 24 28 23 34 37 35 35 37 34 38 36 36 37 37 38
43 44 45 45 45 46 46 46 46 46 46 46 46 46 46 46 46 45 42 43 39 38 34 33 36 37 39 39 39 40 36 38 40 39 39 36 33 28 27 27 27 26 29 24 23 35 34 38 36 37 36 37 36 36
44 44 45 46 46 45 45 45 46 46 46 46 46 46 46 46 46 45 44 42 38 34 34 30 36 36 38 39 38 39 40 40 42 38 37 34 32 32 31 31 28 33 34 31 35 36 36 35 36 36 35 35 34 34
43 44 45 45 45 44 45 45 45 45 45 46 46 46 46 46 46 43 35 43 39 42 38 32 33 36 38 39 38 38 42 42 41 39 38 36 35 34 33 29 34 32 33 34 34 34 35 36 35 34 34 34 34 34
44 44 45 45 44 45 45 46 46 46 46 46 45 46 47 46 45 38 38 41 42 45 38 34 32 34 37 38 39 40 41 41 41 38 38 37 36 36 36 32 30 29 29 32 31 33 34 34 33 32 32 33 35 32
43 45 45 45 44 45 45 45 46 46 46 45 45 46 46 45 43 41 43 43 43 40 39 33 33 35 37 37 36 41 39 40 40 39 39 36 36 39 32 28 26 25 27 30 28 29 33 32 31 29 29 29 32 30
43 44 44 44 44 44 44 45 45 45 45 46 46 46 43 41 39 43 43 43 43 39 33 35 31 31 37 38 39 39 40 34 39 36 36 38 35 29 26 25 24 24 25 25 26 28 29 29 29 28 28 27 28 28
43 42 42 44 44 44 44 44 44 44 44 43 43 38 33 41 43 43 41 37 39 38 38 35 32 35 37 37 36 36 38 35 33 35 38 36 27 27 24 23 23 24 24 24 25 26 27 28 28 27 25 25 25 25
42 41 43 43 44 44 43 43 44 44 44 41 38 36 41 43 42 39 35 34 34 33 35 34 34 35 38 34 36 38 35 36 31 33 34 29 23 22 22 23 24 23 23 23 23 24 25 25 25 25 23 22 21 20
41 41 40 39 41 44 43 42 43 42 41 40 39 39 38 36 35 33 32 33 29 28 34 34 35 36 37 39 36 36 34 35 30 34 32 25 21 19 19 19 20 22 22 22 22 23 24 24 25 23 21 19 18 18
41 40 38 37 37 40 42 39 38 40 39 35 31 28 29 28 28 29 26 28 30 31 33 34 33 37 36 38 37 36 32 29 33 30 22 22 19 19 19 19 19 19 20 20 20 21 21 21 22 21 20 20 20 19
40 39 37 36 39 38 36 33 36 33 29 26 27 22 24 23 23 24 25 27 29 30 30 32 34 33 35 33 34 28 29 31 26 23 19 21 21 21 20 20 18 20 20 20 20 20 19 18 18 18 19 19 18 17
40 37 36 34 34 33 32 33 33 29 26 25 24 21 21 25 26 26 28 30 28 29 31 34 34 32 30 29 29 29 26 21 20 20 21 22 20 20 20 20 19 19 20 20 20 18 19 18 18 18 19 19 18 18
41 39 32 34 31 31 32 31 28 27 25 23 21 23 26 28 26 26 26 26 27 29 32 34 32 28 24 25 22 20 18 17 19 21 22 20 19 20 20 20 20 21 20 20 19 18 17 17 16 17 17 17 16 16
39 38 33 34 31 31 32 27 25 21 21 21 21 23 25 24 23 23 25 24 27 30 29 27 23 21 24 20 15 16 17 19 21 20 20 20 20 20 20 21 21 20 20 20 19 19 19 20 19 17 14 16 16 15
38 39 38 32 34 30 26 25 22 20 19 23 20 23 22 23 23 23 24 24 26 24 22 20 20 17 17 15 14 17 19 20 20 20 20 21 21 22 22 20 20 20 19 19 19 19 19 18 16 15 15 16 15 15
38 38 38 39 35 28 24 23 22 19 21 23 24 23 23 23 22 23 24 24 22 21 22 20 16 14 15 20 20 21 22 22 19 19 19 20 20 20 20 20 20 20 20 20 19 17 18 20 19 18 17 16 14 14
37 37 37 35 34 26 21 23 24 20 20 21 21 20 20 20 22 24 23 20 17 16 15 13 14 17 18 20 22 21 21 21 20 18 18 20 20 21 22 22 20 21 19 19 19 18 16 15 15 15 14 13 12 11
34 34 36 33 29 27 24 23 21 20 19 20 18 18 20 21 20 21 18 15 16 14 13 17 17 17 19 20 22 20 20 21 20 21 18 17 20 20 20 21 21 20 19 19 17 16 16 15 13 12 15 14 13 12
32 34 34 31 27 25 25 25 23 23 21 20 18 19 21 21 20 18 14 14 13 14 16 17 18 18 15 16 17 19 20 19 19 18 18 20 19 18 18 20 18 18 17 18 16 16 13 10 12 12 12 12 10 9
31 32 31 29 29 26 24 29 23 20 21 20 19 16 18 18 15 14 14 10 14 17 16 15 16 18 17 18 17 18 19 18 16 17 17 17 17 18 17 17 18 18 15 13 12 12 11 8 10 12 11 11 9 8
28 27 27 27 25 23 25 21 18 18 20 18 15 13 14 16 16 14 11 12 15 15 14 17 16 14 14 14 13 15 16 15 15 15 16 15 14 12 12 12 13 13 11 10 10 11 10 11 8 9 9 9 8 7
20 18 23 20 23 20 18 19 18 17 16 16 14 14 15 17 14 11 10 12 14 16 16 15 14 14 13 14 14 13 13 12 13 11 11 11 11 9 7 6 7 7 11 14 12 11 10 9 9 8 6 7 5 4
14 16 17 19 19 18 18 16 16 16 15 13 12 13 19 16 10 9 9 14 16 16 19 19 17 14 11 11 11 11 11 11 10 9 9 9 9 13 12 11 10 9 10 13 12 9 7 7 6 4 5 3 1 0
14 14 13 12 15 15 18 18 16 16 14 12 14 12 12 7 7 9 12 14 14 16 15 16 14 12 10 7 7 8 9 9 10 7 7 7 7 8 12 12 8 8 9 10 11 11 7 6 5 5 6 7 5 6
11 12 9 13 13 13 11 12 12 11 12 9 11 7 6 7 8 14 14 15 16 14 13 12 10 9 9 9 11 12 12 11 11 10 9 8 7 9 8 9 8 7 9 10 10 9 9 8 7 6 5 6 6 6
13 13 9 5 9 9 9 11 11 9 9 13 12 8 8 9 15 14 15 15 15 15 13 13 14 15 12 11 13 12 13 12 6 -2 -6 8 10 9 8 9 9 9 11 8 6 6 5 6 6 7 -1 7 8 7
12 15 9 6 6 7 10 12 11 13 11 12 9 8 9 11 14 17 16 16 16 16 16 15 15 16 13 13 11 9 11 10 9 9 9 8 8 8 9 9 9 8 10 9 8 6 4 6 5 5 5 5 5 5
14 16 11 9 8 11 13 14 15 15 15 15 16 14 11 12 13 14 14 15 15 15 15 14 13 14 12 11 11 9 9 8 4 5 7 8 8 8 7 7 8 9 8 7 6 6 5 4 4 3 3 2 1 1
16 11 9 6 9 12 15 17 16 14 15 14 12 13 13 13 10 12 15 16 14 14 11 13 14 13 11 10 9 8 5 7 6 5 3 6 7 5 6 6 6 7 6 5 5 4 1 1 3 3 2 1 1 0
14 13 12 12 11 12 13 15 11 12 14 12 12 13 13 13 8 12 12 15 15 16 13 13 12 9 7 6 7 7 5 4 0 1 -1 -2 -3 0 5 6 5 4 0 2 3 2 -1 -2 -0 -0 -1 -2 -2 -2

GFSWCAN_sfc_dewp_093.txt.gz
Dewpoint
35 38 40 42 43 43 45 45 45 46 46 46 46 45 45 45 45 42 40 42 38 33 33 35 34 32 32 33 31 34 34 35 34 27 26 24 23 27 29 29 28 27 29 26 26 26 21 39 37 36 37 38 37 38
35 39 41 42 43 44 45 45 45 46 46 46 46 45 45 45 45 43 40 42 42 37 36 39 38 39 39 39 38 37 36 35 34 29 29 29 26 28 32 24 34 28 30 27 28 28 39 40 38 37 37 35 35 36
38 40 41 42 43 44 44 44 45 46 46 46 47 45 45 45 45 43 39 42 41 35 34 34 32 33 36 40 45 35 37 39 37 38 34 33 27 32 27 27 31 34 37 34 32 37 40 39 38 35 35 36 34 35
39 41 42 43 43 44 44 44 46 46 46 46 46 46 45 45 45 43 40 43 40 36 28 29 33 34 35 37 45 42 39 39 40 39 34 32 32 37 34 35 32 37 37 37 36 38 36 34 34 34 34 35 34 34
40 41 42 43 44 44 44 45 45 45 45 46 46 46 46 45 45 44 43 42 40 34 29 31 34 34 37 36 37 41 41 39 37 34 33 33 36 36 37 35 32 35 34 33 31 35 36 32 32 33 32 32 34 33
40 42 43 44 44 45 44 45 45 45 45 45 46 46 46 45 44 43 34 42 42 39 35 29 39 37 37 38 37 37 39 39 39 37 34 37 38 38 34 31 29 29 31 31 30 31 32 32 31 31 31 31 32 31
41 43 43 44 44 44 44 44 44 46 45 45 45 46 46 46 44 37 36 39 43 43 36 30 32 37 38 38 38 38 39 40 40 37 36 37 36 38 33 29 31 32 33 27 28 30 30 30 29 29 29 30 30 28
42 43 43 43 44 44 44 44 46 46 46 46 45 46 46 46 43 39 43 44 42 40 37 30 31 36 39 36 36 40 39 40 38 37 37 36 37 37 27 25 26 29 27 27 25 28 28 29 28 27 27 28 27 25
42 43 43 43 44 43 43 46 46 46 46 46 46 46 41 40 37 40 45 43 43 39 31 29 27 30 39 36 38 39 39 32 37 32 34 35 31 23 26 26 26 25 23 23 24 25 25 26 26 26 24 24 24 24
42 42 42 43 43 42 44 45 45 46 46 44 41 37 32 40 44 44 40 35 37 37 36 33 35 33 38 36 34 34 35 33 31 32 37 28 23 28 25 24 24 24 23 23 22 21 22 23 26 25 23 22 23 21
41 41 41 39 41 42 43 43 44 44 45 42 37 35 42 44 40 37 32 32 32 30 31 33 34 32 37 32 31 32 32 32 25 30 31 27 22 26 27 24 23 23 23 23 23 23 22 23 24 23 20 19 19 18
40 40 39 41 42 40 43 44 44 44 41 40 39 42 42 38 35 31 27 30 28 26 32 29 32 36 35 38 33 33 30 31 24 34 30 18 21 21 21 20 19 21 22 21 21 20 19 19 20 19 18 17 17 18
39 38 39 41 39 39 42 44 44 42 43 40 35 32 32 30 26 22 22 24 28 31 33 33 33 34 33 34 32 33 28 27 30 25 17 17 21 20 20 20 19 19 19 18 17 17 17 17 17 17 15 15 14 14
38 37 36 37 38 37 38 37 39 36 34 30 26 14 21 22 22 23 25 26 28 29 30 32 32 31 33 30 32 28 29 28 24 17 11 18 20 20 20 20 19 19 19 18 16 14 15 15 14 15 14 13 12 12
37 36 34 34 36 36 37 36 35 33 29 25 24 19 19 24 26 25 29 28 28 30 30 32 32 33 29 25 29 26 23 16 16 11 16 19 20 19 19 20 19 18 15 14 11 13 11 12 12 12 13 13 12 11
41 36 31 33 33 36 36 34 33 32 29 24 23 23 25 23 21 21 22 22 29 29 30 31 30 25 23 24 19 14 19 11 13 18 19 18 17 17 16 18 16 18 13 13 14 13 12 10 11 11 11 12 13 11
41 35 35 33 36 36 37 32 28 25 25 23 21 25 25 24 21 22 25 25 30 29 28 28 24 23 27 20 15 18 13 16 17 18 19 18 16 15 18 18 16 15 14 16 16 17 15 15 13 12 10 12 12 12
39 34 36 34 35 34 31 30 26 23 21 23 19 22 24 25 24 25 27 27 28 28 27 23 23 16 14 14 12 17 16 18 20 19 16 16 17 17 17 15 14 12 12 12 12 11 12 11 11 12 12 13 12 11
37 33 35 35 34 31 26 27 25 21 23 25 26 26 25 25 25 24 24 25 24 21 23 18 12 12 14 18 16 17 18 17 16 17 17 14 15 17 19 19 20 19 19 18 17 17 18 18 17 17 16 14 12 12
39 37 37 39 37 29 25 26 28 23 22 23 25 23 24 24 23 21 19 19 17 17 14 12 12 14 16 19 20 20 20 20 18 17 16 19 22 22 21 19 18 17 17 18 18 16 15 15 15 16 16 14 12 10
34 33 35 35 30 30 28 26 24 24 25 24 26 24 22 19 17 16 16 15 15 15 13 15 15 16 15 17 18 18 18 20 22 17 17 18 18 20 20 22 23 21 17 16 16 15 15 15 15 14 12 9 9 9
32 36 34 34 28 28 27 29 25 26 24 25 25 25 21 14 14 15 15 12 13 14 16 17 14 12 15 15 16 16 16 18 19 19 20 21 18 17 19 17 17 16 16 16 16 14 15 14 13 12 10 9 9 8
36 34 32 30 23 22 23 29 24 25 21 21 23 18 17 15 19 17 11 14 16 16 15 14 12 14 14 14 18 17 17 19 18 17 17 17 18 17 16 16 19 15 14 14 14 12 11 10 11 9 8 6 4 1
32 26 23 22 22 20 23 19 23 23 21 19 16 12 12 16 18 11 9 14 16 18 17 17 17 16 16 15 12 13 19 16 14 15 18 15 13 12 14 14 14 14 14 15 14 12 10 5 9 11 9 7 5 5
14 13 18 14 22 15 13 13 16 18 11 14 10 9 11 20 8 5 7 14 17 15 17 18 18 17 12 8 10 10 13 15 14 10 11 16 15 10 9 9 9 10 15 11 7 2 2 0 -1 0 2 -2 4 -0
8 10 14 16 16 16 17 12 12 11 10 6 8 14 16 8 2 4 13 13 11 18 17 17 16 13 11 14 11 9 10 12 15 9 9 10 10 8 10 9 6 4 9 8 3 -3 -3 -3 -5 -6 -7 -6 -5 -6
7 8 18 19 22 21 16 17 19 13 7 5 9 8 5 -4 -3 9 17 16 13 11 14 15 14 12 9 9 10 11 10 9 8 9 10 9 9 9 5 1 0 5 6 6 7 5 -3 -7 -9 -5 -4 -10 -11 -6
13 15 7 13 13 17 7 8 6 4 6 14 10 -1 -2 -1 5 13 14 15 14 14 13 13 13 13 13 13 13 10 7 6 5 6 8 7 6 1 -1 -2 -2 7 -4 -4 -2 1 4 -0 -6 -7 -5 -2 -3 -11
11 14 10 1 6 8 9 6 5 10 13 14 2 2 5 14 12 14 12 13 14 13 10 8 5 5 8 8 7 7 5 2 1 -7 -7 3 -2 -2 -3 -3 -4 5 1 -5 5 -2 -3 -7 -8 -5 -6 -2 -1 -4
10 17 7 1 -1 4 12 11 6 8 12 11 12 12 12 13 14 13 13 16 17 15 9 9 14 10 7 8 1 -3 -2 -6 -7 -5 -3 -4 -4 -3 -1 2 0 -6 -3 5 -2 -6 2 -5 -3 -9 -8 -9 -8 -3
18 15 7 6 5 11 15 15 15 14 11 10 8 5 6 6 9 13 14 10 7 5 4 2 5 7 1 0 1 0 -7 -7 -9 -7 -5 -5 1 -6 -9 -9 -9 -7 -2 -6 -8 -4 -7 -11 -7 -4 -9 -10 -11 -12
13 6 3 1 7 14 17 16 10 8 7 4 2 4 5 3 -1 3 6 11 6 8 6 13 6 -2 -3 -4 -6 -5 -4 -4 -5 -9 -8 -1 -8 -8 -7 -6 -5 -3 -10 -11 -7 -10 -10 -13 -14 -13 -14 -14 -15 -16
9 8 7 5 5 6 12 8 8 7 7 5 6 7 5 3 0 4 6 7 13 13 7 4 -1 -3 -3 -1 -3 -4 -8 -12 -9 -0 -5 -5 -10 -6 -5 -8 -6 -10 -10 -11 -10 -12 -12 -12 -14 -14 -16 -17 -18 -19

GFSWCAN_sfc_dewp_096.txt.gz
Dewpoint
36 37 36 36 39 40 41 42 44 45 46 46 46 47 46 46 45 44 41 41 37 33 31 33 30 30 31 31 29 32 31 33 34 30 27 24 22 25 27 30 32 28 27 26 27 24 21 38 37 32 36 39 37 37
36 37 35 38 40 41 42 43 44 45 45 46 46 46 46 46 45 43 39 41 42 37 36 38 37 37 37 37 35 37 35 34 34 29 28 28 24 28 30 26 36 29 30 28 28 27 39 39 36 37 36 34 35 36
36 35 35 38 41 42 42 43 44 45 45 46 46 46 46 46 45 44 40 42 40 36 35 34 32 34 37 39 41 32 36 37 37 37 34 31 26 31 28 30 32 37 38 33 34 38 37 36 35 35 35 35 35 34
35 35 35 39 41 42 43 44 44 44 45 46 46 46 46 46 45 43 40 42 39 36 31 28 33 34 35 34 41 40 37 41 41 40 34 29 28 35 32 35 34 35 35 35 36 36 34 33 33 33 33 34 34 32
35 35 38 40 42 42 44 44 44 45 45 46 46 46 46 46 44 43 42 42 39 35 29 31 35 33 35 35 37 41 41 39 38 35 29 28 34 34 34 36 31 35 33 30 29 34 36 31 31 32 31 32 31 31
34 37 40 41 42 44 44 45 45 45 45 45 45 46 46 46 44 42 35 42 42 40 36 25 35 35 36 37 38 39 40 40 40 34 31 35 38 36 32 29 32 31 33 35 32 34 35 32 29 29 31 28 27 26
35 38 41 42 44 44 44 44 44 44 44 45 45 46 46 46 42 37 34 38 42 42 35 29 28 34 38 38 37 37 39 37 39 37 33 35 37 37 32 26 29 31 32 33 31 31 30 28 27 28 29 27 27 24
37 40 42 43 43 43 44 44 44 45 45 45 46 45 46 46 42 39 43 44 42 40 38 29 28 33 40 35 36 40 37 38 38 36 37 36 38 36 24 27 28 29 31 29 29 28 27 27 26 25 26 26 24 23
40 41 43 43 44 44 44 45 46 46 46 46 46 46 42 38 36 39 44 43 43 39 31 31 26 28 38 37 38 38 38 32 36 34 34 36 28 21 25 25 24 26 26 23 23 23 24 25 26 24 23 23 22 22
40 42 42 42 41 43 44 46 46 46 46 45 41 36 32 39 44 44 38 35 35 38 37 31 34 31 36 35 34 34 35 32 30 33 36 26 22 26 26 24 23 24 23 23 21 20 21 22 24 22 21 21 20 19
42 42 41 41 41 42 43 44 45 44 43 41 36 35 41 43 39 35 31 31 33 29 30 31 34 33 37 32 32 33 32 32 26 29 31 24 20 23 22 21 22 22 22 21 20 19 19 21 21 20 18 17 17 17
40 41 40 41 41 41 43 44 44 43 41 40 40 42 41 37 34 31 28 30 26 25 32 27 32 35 35 36 33 33 27 30 21 33 26 14 20 23 19 19 20 21 20 18 18 17 18 18 19 17 16 16 17 16
40 38 39 40 40 43 44 44 43 42 42 38 36 33 31 29 24 18 24 27 27 30 33 33 33 31 33 34 32 32 27 24 32 21 15 16 20 20 19 18 18 18 17 16 15 16 16 15 15 14 13 13 12 11
38 38 38 39 40 43 44 44 43 40 34 29 24 13 17 19 17 19 23 23 26 29 30 32 32 30 32 29 30 27 28 29 22 14 7 16 19 20 19 19 17 17 17 15 12 12 12 11 10 11 11 11 9 9
37 36 35 36 38 38 38 37 35 32 28 24 23 15 16 21 21 22 26 26 28 30 30 32 32 31 27 20 26 27 20 13 13 7 12 17 19 19 19 18 17 15 10 10 6 9 6 7 10 10 11 10 10 9
38 36 29 34 34 37 35 34 33 31 27 23 21 20 23 16 16 18 20 21 28 28 29 30 22 19 16 16 13 10 14 6 7 11 16 17 13 14 15 17 13 11 10 9 9 10 9 8 8 9 11 11 10 9
41 30 33 35 37 38 36 30 29 27 25 20 18 22 23 20 18 17 20 22 28 27 23 26 17 18 23 14 11 15 7 9 14 16 16 13 15 15 13 13 14 14 12 11 10 10 11 13 12 11 9 10 11 10
33 31 35 34 37 34 32 29 26 23 21 22 17 21 21 22 18 21 24 25 27 26 25 21 22 14 8 10 7 11 14 17 17 16 15 15 13 11 15 11 11 12 11 9 10 8 9 9 9 8 9 10 10 10
32 34 35 37 35 30 27 27 26 21 22 23 23 23 24 22 21 21 22 23 23 23 23 19 14 12 12 16 13 13 9 11 14 14 14 14 17 17 17 18 17 16 15 13 15 15 14 14 13 14 13 11 9 9
36 35 36 37 35 28 24 25 27 23 20 23 23 21 23 20 20 19 18 19 16 16 13 10 10 12 15 16 17 17 13 17 16 14 13 15 15 15 12 14 15 16 17 17 16 16 15 15 15 15 15 13 11 9
34 33 36 34 30 29 26 24 24 24 24 23 23 23 17 17 15 15 15 15 14 13 11 13 12 15 16 16 16 18 17 17 13 12 11 14 16 18 20 18 18 18 15 14 14 14 14 13 13 12 10 6 7 9
31 36 31 31 27 27 26 27 24 25 25 25 25 24 15 11 11 14 15 11 12 11 11 10 6 8 15 14 10 10 18 19 18 18 18 17 15 14 15 15 16 14 14 13 14 12 13 13 12 10 6 1 6 8
34 33 29 26 20 19 22 28 24 24 18 21 22 16 13 11 15 16 7 13 13 12 9 10 8 10 13 10 15 14 13 16 15 16 16 15 16 15 14 15 15 13 12 13 14 12 11 12 11 7 5 4 3 -1
29 24 19 17 19 13 18 16 23 22 20 18 15 10 10 12 15 8 7 7 10 16 15 11 15 13 13 12 12 13 13 13 13 13 13 13 12 13 14 13 13 14 15 15 13 10 7 4 7 7 0 -4 -5 -2
13 10 13 8 15 11 8 9 13 15 8 11 7 6 9 16 4 0 1 13 11 8 15 20 18 13 8 2 6 9 12 14 9 8 9 12 8 8 8 9 9 11 13 4 -3 -6 -8 -8 -6 -2 -2 -0 5 1
4 5 9 8 10 13 13 8 7 7 6 2 4 12 10 1 -3 2 10 6 3 11 6 6 11 12 12 11 8 7 7 11 10 7 8 10 9 4 2 1 -2 1 7 1 -7 -10 -9 -11 -12 -8 -11 -8 -8 -12
1 2 15 20 21 18 11 12 15 8 1 1 3 -0 -3 -10 -10 7 15 13 10 8 11 12 12 10 9 9 9 9 8 9 8 8 9 8 8 6 4 0 -2 2 2 -2 -4 -6 -8 -13 -15 -14 -15 -19 -15 -13
10 11 4 6 8 12 1 0 -3 -3 -0 11 5 -5 -7 -4 3 10 10 12 12 13 13 13 13 12 11 10 7 4 2 1 3 5 6 4 2 -5 -6 -7 -5 3 -10 -11 -7 -1 -8 -13 -13 -7 -7 -9 -12 -17
3 9 7 -2 1 2 3 -1 -1 7 12 7 -4 -4 2 11 8 11 11 11 12 11 9 8 -0 4 4 3 -1 -2 -7 -5 1 -5 -9 -9 -13 -6 -10 -12 -10 -7 -10 -10 1 -7 -4 -5 -6 -8 -9 -9 -12 -17
4 10 0 -7 -4 1 7 3 -2 -4 9 8 12 11 11 11 12 5 10 9 8 3 -0 1 -0 -0 -5 -6 -13 -9 -12 -18 -15 -9 -10 -12 -7 -5 -9 -12 -13 -14 -11 -10 -12 -10 -1 -10 -7 -14 -13 -14 -14 -14
13 4 -1 -1 2 6 5 3 6 4 -1 -1 -5 -1 1 7 9 10 6 8 7 3 3 -0 -3 -12 1 -5 -14 -17 -14 -13 -16 -12 -7 -8 -13 -16 -16 -16 -17 -16 -17 -15 -13 -14 -17 -19 -17 -12 -9 -8 -12 -17
-1 -7 -3 -0 5 10 6 4 -4 -2 -8 -7 -6 -9 -5 -7 -7 -1 4 1 -2 -3 -5 -3 -2 -8 -14 -16 -17 -16 -10 -13 -17 -14 -12 -15 -19 -18 -15 -14 -17 -18 -18 -18 -17 -17 -19 -20 -21 -19 -19 -19 -22 -23
-4 -4 -3 -2 -2 -2 1 -1 -1 -1 -3 -1 3 0 -5 -7 -7 0 5 -2 5 2 3 -3 -7 -5 -7 -7 -9 -14 -14 -16 -16 -3 -9 -10 -14 -12 -20 -22 -22 -20 -16 -19 -18 -19 -18 -18 -21 -22 -24 -25 -26 -28

GFSWCAN_sfc_dewp_099.txt.gz
Dewpoint
35 35 35 37 37 36 36 38 40 41 43 44 45 46 46 47 46 43 41 40 37 33 30 32 29 27 30 30 25 27 27 29 31 28 27 25 24 24 26 29 31 28 27 25 26 22 20 37 36 28 34 38 36 37
36 34 35 35 38 35 36 38 40 42 43 44 45 45 46 47 46 44 39 42 41 36 36 38 36 36 34 34 33 33 32 33 35 31 29 28 26 25 28 24 35 30 32 27 27 27 37 36 35 36 36 34 35 35
35 35 35 35 36 35 36 38 41 42 43 45 45 45 46 46 46 43 41 41 40 34 33 33 31 34 37 38 38 31 33 36 37 39 35 33 26 30 27 29 33 34 38 35 33 37 35 36 35 33 35 34 33 32
35 35 34 36 35 36 39 41 42 43 44 45 45 45 46 46 46 43 40 41 39 37 27 28 33 33 35 35 38 37 34 38 38 39 35 33 29 34 31 34 33 34 36 33 34 34 36 32 32 32 34 33 31 30
33 34 34 35 34 38 40 41 42 43 44 45 45 46 45 46 46 43 42 42 40 36 28 29 33 32 34 35 35 38 37 36 35 34 32 30 31 33 35 34 30 34 31 30 26 33 34 33 30 32 29 28 28 29
33 33 33 34 36 39 41 42 43 44 45 45 46 46 45 47 45 42 34 42 41 40 35 25 31 34 35 35 34 36 38 38 38 36 31 32 36 34 30 27 31 33 33 33 31 33 35 34 31 29 27 25 25 24
32 33 34 36 38 41 42 43 44 44 45 45 45 45 46 46 42 37 33 37 42 42 35 28 26 32 36 36 36 38 38 38 39 37 33 31 33 37 31 26 28 32 30 31 32 35 31 29 27 27 27 25 25 22
31 33 34 38 40 42 43 43 43 44 45 45 45 45 45 46 42 38 42 43 42 39 37 28 26 30 40 31 32 38 35 38 38 34 36 32 37 33 22 26 26 27 29 28 29 26 28 27 25 24 25 24 22 21
34 35 37 40 41 43 43 44 44 44 45 45 45 45 43 38 36 38 44 43 43 39 30 31 26 24 37 36 37 37 38 31 36 33 33 34 27 20 25 24 24 24 24 24 26 23 24 27 24 22 22 22 21 20
35 36 40 41 43 42 43 45 46 46 47 46 43 35 30 36 44 43 39 35 35 36 37 31 31 30 34 35 34 34 34 31 29 32 32 25 19 24 24 25 25 24 22 21 20 20 20 21 21 20 19 18 18 18
38 40 41 42 42 42 44 44 44 43 42 40 33 33 41 42 38 34 30 31 32 30 31 31 32 33 37 31 31 34 31 31 27 30 30 23 19 21 23 22 22 21 20 19 19 18 19 19 20 19 17 17 16 16
40 41 42 40 41 42 43 44 44 42 42 40 40 42 40 35 33 30 28 30 27 24 27 29 33 35 35 34 33 33 27 30 21 33 23 11 19 20 19 18 19 19 18 16 16 16 17 17 18 17 16 15 15 14
41 40 40 41 42 42 44 43 42 42 41 39 35 32 32 28 21 16 22 25 26 29 33 34 32 31 33 34 32 32 26 24 31 21 12 14 20 19 18 18 17 16 15 15 15 15 14 13 13 13 12 12 11 10
39 38 42 42 41 44 44 43 40 37 33 29 22 11 16 7 13 13 21 19 27 29 31 33 31 30 32 29 30 23 29 30 20 14 7 15 19 19 18 17 15 15 14 12 9 9 9 9 9 9 8 8 8 7
37 38 37 42 44 43 41 37 34 31 27 24 21 14 13 18 19 19 22 25 27 30 31 32 30 28 25 19 22 22 15 10 11 5 6 15 18 18 17 17 15 12 7 7 5 7 6 7 8 7 8 9 9 7
37 36 31 36 39 38 37 34 32 30 26 22 19 17 20 15 15 17 20 22 28 28 30 30 23 15 16 12 12 9 13 4 4 9 15 17 12 13 14 14 11 9 7 7 6 7 7 5 6 7 8 8 6 5
38 29 35 38 38 37 35 29 28 26 22 18 16 20 14 15 13 15 18 23 28 26 19 23 13 13 18 11 9 12 2 2 9 13 13 12 13 12 12 14 12 11 10 8 8 8 6 7 7 9 6 8 10 10
30 35 37 38 36 34 31 28 25 22 19 19 16 17 19 19 16 18 21 24 25 25 23 19 20 11 1 5 3 7 10 14 17 16 15 14 14 13 13 9 7 10 9 7 7 5 5 5 7 8 9 9 9 10
33 35 38 38 34 30 26 25 25 19 21 21 23 22 21 18 20 21 22 22 21 21 21 17 10 9 10 12 9 9 8 9 11 13 15 15 15 15 13 13 13 11 11 10 11 9 8 9 11 12 11 10 7 7
37 37 37 37 34 27 24 25 27 22 19 22 21 19 19 18 20 18 17 19 18 17 12 10 10 11 11 12 9 8 7 12 13 11 9 11 6 8 10 15 15 16 16 16 16 16 15 14 15 15 14 12 11 9
34 34 35 32 29 28 25 25 24 23 24 21 19 18 16 16 15 14 14 14 13 12 9 11 9 14 14 10 11 13 11 14 7 10 8 9 12 14 14 12 16 16 13 12 11 11 13 12 13 12 9 6 4 4
32 35 29 30 27 26 25 26 24 25 25 24 24 22 15 10 8 12 14 9 10 9 7 9 9 10 12 10 10 11 13 18 16 16 15 14 13 13 12 12 14 11 12 11 13 10 11 12 11 9 5 2 7 6
33 31 27 25 20 18 21 29 22 24 18 21 21 16 13 11 14 14 5 12 10 12 10 13 12 9 13 9 13 13 13 16 14 15 14 14 13 13 14 14 14 11 11 12 14 12 11 11 9 4 3 3 1 -5
26 22 18 16 18 13 17 16 23 20 20 16 13 9 9 9 12 5 3 2 8 15 13 11 13 11 12 12 9 8 9 12 10 9 9 11 10 12 13 13 13 14 14 14 12 6 6 1 1 0 -4 -7 -8 -7
13 11 13 7 14 9 6 6 10 13 6 8 6 6 8 12 -0 -3 1 5 11 10 13 14 14 10 6 1 6 6 11 11 9 7 8 10 7 7 7 8 7 9 9 -1 -6 -9 -11 -7 0 1 1 -3 1 -3
4 4 8 6 7 9 9 5 4 4 4 1 2 7 4 -2 -7 -6 7 4 1 6 4 14 8 9 8 9 6 6 6 10 10 6 6 8 8 1 -2 -2 -3 0 3 -6 -9 -14 -13 -16 -13 -9 -10 -5 -5 -13
0 2 14 17 19 16 7 9 12 5 -3 -2 1 -5 -6 -13 -11 2 10 8 9 5 9 11 13 11 8 7 8 7 7 8 7 7 7 6 5 5 4 -2 -1 0 0 -6 -7 -7 -9 -15 -17 -18 -17 -18 -17 -13
7 9 4 2 4 9 -2 -4 -6 -5 -3 9 3 -8 -7 -5 -1 9 8 7 10 12 12 12 11 10 8 7 4 3 0 -0 2 2 2 2 0 -5 -8 -9 -7 2 -12 -15 -12 -7 -12 -13 -15 -16 -18 -14 -15 -24
2 6 5 -4 -1 2 3 -2 -3 5 10 4 -6 -6 1 9 6 8 6 8 10 10 7 5 -2 -1 -1 -2 -7 -7 -9 -3 -5 -10 -14 -15 -16 -7 -12 -16 -14 -15 -17 -12 -1 -7 -2 -8 -9 -9 -12 -13 -11 -19
3 8 -2 -9 -6 -2 -0 1 -2 -2 6 5 10 11 8 6 7 2 9 5 5 2 -1 3 -3 -4 -9 -9 -14 -12 -18 -20 -12 -5 -13 -16 -11 -10 -13 -16 -16 -19 -18 -17 -16 -13 -2 -13 -10 -15 -16 -17 -14 -15
8 1 -4 -2 -0 2 3 -3 -3 -3 -6 -5 -7 -3 1 4 10 5 -0 -4 -2 -1 -1 -6 -13 -16 -9 -14 -18 -18 -14 -15 -20 -18 -14 -13 -18 -17 -18 -19 -20 -19 -19 -17 -18 -20 -22 -23 -24 -22 -19 -19 -20 -20
-6 -10 -4 -3 2 4 2 -5 -9 -8 -13 -7 -7 -11 -7 -7 -7 -0 2 4 1 -7 -10 -3 -4 -6 -14 -18 -21 -20 -12 -12 -17 -16 -15 -18 -21 -22 -21 -20 -24 -22 -21 -21 -21 -22 -23 -24 -25 -22 -21 -22 -24 -26
-9 -12 -11 -4 -3 -1 -2 -3 -1 -1 -3 -3 -3 -5 -7 -7 -7 0 1 -1 2 2 -1 -5 -12 -8 -10 -12 -11 -17 -18 -20 -19 -5 -12 -12 -16 -16 -24 -27 -26 -23 -18 -22 -24 -24 -22 -22 -26 -26 -28 -27 -28 -30

GFSWCAN_sfc_dewp_102.txt.gz
Dewpoint
40 37 36 36 35 36 37 38 36 37 39 41 42 43 45 45 46 45 41 39 37 33 30 31 29 27 28 30 25 27 25 31 31 28 27 27 24 24 27 29 25 27 25 25 25 23 19 35 36 28 32 36 36 36
39 39 37 36 35 36 36 38 35 37 39 41 41 43 44 45 46 45 39 41 41 36 35 38 36 35 33 31 30 32 29 33 31 32 32 31 27 26 26 22 33 29 32 29 27 25 34 34 34 35 35 33 33 32
38 39 38 35 35 35 36 37 35 37 39 40 42 43 44 45 45 45 40 41 39 34 35 34 32 35 37 37 37 31 31 34 35 37 35 34 29 28 23 27 31 35 35 32 33 35 34 35 34 33 32 30 30 30
38 38 37 36 36 36 36 35 35 37 39 41 42 44 45 45 45 45 41 41 39 36 28 27 32 32 35 36 37 36 34 37 37 36 33 33 29 32 28 33 32 33 34 32 32 34 34 33 35 34 30 30 29 28
39 37 36 36 35 35 36 35 37 38 39 42 43 44 45 45 46 45 42 41 40 36 29 28 32 33 34 35 35 36 35 34 32 33 32 31 31 31 32 33 29 33 29 28 27 32 33 32 34 28 27 26 25 25
38 37 36 34 34 34 34 36 37 39 42 42 43 45 45 45 46 41 34 41 41 40 34 25 30 32 34 34 34 35 35 34 37 35 32 34 35 33 29 27 30 32 32 32 29 33 33 34 33 31 25 24 22 21
37 37 35 34 33 34 35 38 40 41 42 44 45 45 45 44 44 37 33 36 42 42 34 27 26 30 35 34 33 35 38 35 36 36 34 33 32 34 30 26 29 30 30 30 31 34 30 29 28 29 25 23 23 20
37 36 34 34 33 35 37 39 41 42 44 44 45 45 45 45 43 38 40 43 41 38 37 25 25 28 39 30 32 37 34 35 36 36 36 33 35 32 25 25 25 26 28 26 27 29 31 28 25 23 23 22 21 20
36 34 34 34 34 37 38 41 42 43 44 44 44 45 44 39 35 38 44 43 42 38 29 30 24 20 38 35 34 34 33 31 35 32 31 33 28 19 24 24 22 22 22 22 26 22 25 23 21 20 20 19 19 19
34 33 34 35 37 39 41 42 43 44 44 45 43 34 30 34 44 43 39 34 35 36 36 30 30 28 33 34 33 33 34 30 28 30 31 26 19 23 24 24 23 21 20 19 20 18 19 20 20 18 17 18 18 18
33 34 36 37 40 41 43 43 44 45 45 38 32 32 39 43 38 34 30 30 32 29 32 31 31 30 36 30 32 34 31 31 25 30 27 21 17 20 22 21 20 19 18 17 17 18 19 18 18 18 16 16 15 14
36 36 39 40 41 42 42 44 44 43 40 37 39 41 39 35 32 30 28 30 27 24 27 29 32 35 34 34 31 32 30 30 24 32 22 11 18 21 20 19 18 18 17 16 16 16 16 16 16 15 14 13 13 12
38 40 41 41 41 43 44 44 43 43 40 38 35 32 32 26 24 21 21 23 24 30 32 33 32 31 33 34 32 31 26 25 31 19 10 13 19 19 18 17 15 14 14 13 13 13 13 12 12 12 10 10 10 8
40 40 39 40 43 44 44 42 39 38 35 28 25 11 19 9 12 12 23 25 27 28 32 32 30 30 31 29 29 25 28 30 20 6 4 14 18 18 18 16 14 13 12 11 9 8 9 8 7 7 6 4 4 4
39 39 43 41 43 40 37 36 33 31 28 24 21 14 10 16 18 19 21 27 27 30 31 31 29 27 23 22 19 19 14 9 11 6 5 15 18 17 16 15 13 10 7 5 3 5 3 4 6 5 5 3 4 3
37 38 41 41 39 37 36 34 32 29 25 21 18 15 18 14 14 19 22 24 27 28 29 26 20 14 16 12 11 7 14 5 3 7 14 16 11 13 12 12 9 7 5 3 3 5 5 3 4 5 6 4 2 2
33 31 41 39 37 36 33 29 27 23 21 19 15 19 11 13 10 15 19 22 27 27 12 19 11 13 15 7 5 9 -0 -1 6 11 11 11 14 11 12 13 12 11 8 7 7 9 6 5 6 7 5 7 9 7
35 38 37 37 36 32 30 27 24 21 19 19 15 14 14 14 13 16 19 23 25 22 20 16 18 9 -2 3 1 4 8 12 14 12 13 13 14 14 15 10 11 11 10 9 10 8 8 6 7 7 8 8 8 7
37 37 39 38 35 29 25 25 24 19 20 21 20 20 18 16 19 20 22 23 21 21 19 16 8 6 5 5 -0 1 7 10 12 12 13 12 11 13 11 11 11 10 11 10 11 11 10 11 10 11 10 9 6 7
40 40 40 38 34 27 23 24 25 21 18 19 21 19 19 18 19 18 18 19 16 16 12 10 9 10 12 11 10 11 6 11 13 9 7 8 8 11 10 13 13 13 14 13 14 14 14 14 14 13 12 10 9 6
34 34 35 32 29 28 26 25 23 23 22 18 17 15 15 18 15 14 14 13 11 10 8 11 9 10 10 11 6 10 9 12 5 9 7 8 10 12 13 14 16 15 13 11 12 11 12 11 12 12 8 5 2 1
33 34 29 29 27 26 25 26 24 25 23 21 22 20 13 6 2 7 13 8 8 7 8 8 7 7 10 8 8 9 8 13 12 13 11 11 8 10 9 10 14 10 11 10 13 10 11 12 10 7 -0 -5 1 -0
31 29 26 24 19 18 21 29 20 23 18 21 19 13 8 5 12 13 5 10 9 10 8 11 9 8 11 10 14 13 15 15 13 12 12 9 9 9 11 12 12 10 10 12 13 12 10 10 6 1 -0 1 -1 -6
25 21 16 16 18 13 16 14 22 19 17 14 12 8 6 6 10 3 1 2 7 14 12 9 12 11 11 11 7 6 6 10 9 8 7 9 8 9 11 11 12 12 12 10 7 1 1 -3 -4 -3 -10 -14 -17 -16
14 10 13 9 13 9 5 4 9 11 2 6 5 4 5 10 -1 -4 0 2 8 5 9 11 11 10 5 0 3 5 10 11 9 6 6 8 5 5 6 6 6 7 8 -4 -9 -11 -13 -9 -4 -7 -10 -14 -5 -10
5 4 8 6 7 9 9 3 0 1 0 -2 -1 4 1 -3 -8 -8 5 3 -1 3 4 5 4 6 7 8 6 5 5 9 9 5 5 7 5 -1 -4 -4 -3 0 1 -8 -12 -15 -14 -17 -13 -6 -6 -5 -3 -8
1 1 13 14 16 14 6 6 10 4 -4 -2 0 -8 -8 -12 -10 0 6 6 9 5 11 12 12 10 7 7 7 6 6 6 6 5 5 4 3 4 1 -2 -0 -1 -1 -8 -11 -12 -11 -16 -18 -17 -16 -18 -16 -11
6 7 3 -0 2 7 -4 -6 -5 -4 -4 8 2 -9 -7 -7 -3 5 7 4 9 12 11 10 10 9 7 5 3 2 -1 -2 0 -1 -0 0 -2 -7 -10 -11 -9 -0 -15 -18 -18 -8 -14 -15 -17 -20 -20 -16 -17 -24
0 4 4 -5 -2 0 2 -2 -2 6 9 1 -8 -8 -1 7 3 5 6 7 11 9 5 2 -5 -4 -3 -4 -9 -8 -6 -3 -7 -12 -15 -17 -18 -9 -15 -18 -17 -18 -20 -13 -1 -6 -9 -11 -12 -11 -14 -14 -14 -24
1 6 -3 -10 -8 -4 -2 1 -2 -2 5 3 7 9 6 3 4 2 5 4 5 1 -5 0 -5 -6 -7 -6 -13 -9 -16 -20 -14 -7 -12 -15 -11 -14 -19 -19 -19 -21 -22 -19 -17 -15 -4 -14 -10 -18 -18 -19 -19 -20
5 -1 -5 -4 -3 -2 -1 -5 -10 -10 -11 -9 -11 -5 -0 5 10 5 -1 -8 -3 -2 -2 -8 -16 -19 -11 -14 -17 -16 -14 -16 -24 -21 -19 -20 -18 -20 -20 -22 -24 -25 -22 -21 -22 -23 -24 -25 -27 -22 -17 -16 -18 -19
-8 -12 -6 -6 -1 0 0 -10 -13 -11 -14 -8 -8 -10 -6 -6 -6 0 -5 -6 -4 -7 -11 -5 -6 -7 -13 -17 -19 -20 -14 -11 -19 -19 -16 -20 -23 -25 -24 -23 -27 -25 -23 -23 -24 -25 -26 -26 -26 -24 -23 -23 -26 -27
-14 -15 -14 -8 -5 -4 -5 -4 -4 -4 -8 -7 -6 -10 -11 -7 -5 -1 -2 -2 2 4 1 -1 -12 -13 -9 -11 -13 -18 -17 -20 -20 -6 -11 -12 -18 -18 -27 -29 -28 -25 -21 -24 -27 -26 -24 -24 -27 -28 -30 -29 -29 -31